[[{"header":{"parameterUnit":"m.s-1","parameterCategory":1,"la1":31.0,"la2":29.5877,"lo1":-88.7671,"lo2":-86.6584,"dy":0.0162,"dx":0.0185,"nx":115,"ny":88,"refTime":"2024-07-29T06:00:00:Z","depth":0,"parameterNumber":2,"parameterNumberName":"U-component_of_WINDS"},"data":[0.0,0.0,0.0,0.0,0.0,0.0,0.0,0.0,0.0,0.0,0.0,0.0,0.0,0.0,0.0,0.0,0.0,0.0,0.0,0.0,0.0,0.0,0.0,0.0,0.0,0.0,0.0,0.0,0.0,0.0,0.0,0.0,0.0,0.0,0.0,0.0,0.0,0.0,0.0,0.0,0.0,0.0,0.0,0.0,0.0,0.0,0.0,0.0,0.0,0.0,0.0,0.0,0.0,0.0,0.0,0.0,0.0,0.0,0.0,0.0,0.0,0.0,0.0,0.0,0.0,0.0,0.0,0.0,0.0,0.0,0.0,0.0,0.0,0.0,0.0,0.0,0.0,0.0,0.0,0.0,0.0,0.0,0.0,0.0,0.0,0.0,0.0,0.0,0.0,0.0,0.0,0.0,0.0,0.0,0.0,0.0,0.0,0.0,0.0,0.0,0.0,0.0,0.0,0.0,0.0,0.0,0.0,0.0,0.0,0.0,0.0,0.0,0.0,0.0,0.0,0.0,0.0,0.0,0.0,0.0,0.0,0.0,0.0,0.0,0.0,0.0,0.0,0.0,0.0,0.0,0.0,0.0,0.0,0.0,0.0,0.0,0.0,0.0,0.0,0.0,0.0,0.0,0.0,0.0,0.0,0.0,0.0,0.0,0.0,0.0,0.0,0.0,0.0,0.0,0.0,0.0,0.0,0.0,0.0,0.0,0.0,0.0,0.0,0.0,0.0,0.0,0.0,0.0,0.0,0.0,0.0,0.0,0.0,0.0,0.0,0.0,0.0,0.0,0.0,0.0,0.0,0.0,0.0,0.0,0.0,0.0,0.0,0.0,0.0,0.0,0.0,0.0,0.0,0.0,0.0,0.0,0.0,0.0,0.0,0.0,0.0,0.0,0.0,0.0,0.0,0.0,0.0,0.0,0.0,0.0,0.0,0.0,0.0,0.0,0.0,0.0,0.0,0.0,0.0,0.0,0.0,0.0,0.0,0.0,0.0,0.0,0.0,0.0,0.0,0.0,0.0,0.0,0.0,0.0,0.0,0.0,0.0,0.0,0.0,0.0,0.0,0.0,0.0,0.0,0.0,0.0,0.0,0.0,0.0,0.0,0.0,0.0,0.0,0.0,0.0,0.0,0.0,0.0,0.0,0.0,0.0,0.0,0.0,0.0,0.0,0.0,0.0,0.0,0.0,0.0,0.0,0.0,0.0,0.0,0.0,0.0,0.0,0.0,0.0,0.0,0.0,0.0,0.0,0.0,0.0,0.0,0.0,0.0,0.0,0.0,0.0,0.0,0.0,0.0,0.0,0.0,0.0,0.0,0.0,0.0,0.0,0.0,0.0,0.0,0.0,0.0,0.0,0.0,0.0,0.0,0.0,0.0,0.0,0.0,0.0,0.0,0.0,0.0,0.0,0.0,0.0,0.0,0.0,0.0,0.0,0.0,0.0,0.0,0.0,0.0,0.0,0.0,0.0,0.0,0.0,0.0,0.0,0.0,0.0,0.0,0.0,0.0,0.0,0.0,0.0,0.0,0.0,0.0,0.0,0.0,0.0,0.0,0.0,0.0,0.0,0.0,0.0,0.0,0.0,0.0,0.0,0.0,0.0,0.0,0.0,0.0,0.0,0.0,0.0,0.0,0.0,0.0,0.0,0.0,0.0,0.0,0.0,0.0,0.0,0.0,0.0,0.0,0.0,0.0,0.0,0.0,0.0,0.0,0.0,0.0,0.0,0.0,0.0,0.0,0.0,0.0,0.0,0.0,0.0,0.0,0.0,0.0,0.0,0.0,0.0,0.0,0.0,0.0,0.0,0.0,0.0,0.0,0.0,0.0,0.0,0.0,0.0,0.0,0.0,0.0,0.0,0.0,0.0,0.0,0.0,0.0,0.0,0.0,0.0,0.0,0.0,0.0,0.0,0.0,0.0,0.0,0.0,0.0,0.0,0.0,0.0,0.0,0.0,0.0,0.0,0.0,0.0,0.0,0.0,0.0,0.0,0.0,0.0,0.0,0.0,0.0,0.0,0.0,0.0,0.0,0.0,0.0,0.0,0.0,0.0,0.0,0.0,0.0,0.0,0.0,0.0,0.0,0.0,0.0,0.0,0.0,0.0,0.0,0.0,0.0,0.0,0.0,0.0,0.0,0.0,0.0,0.0,0.0,0.0,0.0,0.0,0.0,0.0,0.0,0.0,0.0,0.0,0.0,0.0,0.0,0.0,0.0,0.0,0.0,0.0,0.0,0.0,0.0,0.0,0.0,0.0,0.0,0.0,0.0,0.0,0.0,0.0,0.0,0.0,0.0,0.0,0.0,0.0,0.0,0.0,0.0,0.0,0.0,0.0,0.0,0.0,0.0,0.0,0.0,0.0,0.0,0.0,0.0,0.0,0.0,0.0,0.0,0.0,0.0,0.0,0.0,0.0,0.0,0.0,0.0,0.0,0.0,0.0,0.0,0.0,0.0,0.0,0.0,0.0,0.0,0.0,0.0,0.0,0.0,0.0,0.0,0.0,0.0,0.0,0.0,0.0,0.0,0.0,0.0,0.0,0.0,0.0,0.0,0.0,0.0,0.0,0.0,0.0,0.0,0.0,0.0,0.0,0.0,0.0,0.0,0.0,0.0,0.0,0.0,0.0,0.0,0.0,0.0,0.0,0.0,0.0,0.0,0.0,0.0,0.0,0.0,0.0,0.0,0.0,0.0,0.0,0.0,0.0,0.0,0.0,0.0,0.0,0.0,0.0,0.0,0.0,0.0,0.0,0.0,0.0,0.0,0.0,0.0,0.0,0.0,0.0,0.0,0.0,0.0,0.0,0.0,0.0,0.0,0.0,0.0,0.0,0.0,0.0,0.0,0.0,0.0,0.0,0.0,0.0,0.0,0.0,0.0,0.0,0.0,0.0,0.0,0.0,0.0,0.0,0.0,0.0,0.0,0.0,0.0,0.0,0.0,0.0,0.0,0.0,0.0,0.0,0.0,0.0,0.0,0.0,0.0,0.0,0.0,0.0,0.0,0.0,0.0,0.0,0.0,0.0,0.0,0.0,0.0,0.0,0.0,0.0,0.0,0.0,0.0,0.0,0.0,0.0,0.0,0.0,0.0,0.0,0.0,0.0,0.0,0.0,0.0,0.0,0.0,0.0,0.0,0.0,0.0,0.0,0.0,0.0,0.0,0.0,0.0,0.0,0.0,0.0,0.0,0.0,0.0,0.0,0.0,0.0,0.0,0.0,0.0,0.0,0.0,0.0,0.0,0.0,0.0,0.0,0.0,0.0,0.0,0.0,0.0,0.0,0.0,0.0,0.0,0.0,0.0,0.0,0.0,0.0,0.0,0.0,0.0,0.0,0.0,0.0,0.0,0.0,0.0,0.0,0.0,0.0,0.0,0.0,0.0,0.0,0.0,0.0,0.0,0.0,0.0,0.0,0.0,0.0,0.0,0.0,0.0,0.0,0.0,0.0,0.0,0.0,0.0,0.0,0.0,0.0,0.0,0.0,0.0,0.0,0.0,0.0,0.0,0.0,0.0,0.0,0.0,0.0,0.0,0.0,0.0,0.0,0.0,0.0,0.0,0.0,0.0,0.0,0.0,0.0,0.0,0.0,0.0,0.0,0.0,0.0,0.0,0.0,0.0,0.0,0.0,0.0,0.0,0.0,0.0,0.0,0.0,0.0,0.0,0.0,0.0,0.0,0.0,0.0,0.0,0.0,0.0,0.0,0.0,0.0,0.0,0.0,0.0,0.0,0.0,0.0,0.0,0.0,0.0,0.0,0.0,0.0,0.0,0.0,0.0,0.0,0.0,0.0,0.0,0.0,0.0,0.0,0.0,0.0,0.0,0.0,0.0,0.0,0.0,0.0,0.0,0.0,0.0,0.0,0.0,0.0,0.0,0.0,0.0,0.0,0.0,0.0,0.0,0.0,0.0,0.0,0.0,0.0,0.0,0.0,0.0,0.0,0.0,0.0,0.0,0.0,0.0,0.0,0.0,0.0,0.0,0.0,0.0,0.0,0.0,0.0,0.0,0.0,0.0,0.0,0.0,0.0,0.0,0.0,0.0,0.0,0.0,0.0,0.0,0.0,0.0,0.0,0.0,0.0,0.0,0.0,0.0,0.0,0.0,0.0,0.0,0.0,0.0,0.0,0.0,0.0,0.0,0.0,0.0,0.0,0.0,0.0,0.0,0.0,0.0,0.0,0.0,0.0,0.0,0.0,0.0,0.0,0.0,0.0,0.0,0.0,0.0,0.0,0.0,0.0,0.0,0.0,0.0,0.0,0.0,-0.1794,0.0,0.0,0.0,0.0,0.0,0.0,0.0,0.0,0.0,0.0,0.0,0.0,0.0,0.0,0.0,0.0,0.0,0.0,0.0,0.0,0.0,0.0,0.0,0.0,0.0,0.0,0.0,0.0,0.0,0.0,0.0,0.0,0.0,0.0,0.0,0.0,0.0,0.0,0.0,0.0,0.0,0.0,0.0,0.0,0.0,0.0,0.0,0.0,0.0,0.0,0.0,0.0,0.0,0.0,0.0,0.0,0.0,0.0,0.0,0.0,0.0,0.0,0.0,0.0,0.0,0.0,0.0,0.0,0.0,0.0,0.0,0.0,0.0,0.0,0.0,0.0,0.0,0.0,0.0,0.0,0.0,0.0,0.0,0.0,0.0,0.0,0.0,0.0,0.0,0.0,0.0,0.0,0.0,0.0,0.0,0.0,0.0,0.0,0.0,0.0,0.0,0.0,0.0,0.0,0.0,0.0,0.0,0.0,0.0,0.0,-0.1791,-0.1798,-0.1496,-0.1474,-0.1775,0.0,0.0,0.0,0.0,0.0,0.0,0.0,0.0,0.0,0.0,0.0,0.0,0.0,0.0,0.0,0.0,0.0,0.0,0.0,0.0,0.0,0.0,0.0,0.0,0.0,0.0,0.0,0.0,0.0,0.0,0.0,0.0,0.0,0.0,0.0,0.0,0.0,0.0,0.0,0.0,0.0,0.0,0.0,0.0,0.0,0.0,0.0,0.0,0.0,0.0,0.0,0.0,0.0,0.0,0.0,0.0,0.0,0.0,0.0,0.0,0.0,0.0,0.0,0.0,0.0,0.0,0.0,0.0,0.0,0.0,0.0,0.0,0.0,0.0,0.0,0.0,0.0,0.0,0.0,0.0,0.0,0.0,0.0,0.0,0.0,0.0,0.0,0.0,0.0,0.0,0.0,0.0,0.0,0.0,0.0,0.0,0.0,0.0,0.0,0.0,0.0,0.0,0.0,0.0,0.0,0.0,0.0,0.0,0.0,0.0,0.0,0.0,-0.1206,-0.1182,-0.1758,0.0,0.0,0.0,0.0,0.0,0.0,0.0,0.0,0.0,0.0,0.0,0.0,0.0,0.0,0.0,0.0,0.0,0.0,0.0,0.0,0.0,0.0,0.0,0.0,0.0,0.0,0.0,0.0,0.0,0.0,0.0,0.0,0.0,0.0,0.0,0.0,0.0,0.0,0.0,0.0,0.0,0.0,0.0,0.0,0.0,0.0,0.0,0.0,0.0,0.0,0.0,0.0,0.0,0.0,0.0,0.0,0.0,0.0,0.0,0.0,0.0,0.0,0.0,0.0,0.0,0.0,0.0,0.0,0.0,0.0,0.0,0.0,0.0,0.0,0.0,0.0,0.0,0.0,0.0,0.0,0.0,0.0,0.0,0.0,0.0,0.0,0.0,0.0,0.0,0.0,0.0,0.0,0.0,0.0,0.0,0.0,0.0,0.0,0.0,0.0,0.0,0.0,0.0,0.0,0.0,0.0,0.0,0.0,0.0,0.0,-0.1807,-0.1786,-0.1207,0.0,-0.1685,0.0,0.0,0.0,0.0,0.0,0.0,0.0,0.0,0.0,0.0,0.0,0.0,0.0,0.0,0.0,0.0,0.0,0.0,0.0,0.0,0.0,0.0,0.0,0.0,0.0,0.0,0.0,0.0,0.0,0.0,0.0,0.0,0.0,0.0,0.0,0.0,0.0,0.0,0.0,0.0,0.0,0.0,0.0,0.0,0.0,0.0,0.0,0.0,0.0,0.0,0.0,0.0,0.0,0.0,0.0,0.0,0.0,0.0,0.0,0.0,0.0,0.0,0.0,0.0,0.0,0.0,0.0,0.0,0.0,0.0,0.0,0.0,0.0,0.0,0.0,0.0,0.0,0.0,0.0,0.0,0.0,0.0,0.0,0.0,0.0,0.0,0.0,0.0,0.0,0.0,0.0,0.0,0.0,0.0,0.0,0.0,0.0,0.0,0.0,0.0,0.0,0.0,0.0,0.0,0.0,0.0,0.0,0.0,0.0,0.0,0.0,-0.1797,-0.087,-0.0477,0.0,0.0,0.0,0.0,0.0,0.0,0.0,0.0,0.0,0.0,0.0,0.0,0.0,0.0,0.0,0.0,0.0,0.0,0.0,0.0,0.0,0.0,0.0,0.0,0.0,0.0,0.0,0.0,0.0,0.0,0.0,0.0,0.0,0.0,0.0,0.0,0.0,0.0,0.0,0.0,0.0,0.0,0.0,0.0,0.0,0.0,0.0,0.0,0.0,0.0,0.0,0.0,0.0,0.0,0.0,0.0,0.0,0.0,0.0,0.0,0.0,0.0,0.0,0.0,0.0,0.0,0.0,0.0,0.0,0.0,0.0,0.0,0.0,0.0,0.0,0.0,0.0,0.0,0.0,0.0,0.0,0.0,0.0,0.0,0.0,0.0,0.0,0.0,0.0,0.0,0.0,0.0,0.0,0.0,0.0,0.0,0.0,0.0,0.0,0.0,0.0,0.0,0.0,0.0,0.0,0.0,0.0,0.0,0.0,0.0,-0.1091,0.0,-0.127,-0.0443,-0.0,-0.0,0.0,0.0,0.0,0.0,0.0,0.0,0.0,0.0,0.0,0.0,0.0,0.0,0.0,0.0,0.0,0.0,0.0,0.0,0.0,0.0,0.0,0.0,0.0,0.0,0.0,0.0,0.0,0.0,0.0,0.0,0.0,0.0,0.0,0.0,0.0,0.0,0.0,0.0,0.0,0.0,0.0,0.0,0.0,0.0,0.0,0.0,0.0,0.0,0.0,0.0,0.0,0.0,0.0,0.0,0.0,0.0,0.0,0.0,0.0,0.0,0.0,0.0,0.0,0.0,0.0,0.0,0.0,0.0,0.0,0.0,0.0,0.0,0.0,0.0,0.0,0.0,0.0,0.0,0.0,0.0,0.0,0.0,0.0,0.0,0.0,0.0,0.0,0.0,0.0,0.0,0.0,0.0,0.0,0.0,0.0,0.0,0.0,0.0,0.0,0.0,0.0,0.0,0.0,0.0,0.0,0.0,0.0,0.0,0.0,-0.0,-0.0,-0.0,-0.0,-0.0,0.0,0.0,0.0,0.0,0.0,0.0,0.0,0.0,0.0,0.0,0.0,0.0,0.0,0.0,0.0,0.0,0.0,0.0,0.0,0.0,0.0,0.0,0.0,0.0,0.0,0.0,0.0,0.0,0.0,0.0,0.0,0.0,0.0,0.0,0.0,0.0,0.0,0.0,0.0,0.0,0.0,0.0,0.0,0.0,0.0,0.0,0.0,0.0,0.0,0.0,0.0,0.0,0.0,0.0,0.0,0.0,0.0,0.0,0.0,0.0,0.0,0.0,0.0,0.0,0.0,0.0,0.0,0.0,0.0,0.0,0.0,0.0,0.0,0.0,0.0,0.0,0.0,0.0,0.0,0.0,0.0,0.0,0.0,0.0,0.0,0.0,0.0,0.0,0.0,0.0,0.0,0.0,0.0,0.0,0.0,0.0,0.0,0.0,0.0,0.0,0.0,0.0,0.0,0.0,0.0,0.0,0.0,0.0,0.0,-0.0,-0.0,-0.0,-0.0,-0.0,-0.0,0.0,0.0,0.0,0.0,0.0,0.0,0.0,0.0,0.0,0.0,0.0,0.0,0.0,0.0,0.0,0.0,0.0,0.0,0.0,0.0,0.0,0.0,0.0,0.0,0.0,0.0,0.0,0.0,0.0,0.0,0.0,0.0,0.0,0.0,0.0,0.0,0.0,0.0,0.0,0.0,0.0,0.0,0.0,0.0,0.0,0.0,0.0,0.0,0.0,0.0,0.0,0.0,0.0,0.0,0.0,0.0,0.0,0.0,0.0,0.0,0.0,0.0,0.0,0.0,0.0,0.0,0.0,0.0,0.0,0.0,0.0,0.0,0.0,0.0,0.0,0.0,0.0,0.0,0.0,0.0,0.0,0.0,0.0,0.0,0.0,0.0,0.0,0.0,0.0,0.0,0.0,0.0,0.0,0.0,0.0,0.0,0.0,0.0,0.0,0.0,0.0,0.0,0.0,0.0,0.0,0.0,0.0,0.0,0.0,-0.0,0.0,-0.0,0.0,-0.0,-0.0,0.0,0.0,0.0,0.0,0.0,0.0,0.0,0.0,0.0,0.0,0.0,0.0,0.0,0.0,0.0,0.0,0.0,0.0,0.0,0.0,0.0,0.0,0.0,0.0,0.0,0.0,0.0,0.0,0.0,0.0,0.0,0.0,0.0,0.0,0.0,0.0,0.0,0.0,0.0,0.0,0.0,0.0,0.0,0.0,0.0,0.0,0.0,0.0,0.0,0.0,0.0,0.0,0.0,0.0,0.0,0.0,0.0,0.0,0.0,0.0,0.0,0.0,0.0,0.0,0.0,0.0,0.0,0.0,0.0,0.0,0.0,0.0,0.0,0.0,0.0,0.0,0.0,0.0,0.0,0.0,0.0,0.0,0.0,0.0,0.0,0.0,0.0,0.0,0.0,0.0,0.0,0.0,0.0,0.0,0.0,0.0,0.0,0.0,0.0,0.0,0.0,0.0,0.0,0.0,0.0,0.0,0.0,0.0,-0.0,-0.0,-0.0,-0.0,-0.0,-0.0,-0.0,0.0,0.0,0.0,0.0,0.0,0.0,0.0,0.0,0.0,0.0,0.0,0.0,0.0,0.0,0.0,0.0,0.0,0.0,0.0,0.0,0.0,0.0,0.0,0.0,0.0,0.0,0.0,0.0,0.0,0.0,0.0,0.0,0.0,0.0,0.0,0.0,0.0,0.0,0.0,0.0,0.0,0.0,0.0,0.0,0.0,0.0,0.0,0.0,0.0,0.0,0.0,0.0,0.0,0.0,0.0,0.0,0.0,0.0,0.0,0.0,0.0,0.0,0.0,0.0,0.0,0.0,0.0,0.0,0.0,0.0,0.0,0.0,0.0,0.0,0.0,0.0,0.0,0.0,0.0,0.0,0.0,0.0,0.0,0.0,0.0,0.0,0.0,0.0,0.0,0.0,0.0,0.0,0.0,0.0,0.0,0.0,0.0,0.0,0.0,0.0,0.0,0.0,0.0,0.0,0.0,0.0,0.0,0.0,0.0,-0.0,-0.0,-0.0,-0.0,-0.0,-0.0,0.0,0.0,0.0,0.0,0.0,0.0,0.0,0.0,0.0,0.0,0.0,0.0,0.0,0.0,0.0,0.0,0.0,0.0,0.0,0.0,0.0,0.0,0.0,0.0,0.0,0.0,0.0,0.0,0.0,0.0,0.0,0.0,0.0,0.0,0.0,0.0,0.0,0.0,0.0,0.0,0.0,0.0,0.0,0.0,0.0,0.0,0.0,0.0,0.0,0.0,0.0,0.0,0.0,0.0,0.0,0.0,0.0,0.0,0.0,0.0,0.0,0.0,0.0,0.0,0.0,0.0,0.0,0.0,0.0,0.0,0.0,0.0,0.0,0.0,0.0,0.0,0.0,0.0,0.0,0.0,0.0,0.0,0.0,0.0,0.0,0.0,0.0,0.0,0.0,0.0,0.0,0.0,0.0,0.0,0.0,0.0,0.0,0.0,0.0,0.0,0.0,0.0,0.0,0.0,0.0,0.0,0.0,0.0,0.0,-0.0,-0.0,-0.0,-0.0,-0.0,-0.0,-0.0,0.0,0.0,0.0,0.0,0.0,0.0,0.0,0.0,0.0,0.0,0.0,0.0,0.0,0.0,0.0,0.0,0.0,0.0,0.0,0.0,0.0,0.0,0.0,0.0,0.0,0.0,0.0,0.0,0.0,0.0,0.0,0.0,0.0,0.0,0.0,0.0,0.0,0.0,0.0,0.0,0.0,0.0,0.0,0.0,0.0,0.0,0.0,0.0,0.0,0.0,0.0,0.0,0.0,0.0,0.0,0.0,0.0,0.0,0.0,0.0,0.0,0.0,0.0,0.0,0.0,0.0,0.0,0.0,0.0,0.0,0.0,0.0,0.0,0.0,0.0,0.0,0.0,0.0,0.0,0.0,0.0,0.0,0.0,0.0,0.0,0.0,0.0,0.0,0.0,0.0,0.0,0.0,0.0,0.0,0.0,0.0,0.0,0.0,0.0,0.0,0.0,0.0,0.0,0.0,0.0,0.0,0.0,0.0,-0.0,-0.0,-0.0,-0.0,-0.0,-0.0,0.0,0.0,0.0,0.0,0.0,0.0,0.0,0.0,0.0,0.0,0.0,0.0,0.0,0.0,0.0,0.0,0.0,0.0,0.0,0.0,0.0,0.0,0.0,0.0,0.0,0.0,0.0,0.0,0.0,0.0,0.0,0.0,0.0,0.0,0.0,0.0,0.0,0.0,0.0,0.0,0.0,0.0,0.0,0.0,0.0,0.0,0.0,0.0,0.0,0.0,0.0,0.0,0.0,0.0,0.0,0.0,0.0,0.0,0.0,0.0,0.0,0.0,0.0,0.0,0.0,0.0,0.0,0.0,0.0,0.0,0.0,0.0,0.0,0.0,0.0,0.0,0.0,0.0,0.0,0.0,0.0,0.0,0.0,0.0,0.0,0.0,0.0,0.0,0.0,0.0,0.0,0.0,0.0,0.0,0.0,0.0,0.0,0.0,0.0,0.0,0.0,0.0,0.0,0.0,0.0,0.0,0.0,0.0,0.0,-0.0,-0.0,-0.0,-0.0,-0.0,-0.0,0.0,0.0,0.0,0.0,0.0,0.0,0.0,0.0,0.0,0.0,0.0,0.0,0.0,0.0,0.0,0.0,0.0,0.0,0.0,0.0,0.0,0.0,0.0,0.0,0.0,0.0,0.0,0.0,0.0,0.0,0.0,0.0,0.0,0.0,0.0,0.0,0.0,0.0,0.0,0.0,0.0,0.0,0.0,0.0,0.0,0.0,0.0,0.0,0.0,0.0,0.0,0.0,0.0,0.0,0.0,0.0,0.0,0.0,0.0,0.0,0.0,0.0,0.0,0.0,0.0,0.0,0.0,0.0,0.0,0.0,0.0,0.0,0.0,0.0,0.0,0.0,0.0,0.0,0.0,0.0,0.0,0.0,0.0,0.0,0.0,0.0,0.0,0.0,0.0,0.0,0.0,0.0,0.0,0.0,0.0,0.0,0.0,0.0,0.0,0.0,0.0,0.0,0.0,0.0,0.0,0.0,0.0,0.0,-0.0,-0.0,-0.0,-0.0,-0.0,-0.0,-0.0,0.0,0.0,0.0,0.0,0.0,0.0,0.0,0.0,0.0,0.0,0.0,0.0,0.0,0.0,0.0,0.0,0.0,0.0,0.0,0.0,0.0,0.0,0.0,0.0,0.0,0.0,0.0,0.0,0.0,0.0,0.0,0.0,0.0,0.0,0.0,0.0,0.0,0.0,0.0,0.0,0.0,0.0,0.0,0.0,0.0,0.0,0.0,0.0,0.0,0.0,0.0,0.0,0.0,0.0,0.0,0.0,0.0,0.0,0.0,0.0,0.0,0.0,0.0,0.0,0.0,0.0,0.0,0.0,0.0,0.0,0.0,0.0,0.0,0.0,0.0,0.0,0.0,0.0,0.0,0.0,0.0,0.0,0.0,0.0,0.0,0.0,0.0,0.0,0.0,0.0,0.0,0.0,0.0,0.0,0.0,0.0,0.0,0.0,0.0,0.0,0.0,0.0,0.0,0.0,0.0,0.0,0.0,0.0,-0.0,-0.0,-0.0,-0.0,-0.0,-0.0,-0.0,0.0,0.0,0.0,0.0,0.0,0.0,0.0,0.0,0.0,0.0,0.0,0.0,0.0,0.0,0.0,0.0,0.0,0.0,0.0,0.0,0.0,0.0,0.0,0.0,0.0,0.0,0.0,0.0,0.0,0.0,0.0,0.0,0.0,0.0,0.0,0.0,0.0,0.0,0.0,0.0,0.0,0.0,0.0,0.0,0.0,0.0,0.0,0.0,0.0,0.0,0.0,0.0,0.0,0.0,0.0,0.0,0.0,0.0,0.0,0.0,0.0,0.0,0.0,0.0,0.0,0.0,0.0,0.0,0.0,0.0,0.0,0.0,0.0,0.0,0.0,0.0,0.0,0.0,0.0,0.0,0.0,0.0,0.0,0.0,0.0,0.0,0.0,0.0,0.0,0.0,0.0,0.0,0.0,0.0,0.0,0.0,0.0,0.0,0.0,0.0,0.0,0.0,0.0,0.0,0.0,0.0,0.0,0.0,-0.0,-0.0,-0.0,-0.0,-0.0,-0.0,-0.0,0.0,0.0,0.0,0.0,0.0,0.0,0.0,0.0,0.0,0.0,0.0,0.0,0.0,0.0,0.0,0.0,0.0,0.0,0.0,0.0,0.0,0.0,0.0,0.0,0.0,0.0,0.0,0.0,0.0,0.0,0.0,0.0,0.0,0.0,0.0,0.0,0.0,0.0,0.0,0.0,0.0,0.0,0.0,0.0,0.0,0.0,0.0,0.0,0.2223,0.0,0.0,0.0,0.0,0.0,0.0,0.0,0.0,0.0,0.0,0.0,0.0,0.0,0.0,0.0,0.0,0.0,0.0,0.0,0.0,0.0,0.0,0.0,0.0,0.0,0.0,0.0,0.0,0.0,0.0,0.0,0.0,0.0,0.0,0.0,0.0,0.0,0.0,0.0,0.0,0.0,0.0,0.0,0.0,0.0,0.0,0.0,0.0,0.0,0.0,0.0,0.0,0.0,0.0,0.0,0.0,0.0,0.0,0.0,-0.0,-0.0,-0.0,-0.0,-0.0,-0.0,-0.0,0.0,0.0,0.0,0.0,0.0,0.0,0.0,0.0,0.0,0.0,0.0,0.0,0.0,0.0,0.0,0.0,0.0,0.0,0.0,0.0,0.0,0.0,0.0,0.0,0.0,0.0,0.0,0.0,0.0,0.0,0.0,0.0,0.0,0.0,0.0,0.0,0.0,0.0,0.0,0.0,0.0,0.0,0.0,0.0,0.0,0.0,0.0,0.0,0.0,0.0,0.0,0.0,0.0,0.0,0.0,0.0,0.0,0.0,0.0,0.0,0.0,0.0,0.0,0.0,0.0,0.0,0.0,0.0,0.0,0.0,0.0,0.0,0.0,0.0,0.0,0.0,0.0,0.0,0.0,0.0,0.0,0.0,0.0,0.0,0.0,0.0,0.0,0.0,0.0,0.0,0.0,0.0,0.0,0.0,0.0,0.0,0.0,0.0,0.0,0.0,0.0,0.0,0.0,0.0,0.0,0.0,0.0,-0.0,-0.0,-0.0,-0.0,-0.0,-0.0,-0.0,-0.0,-0.0,0.0,0.0,0.0,0.0,0.0,0.0,0.0,0.0,0.0,0.0,0.0,0.0,0.0,0.0,0.0,0.0,0.0,0.0,0.0,0.0,0.0,0.0,0.0,0.0,0.0,0.0,0.0,0.0,0.0,0.0,0.0,0.0,0.0,0.0,0.0,0.0,0.0,0.0,0.1799,0.1393,0.0,0.0,0.0,0.0,0.0,0.0,0.0,0.0,0.2213,0.0,0.0,0.0,0.0,0.0,0.0,0.0,0.0,0.0,0.0,0.0,0.0,0.0,0.0,0.0,0.0,0.0,0.0,0.0,0.0,0.0,0.0,0.0,0.0,0.0,0.0,0.0,0.0,0.0,0.0,0.0,0.0,0.0,0.0,0.0,0.0,0.0,0.0,0.0,0.0,0.0,0.0,0.0,0.0,0.0,0.0,0.0,0.0,0.0,0.0,0.0,0.0,0.0,0.0,0.0,0.0,-0.0,-0.0,-0.0,-0.0,-0.0,-0.0,-0.0,-0.0,-0.0,-0.0,0.0,0.0,0.0,0.0,0.0,0.0,0.0,0.0,0.0,0.0,0.0,0.0,0.0,0.0,0.0,0.0,0.0,0.0,0.0,0.0,0.0,0.0,0.0,0.0,0.0,0.0,0.0,0.0,0.0,0.0,0.0,0.0,0.0,0.0,0.0,0.0,0.0,0.0,0.0,0.1918,0.224,0.0,0.0,0.0,0.0,0.0,0.0,0.0,0.0,0.2288,0.0,0.0,0.0,0.0,0.0,0.0,0.0,0.0,0.0,0.0,0.0,0.0,0.0,0.0,0.0,0.0,0.0,0.0,0.0,0.0,0.0,0.0,0.0,0.0,0.0,0.0,0.0,0.0,0.0,0.0,0.0,0.0,0.0,0.0,0.0,0.0,0.0,0.0,0.0,0.0,0.0,0.0,0.0,0.0,0.0,0.0,0.0,0.0,0.0,0.0,0.0,0.0,0.0,0.0,0.0,-0.0,-0.0,-0.0,-0.0,-0.0,-0.0,-0.0,-0.0,-0.0,0.0,0.0,0.0,0.0,0.0,0.0,0.0,0.0,0.0,0.0,0.0,0.0,0.0,0.0,0.0,0.0,0.0,0.0,0.0,0.0,0.0,0.0,0.0,0.0,0.0,0.0,0.0,0.0,0.0,0.0,0.0,0.0,0.0,0.0,0.0,0.0,0.0,0.0,0.0,0.0,0.238,0.2688,0.3257,0.0,0.0,0.0,0.0,0.0,0.0,0.2728,0.2517,0.0,0.0,0.0,0.0,0.0,0.0,0.0,0.0,0.0,0.0,0.0,0.0,0.0,0.0,0.0,0.0,0.0,0.0,0.0,0.0,0.0,0.0,0.0,0.0,0.0,0.0,0.0,0.0,0.0,0.0,0.0,0.0,0.0,0.0,0.0,0.0,0.0,0.0,0.0,0.0,0.0,0.0,0.0,0.0,0.0,0.0,0.0,0.0,0.0,0.0,0.0,0.0,0.0,0.0,0.0,-0.0,-0.0,-0.0,-0.0,-0.0,-0.0,-0.0,-0.0,-0.0,0.0,0.0,0.0,0.0,0.0,0.0,0.0,0.0,0.0,0.0,0.0,0.0,0.0,0.0,0.0,0.0,0.0,0.0,0.0,0.0,0.0,0.0,0.0,0.0,0.0,0.0,0.0,0.0,0.0,0.0,0.0,0.0,0.0,0.0,0.0,0.0,0.0,0.0,0.0,0.0,0.0,0.3055,0.3507,0.3395,0.0,0.0,0.0,0.0,0.3248,0.3035,0.0,0.0,0.0,0.0,0.0,0.0,0.0,0.0,0.0,0.0,0.0,0.0,0.0,0.0,0.0,0.0,0.0,0.0,0.0,0.0,0.0,0.0,0.0,0.0,0.0,0.0,0.0,0.0,0.0,0.0,0.0,0.0,0.0,0.0,0.0,0.0,0.0,0.0,0.0,0.0,0.0,0.0,0.0,0.0,0.0,0.0,0.0,0.0,0.0,0.0,0.0,0.0,0.0,0.0,0.0,0.0,-0.0,-0.0,-0.0,-0.0,-0.0,-0.0,-0.0,-0.0,-0.0,0.0,0.0,0.0,0.0,0.0,0.0,0.0,0.0,0.0,0.0,0.0,0.0,0.0,0.0,0.0,0.0,0.0,0.0,0.0,0.0,0.0,0.0,0.0,0.0,0.0,0.0,0.0,0.0,0.0,0.0,0.0,0.0,0.0,0.0,0.0,0.0,0.0,0.0,0.0,0.0,0.0,0.3536,0.3585,0.3587,0.3443,0.0,0.0,0.3375,0.3813,0.367,0.0,0.0,0.0,0.0,0.0,0.0,0.0,0.0,0.0,0.0,0.0,0.0,0.0,0.0,0.0,0.0,0.0,0.0,0.0,0.0,0.0,0.0,0.0,0.0,0.0,0.0,0.0,0.0,0.0,0.0,0.0,0.0,0.0,0.0,0.0,0.0,0.0,0.0,0.0,0.0,0.0,0.0,0.0,0.0,0.0,0.0,0.0,0.0,0.0,0.0,0.0,0.0,0.0,0.0,0.0,-0.0,-0.0,-0.0,-0.0,-0.0,-0.0,-0.0,-0.0,-0.0,-0.0,0.0,0.0,0.0,0.0,0.0,0.0,0.0,0.0,0.0,0.0,0.0,0.0,0.0,0.0,0.0,0.0,0.0,0.0,0.0,0.0,0.0,0.0,0.0,0.0,0.0,0.0,0.0,0.0,0.0,0.0,0.0,0.0,0.0,0.0,0.0,0.0,0.0,0.0,0.0,0.0,0.0,0.0,0.3762,0.4001,0.0,0.0,0.0,0.3767,0.4197,0.0,0.0,0.0,0.0,0.0,0.0,0.0,0.0,0.0,0.0,0.0,0.0,0.0,0.0,0.0,0.0,0.0,0.0,0.0,0.0,0.0,0.0,0.0,0.0,0.0,0.0,0.0,0.0,0.0,0.0,0.0,0.0,0.0,0.0,0.0,0.0,0.0,0.0,0.0,0.0,0.0,0.0,0.0,0.0,0.0,0.0,0.0,0.0,0.0,0.0,0.0,0.0,0.0,0.0,0.0,0.0,0.0,-0.0,-0.0,-0.0,-0.0,-0.0,-0.0,-0.0,-0.0,0.0,0.0,0.0,0.0,0.0,0.0,0.0,0.0,0.0,0.0,0.0,0.0,0.0,0.0,0.0,0.0,0.0,0.0,0.0,0.0,0.0,0.0,0.0,0.0,0.0,0.0,0.0,-0.0,0.0,0.0,0.0,0.0,0.0,0.0,0.0,0.0,0.0,0.0,0.0,0.0,0.0,0.0,0.323,0.384,0.3615,0.3467,0.0,0.0,0.3566,0.439,0.4108,0.3763,0.0,0.0,0.0,0.0,0.0,0.0,0.0,0.0,0.0,0.0,0.0,0.0,0.0,0.0,0.0,0.0,0.0,0.0,0.0,0.0,0.0,0.0,0.0,0.0,0.0,0.0,0.0,0.0,0.0,0.0,0.0,0.0,0.0,0.0,0.0,0.0,0.0,0.0,0.0,0.0,0.0,0.0,0.0,0.0,0.0,0.0,0.0,0.0,0.0,0.0,0.0,0.0,0.0,0.0,0.0,-0.0,-0.0,-0.0,-0.0,-0.0,-0.0,-0.0,-0.0,-0.0,0.0,0.0,0.0,0.0,0.0,0.0,0.0,0.0,0.0,0.0,0.0,0.0,0.0,0.0,0.0,0.0,0.0,0.0,0.0,0.0,0.0,0.0,0.0,0.0,0.0,0.0,0.0,0.0,0.0,0.0,0.0,0.0,0.0,0.0,0.0,0.0,0.0,0.0,0.0,0.0,0.0,0.3853,0.3636,0.1704,0.1279,0.0,0.0,0.2511,0.4216,0.4436,0.4229,0.3673,0.0,0.0,0.0,0.0,0.0,0.0,0.0,0.0,0.0,0.0,0.0,0.0,0.0,0.0,0.0,0.0,0.0,0.0,0.0,0.0,0.0,0.0,0.0,0.0,0.0,0.0,0.0,0.0,0.0,0.0,0.0,0.0,0.0,0.0,0.0,0.0,0.0,0.0,0.0,0.0,0.0,0.0,0.0,0.0,0.0,0.0,0.0,0.0,0.0,0.0,0.0,0.0,0.0,-0.0921,-0.2724,-0.276,-0.2301,-0.1392,-0.1341,-0.134,-0.1341,-0.1202,-0.0757,0.0,0.0,0.0,0.0,0.0,0.0,0.0,0.0,0.0,0.0,0.0,0.0,0.0,0.0,0.0,0.0,0.0,0.0,0.0,0.0,0.0,0.0,0.0,0.0,0.0,0.0,0.0,0.0,-0.0,-0.0,-0.0,0.0,0.0,0.0,0.0,0.0,0.0,0.0,0.0,0.0,0.0,0.3436,0.4037,0.1793,0.0,0.0,0.188,0.198,0.1728,0.264,0.3527,0.3922,0.3608,0.0,0.0,0.0,0.0,0.0,0.0,0.0,0.0,0.0,0.0,0.0,0.0,0.0,0.0,0.0,0.0,0.0,0.0,0.0,0.0,0.0,0.0,0.0,0.0,0.0,0.0,0.0,0.0,0.0,0.0,0.0,0.0,0.0,0.0,0.0,0.0,0.0,0.0,0.0,0.0,0.0,0.0,0.0,0.0,0.0,0.0,0.0,0.0,0.0,0.0,0.0,0.0,-0.1503,-0.4471,-0.4497,-0.3984,-0.2901,-0.2907,-0.2907,-0.2901,-0.2615,-0.2012,0.0,0.0,0.0,0.0,0.0,0.0,0.0,0.0,0.0,0.0,0.0,0.0,0.0,0.0,0.0,0.0,0.0,0.0,0.0,0.0,0.0,0.0,0.0,0.0,0.0,0.0,0.0,0.0,-0.0,-0.0,-0.0,0.0,0.0,0.0,0.0,0.0,0.0,0.0,0.0,0.0,0.0,0.2994,0.3121,0.1341,-0.0,-0.0,0.0895,0.1173,0.0168,0.1072,0.2401,0.3772,0.0,0.0,0.0,0.0,0.0,0.0,0.0,0.0,0.0,0.0,0.0,0.0,0.0,0.0,0.0,0.0,0.0,0.0,0.0,0.0,0.0,0.0,0.0,0.0,0.0,0.0,0.0,-0.0,0.0,0.0,-0.0,0.0,0.0,0.0,0.0,0.0,0.0,0.0,0.0,0.0,0.0,0.0,0.0,0.0,0.0,0.0,0.0,0.0,0.0,0.0,0.0,0.0,0.0,-0.1493,-0.442,-0.4467,-0.4469,-0.4428,-0.4438,-0.4379,-0.4376,-0.4105,-0.381,-0.3455,0.0,0.0,0.0,0.0,0.0,0.0,0.0,0.0,0.0,0.0,0.0,0.0,0.0,0.0,0.0,0.0,0.0,0.0,0.0,0.0,0.0,0.0,0.0,0.0,0.0,0.0,-0.0,-0.0,-0.0,0.0,0.0,0.0,0.0,0.0,0.0,0.0,0.0,0.0,0.0,0.3188,0.2705,0.0502,-0.0,-0.0,-0.0,-0.0,-0.0,-0.0,-0.0,0.0872,0.0,0.0,0.0,0.0,0.0,0.0,0.0,0.0,0.0,0.0,0.0,0.0,0.0,0.0,0.0,0.0,0.0,0.0,0.0,0.0,0.0,0.0,0.0,0.0,0.0,0.0,0.0,-0.1856,-0.0,0.0,0.0,0.0,0.0,0.0,0.0,0.0,0.0,0.0,0.0,0.0,-0.4466,-0.4478,0.0,0.0,0.0,0.0,0.0,0.0,0.0,0.0,0.0,0.0,0.0,0.0,-0.1383,-0.4061,-0.4409,-0.4495,-0.4467,-0.4473,-0.4473,-0.447,-0.4284,-0.3948,-0.3623,0.0,0.0,0.0,0.0,0.0,0.0,0.0,0.0,0.0,0.0,0.0,0.0,0.0,0.0,0.0,0.0,0.0,0.0,0.0,0.0,0.0,0.0,0.0,0.0,0.0,-0.0,0.0,0.0,0.0,0.0,0.0,0.0,0.0,0.0,0.0,0.0,0.0,0.2842,0.3237,0.2108,0.0941,0.0112,-0.0,-0.0,0.0,0.0,0.0,0.0,0.0,0.0,0.0,0.0,0.0,0.0,0.0,0.0,0.0,0.0,0.3928,0.4039,0.3578,0.3211,0.3152,0.0,0.0,0.0,0.0,0.0,0.0,0.0,0.0,0.0,0.0,0.0,0.0,0.0,0.0,-0.3524,0.0,-0.1108,0.0,0.0,0.0,0.0,0.0,0.0,0.0,0.0,-0.2429,-0.2586,-0.4467,-0.4489,-0.4477,0.0,-0.4256,-0.3252,0.0,0.0,0.0,0.0,0.0,0.0,0.0,0.0,-0.2002,-0.4054,-0.4405,-0.4485,-0.4508,-0.4463,-0.4463,-0.4515,-0.4378,-0.4091,-0.3623,-0.3215,-0.2717,0.0,0.0,0.0,0.0,0.0,0.0,0.0,0.0,0.0,0.0,0.0,0.0,0.0,0.0,0.0,0.0,0.0,0.0,0.0,0.0,0.0,0.0,0.0,-0.0,0.0,0.0,0.0,0.0,0.0,0.0,0.0,0.0,0.0,-0.0,0.1046,0.1888,0.2311,0.1003,-0.0,-0.0,0.0,0.0,0.0,0.0,0.0,0.0,0.0,0.0281,0.1012,0.1146,0.1162,0.1184,0.1852,0.2595,0.3428,0.0,0.0,0.2934,0.263,0.262,0.3527,0.3715,0.3728,0.3819,0.3934,0.4009,0.0,0.0,0.0,0.0,0.0,0.0,0.0,0.0,-0.3264,-0.4808,0.0,-0.3174,0.0,0.0,0.0,0.0,0.0,-0.2334,0.0,0.0,-0.4268,-0.4464,-0.4492,-0.4508,-0.4392,-0.4267,-0.4379,-0.439,-0.4095,-0.2622,0.0,0.0,0.0,0.0,0.0,0.0,-0.3291,-0.4439,-0.4473,-0.4488,-0.4512,-0.4463,-0.4463,-0.4515,-0.4488,-0.425,-0.3664,-0.3613,-0.3314,-0.2747,-0.216,0.0,0.0,0.0,0.0,0.0,0.0,0.0,0.0,0.0,0.0,0.0,0.0,0.0,0.0,0.0,0.0,0.0,0.0,0.0,0.0,-0.0,0.0,0.0,0.0,0.0,0.0,0.0,0.0,0.0,0.0,0.0,-0.0,-0.0,-0.0,-0.0,0.0,0.0,0.0,0.0,-0.0,-0.0,-0.0,-0.0,-0.0,-0.0,-0.0,-0.0,0.0,0.0,-0.0,-0.0,0.0781,0.3032,0.1604,-0.0,-0.0,-0.0,-0.0,0.362,0.394,0.3956,0.4118,0.4186,0.4453,-0.3102,0.0,0.0,0.0,0.0,-0.4333,-0.377,-0.3276,-0.4392,-0.4875,-0.4727,-0.43,0.0,0.0,0.0,0.0,0.0,0.0,-0.4179,-0.4729,-0.4326,-0.4311,-0.4625,-0.4545,-0.4488,-0.4406,-0.4501,-0.4453,-0.4376,-0.3797,-0.3369,-0.3118,0.0,0.0,0.0,0.0,-0.3731,-0.4421,-0.4467,-0.4477,-0.446,-0.4463,-0.4463,-0.446,-0.4488,-0.4404,-0.4249,-0.3837,-0.3524,-0.3317,-0.2772,0.0,0.0,0.0,0.0,0.0,0.0,0.0,0.0,0.0,0.0,0.0,0.0,0.0,0.0,0.0,0.0,0.0,0.0,0.0,-0.0,-0.0,-0.0,0.0,0.0,0.0,0.0,0.0,0.0,0.0,0.0,0.0,-0.0,-0.0,-0.0,0.0,0.0,-0.0,-0.0,-0.0,-0.0,-0.0,-0.0,0.0,-0.0,-0.0,-0.0,-0.0,-0.0,-0.0,-0.0,-0.0,0.024,-0.0,0.0478,-0.0,-0.0,-0.0,-0.0,0.1157,0.2036,0.2699,0.2811,0.3674,0.415,-0.4944,-0.3945,-0.3868,-0.432,-0.506,-0.4994,-0.4879,-0.4674,-0.4893,-0.4962,-0.4826,-0.4838,-0.4827,-0.4689,-0.4215,0.0,0.0,0.0,-0.4766,-0.4977,-0.4539,-0.4476,-0.472,-0.472,-0.4611,-0.4582,-0.4582,-0.4551,-0.4551,-0.4406,-0.4184,-0.3817,0.0,0.0,-0.3271,-0.3469,-0.3916,-0.4481,-0.4506,-0.4463,-0.4463,-0.4463,-0.4463,-0.446,-0.4487,-0.4505,-0.4488,-0.3897,-0.3588,-0.3599,-0.325,-0.2819,0.0,0.0,0.0,0.0,0.0,0.0,0.0,0.0,0.0,0.0,0.0,-0.2466,0.0,0.0,0.0,0.0,-0.0555,-0.0,-0.0,-0.0,0.0,0.0,0.0,0.0,0.0,0.0,0.0,-0.0,-0.0,-0.0,-0.0,-0.0,-0.0,-0.0,-0.0,-0.0,-0.0,0.0,-0.0,-0.0,-0.0,-0.0,-0.0,-0.0,-0.0,-0.0,-0.0,-0.0,-0.0,-0.0,-0.0,-0.0,-0.0,-0.0,-0.0,-0.0,-0.0,-0.0,0.0727,0.1284,0.1339,0.2069,0.2575,-0.5837,-0.5817,-0.5768,-0.5624,-0.5399,-0.5253,-0.5044,-0.4931,-0.4931,-0.5116,-0.5399,-0.5075,-0.5006,-0.5036,-0.4834,0.0,-0.4731,-0.4874,-0.4938,-0.4955,-0.4952,-0.4887,-0.4813,-0.4874,-0.4931,-0.4793,-0.4775,-0.4711,-0.4701,-0.4555,-0.4416,-0.4224,-0.3988,-0.3907,-0.3979,-0.3789,-0.3964,-0.4485,-0.4504,-0.4463,-0.4463,-0.4463,-0.4463,-0.4463,-0.4453,-0.4474,-0.445,-0.3956,-0.3614,-0.3608,-0.3591,-0.3358,-0.2757,0.0,0.0,0.0,0.0,0.0,0.0,0.0,0.0,0.0,0.0,0.0,0.0,0.0,0.0,0.0,-0.0482,0.0,-0.0339,-0.0334,0.0,0.0,0.0,-0.0304,-0.0046,-0.0,-0.0,-0.0,0.0,0.0,-0.0,-0.0,-0.0,-0.0,-0.0,-0.0,-0.0,-0.0,-0.0,-0.0,-0.0,-0.0,-0.0,-0.0,-0.0,-0.0,-0.0,-0.0,-0.0,-0.0,-0.0,-0.0,-0.0,-0.0,-0.0,-0.0,-0.0,-0.0,-0.0,-0.0,-0.0,-0.0,-0.0,-0.6152,-0.6222,-0.6156,-0.5971,-0.5717,-0.5644,-0.5477,-0.5309,-0.5517,-0.5555,-0.5373,-0.5339,-0.5135,-0.4979,-0.4884,-0.4925,-0.5026,-0.5064,-0.5145,-0.5319,-0.5257,-0.5192,-0.5021,-0.521,-0.5216,-0.5046,-0.4884,-0.4863,-0.4857,-0.4711,-0.4619,-0.4579,-0.4395,-0.421,-0.3988,-0.4191,-0.4372,-0.4467,-0.4498,-0.4463,-0.4463,-0.4463,-0.4463,-0.446,-0.4355,-0.432,-0.4488,-0.4107,-0.3797,-0.3625,-0.3594,-0.3414,-0.3022,-0.2595,0.0,0.0,0.0,0.0,0.0,0.0,0.0,0.0,0.0,-0.3269,-0.3575,0.0,-0.2717,0.0,-0.1507,-0.1435,-0.3238,-0.3438,0.0,0.0,-0.3819,-0.3016,-0.0,-0.0,-0.0,-0.0,-0.0,-0.0,-0.0,-0.0,-0.0,-0.0,-0.0,-0.0,-0.0,-0.0,-0.0,-0.0,-0.0,-0.0,-0.0,-0.0,-0.0,-0.0,-0.0,-0.0,-0.0,-0.0,-0.0,-0.0,-0.0,-0.0,-0.0,-0.0,-0.0,-0.0,-0.0,-0.0,-0.0,-0.0,-0.0,-0.6261,-0.6261,-0.6261,-0.6162,-0.6,-0.5935,-0.5788,-0.5581,-0.5728,-0.5782,-0.5772,-0.5696,-0.5538,-0.5311,-0.5247,-0.526,-0.5328,-0.5264,-0.5277,-0.5425,-0.5428,-0.5315,-0.5233,-0.5366,-0.5324,-0.5244,-0.5047,-0.5013,-0.5003,-0.4863,-0.4792,-0.4792,-0.4707,-0.4532,-0.4226,-0.4401,-0.4463,-0.4463,-0.4463,-0.4463,-0.4463,-0.4463,-0.4463,-0.4463,-0.4385,-0.4295,-0.4285,-0.4087,-0.3815,-0.3404,-0.3395,-0.328,-0.3124,-0.2825,-0.2453,0.0,0.0,0.0,0.0,0.0,0.0,0.0,0.0,0.0,0.0,0.0,-0.3629,-0.3795,-0.2762,-0.274,-0.4357,-0.4483,-0.4634,-0.4873,-0.519,-0.4601,-0.2569,-0.1698,-0.123,-0.119,-0.1224,-0.118,-0.1181,-0.1197,-0.0873,-0.0,-0.0,-0.0,-0.0,-0.0,-0.0,-0.0,-0.0,-0.0,-0.0,-0.0,-0.0,-0.0,-0.0,-0.0,-0.0,-0.0,-0.0,-0.0,-0.0,-0.0,-0.0,-0.0,-0.0,-0.0,-0.0,-0.0,-0.0,-0.0,-0.0,-0.6261,-0.6261,-0.6261,-0.6261,-0.6251,-0.6115,-0.5983,-0.5861,-0.5861,-0.5999,-0.6273,-0.6104,-0.5946,-0.5796,-0.5674,-0.5616,-0.561,-0.546,-0.5393,-0.5389,-0.5369,-0.5428,-0.5428,-0.5428,-0.5428,-0.5422,-0.5223,-0.5159,-0.5155,-0.5016,-0.4945,-0.4945,-0.4928,-0.4783,-0.4571,-0.4498,-0.448,-0.4463,-0.4463,-0.4463,-0.4463,-0.4463,-0.4463,-0.446,-0.4481,-0.434,-0.4086,-0.4002,-0.3762,-0.3259,-0.3207,-0.3236,-0.3172,-0.3052,-0.2805,0.0,-0.2085,0.0,0.0,0.0,0.0,0.0,0.0,0.0,0.0,-0.3698,-0.4085,-0.4427,-0.4015,-0.3965,-0.4426,-0.4484,-0.4724,-0.5346,-0.543,-0.5409,-0.5301,-0.4006,-0.3031,-0.3033,-0.3035,-0.3015,-0.3078,-0.3015,-0.241,-0.0,-0.0,-0.0,-0.0,-0.0,-0.0,-0.0,-0.0,-0.0,-0.0,-0.0,-0.0,-0.0,-0.0,-0.0,-0.0,-0.0,-0.0,-0.0,-0.0,-0.0,-0.0,-0.0,-0.0,-0.0,-0.0,-0.0,-0.0,-0.0,-0.0,-0.6261,-0.6261,-0.6261,-0.6261,-0.6257,-0.623,-0.6203,-0.6173,-0.6173,-0.618,-0.6053,-0.593,-0.5803,-0.58,-0.5772,-0.5762,-0.5752,-0.5613,-0.5549,-0.5538,-0.5487,-0.5428,-0.5428,-0.5428,-0.5428,-0.5425,-0.5397,-0.5384,-0.538,-0.5162,-0.5028,-0.5087,-0.4975,-0.4903,-0.4817,0.0,0.0,0.0,-0.4463,-0.4463,-0.4463,-0.4463,-0.4463,-0.4512,-0.4226,0.0,-0.4378,-0.41,-0.3896,-0.3859,-0.3924,0.0,0.0,0.0,0.0,0.0,0.0,0.0,0.0,0.0,0.0,0.0,-0.3712,-0.3571,-0.3548,-0.3918,-0.4132,-0.4122,-0.4383,-0.4535,-0.4505,-0.451,-0.4753,-0.5321,-0.5392,-0.536,-0.5178,-0.4977,-0.4866,-0.4878,-0.4897,-0.4849,-0.4779,-0.4916,-0.4709,-0.4097,-0.1805,-0.0,-0.0,-0.0,-0.0,-0.0,-0.0,-0.0,-0.0,-0.0,-0.0,-0.0,-0.0,-0.0,-0.0,-0.0,-0.0,-0.0,-0.0,-0.0,-0.0,-0.0,-0.0,-0.0,-0.0,-0.0,-0.0,-0.0,-0.0,-0.6322,-0.6261,-0.6261,-0.6261,0.0,-0.6261,-0.6261,-0.6261,-0.6261,-0.6213,-0.6139,-0.6061,-0.6027,-0.6098,-0.6456,-0.6634,-0.6622,-0.702,-0.7216,-0.7133,-0.5962,-0.5406,-0.5403,-0.6288,-0.626,-0.546,-0.587,-0.5818,-0.5425,-0.5284,-0.5243,-0.5243,-0.5172,-0.5126,-0.5157,-0.4703,-0.4495,-0.4463,-0.4463,-0.4463,-0.4519,-0.4842,-0.5003,-0.4999,-0.5161,0.0,0.0,0.0,0.0,0.0,0.0,0.0,0.0,0.0,0.0,-0.3612,-0.332,-0.3413,-0.3995,-0.4155,-0.4229,-0.4249,-0.4196,-0.4063,-0.3921,-0.4185,-0.4351,-0.4358,-0.4618,-0.4721,-0.4677,-0.4687,-0.4895,-0.5351,-0.5421,-0.538,-0.526,-0.5321,-0.5369,-0.5376,-0.5376,-0.5379,-0.5376,-0.5379,-0.5382,-0.5316,-0.3887,-0.2611,-0.2479,-0.1073,-0.0,-0.0,-0.0,-0.0,-0.0,-0.0,-0.0,-0.0,-0.0,-0.0,-0.0,-0.0,-0.0,-0.0,-0.0,-0.0,-0.0,-0.0,-0.0,-0.0,-0.0,-0.0,-0.0,-0.0,-0.0,-0.6344,-0.6298,-0.6376,-0.6285,-0.6261,-0.6261,-0.6261,-0.6261,0.0,0.0,0.0,-0.6261,-0.6261,-0.6328,-0.7021,-0.7397,-0.7607,-0.8279,-0.8674,-0.873,-0.6911,-0.5977,-0.5966,-0.7621,-0.7555,-0.5943,-0.6457,-0.6334,-0.562,-0.562,-0.5686,-0.5818,-0.5818,-0.5723,-0.5402,-0.4813,-0.4488,-0.447,-0.4463,-0.4463,-0.4519,-0.5054,-0.5328,-0.5324,-0.6004,-0.5774,-0.4532,-0.444,-0.4591,-0.4815,-0.4311,-0.4038,-0.4061,-0.3918,-0.3817,-0.3701,-0.3683,-0.3906,-0.4476,-0.4502,-0.447,-0.4499,-0.4508,-0.4412,-0.4294,-0.4392,-0.458,-0.468,-0.4714,-0.4792,-0.488,-0.4958,-0.5108,-0.5371,-0.5418,-0.5425,-0.5425,-0.5428,-0.5428,-0.5428,-0.5428,-0.5439,-0.5473,-0.5476,-0.5483,-0.5447,-0.52,-0.5376,-0.502,-0.2896,-0.0,-0.0,-0.0,-0.0,-0.0,-0.0,-0.0,-0.0,-0.0,-0.0,-0.0,-0.0,-0.0,-0.0,-0.0,-0.0,-0.0,-0.0,-0.0,-0.0,-0.0,-0.0,-0.0,-0.0,-0.0,-0.6495,-0.6441,-0.6441,-0.6373,-0.6261,-0.6261,-0.6261,-0.6261,-0.6335,-0.6261,-0.6261,-0.6261,-0.6261,-0.6338,-0.6391,-0.6912,-0.7728,-0.769,-0.8184,-0.9042,-0.8518,-0.8106,-0.7729,-0.9434,-0.9293,-0.7672,-0.7008,-0.6654,-0.6527,-0.6523,-0.6854,-0.7507,-0.7637,-0.6858,-0.5457,-0.4779,-0.4515,-0.4463,-0.4463,-0.4463,-0.4519,-0.457,-0.4625,-0.4673,-0.5243,-0.574,-0.6199,-0.5677,-0.5682,-0.6223,-0.5108,-0.4594,-0.5007,-0.4485,-0.4083,-0.3936,-0.3933,-0.4108,-0.4438,-0.4499,-0.4464,-0.4484,-0.4505,-0.4508,-0.4436,-0.445,-0.4584,-0.4677,-0.4809,-0.4884,-0.4895,-0.5165,-0.5318,-0.5391,-0.5411,-0.5428,-0.5428,-0.5428,-0.5428,-0.5428,-0.5428,-0.5487,-0.5521,-0.5552,-0.5599,-0.5698,-0.555,-0.5406,-0.5382,-0.499,-0.3971,-0.2546,-0.0938,-0.0,-0.0,-0.0,-0.0,-0.0,-0.0,-0.0,-0.0,-0.0,-0.0,-0.0,-0.0,-0.0,-0.0,-0.0,-0.0,-0.0,-0.0,-0.0,-0.0,-0.0,-0.0,-0.8317,-0.7643,-0.8197,-0.8334,-0.8074,-0.685,-0.6896,-0.7859,-0.7936,-0.733,-0.6416,-0.6868,-0.7099,-0.7176,-0.771,-0.8461,-0.9432,-0.9324,-0.9871,-1.0827,-1.0724,-1.059,-1.0413,-1.1175,-1.0776,-0.9445,-0.8682,-0.8007,-0.7447,-0.7437,-0.7372,-0.7377,-0.7792,-0.7575,-0.678,-0.5253,-0.4852,-0.5586,-0.4886,-0.4463,-0.4519,-0.4842,-0.5222,-0.5605,-0.59,-0.6549,-0.7699,-0.647,-0.636,-0.7751,-0.6699,-0.5887,-0.5428,-0.5107,-0.4752,-0.4319,-0.4267,-0.4365,-0.4476,-0.4481,-0.4463,-0.4463,-0.4463,-0.4463,-0.4463,-0.4538,-0.465,-0.4802,-0.4948,-0.5031,-0.5172,-0.5318,-0.5428,-0.5428,-0.5428,-0.5428,-0.5428,-0.5428,-0.5428,-0.5435,-0.5437,-0.5511,-0.5579,-0.5657,-0.5718,-0.5793,-0.5656,-0.5708,-0.582,-0.5611,-0.5152,-0.4284,-0.3439,-0.2087,-0.0,-0.0,-0.0,-0.0,-0.0,-0.0,-0.0,-0.0,-0.0,-0.0,-0.0,-0.0,-0.0,-0.0,-0.0,-0.0,-0.0,-0.0,-0.0,-0.0,-0.0,-0.9947,-0.8959,-0.9861,-1.0064,-0.9675,-0.779,-0.7872,-0.9209,-0.9703,-0.8913,-0.7415,-0.7863,-0.8161,-0.8237,-0.8917,-0.982,-1.0714,-1.0789,-1.131,-1.2204,-1.2315,-1.2291,-1.2336,-1.2305,-1.1744,-1.0786,-1.005,-0.9185,-0.8376,-0.8291,-0.8091,-0.7632,-0.7842,-0.8153,-0.8555,-0.6763,-0.6384,-0.7359,-0.6174,-0.5223,-0.4736,-0.5214,-0.5706,-0.61,-0.6258,-0.6789,-0.77,-0.7009,-0.7257,-0.8624,-0.8087,-0.7182,-0.6086,-0.5647,-0.5214,-0.4563,-0.4512,-0.4463,-0.4463,-0.4463,-0.4463,-0.4463,-0.4463,-0.4532,-0.4521,-0.4653,-0.4789,-0.4914,-0.4977,-0.5189,-0.5321,-0.5425,-0.5428,-0.5428,-0.5428,-0.5428,-0.5428,-0.5428,-0.5428,-0.5442,-0.5494,-0.5596,-0.5654,-0.5762,-0.5871,-0.5911,-0.5905,-0.6054,-0.6193,-0.5884,-0.549,-0.4981,-0.5121,-0.4359,-0.1579,-0.0,-0.0,-0.0,-0.0,-0.0,-0.0,-0.0,-0.0,-0.0,-0.0,-0.0,-0.0,-0.0,-0.0,-0.0,-0.0,-0.0,-0.0,-0.0,-0.0,-1.0454,-1.0257,-1.0408,-1.0285,-1.0165,-0.9361,-0.9072,-0.9257,-1.1109,-1.1242,-0.9889,-0.9392,-0.9221,-0.9145,-0.9296,-0.9895,-1.0789,-1.0789,-1.1316,-1.2231,-1.2278,-1.2265,-1.2304,-1.2291,-1.1961,-1.1201,-1.0276,-0.9598,-0.9215,-0.9139,-0.9524,-0.9958,-0.8758,-0.8748,-1.0069,-1.0043,-1.004,-1.0196,-0.9061,-0.7415,-0.5555,-0.5487,-0.5277,-0.468,-0.5328,-0.5366,-0.5233,-0.7242,-0.8575,-0.8751,-0.8676,-0.8273,-0.7413,-0.6244,-0.5202,-0.4583,-0.4501,-0.4463,-0.4463,-0.4463,-0.4463,-0.4463,-0.4525,-0.4584,-0.4653,-0.4809,-0.4904,-0.4948,-0.4991,-0.5206,-0.5404,-0.5428,-0.5428,-0.5428,-0.5428,-0.5428,-0.5428,-0.5428,-0.5428,-0.5428,-0.5511,-0.564,-0.5769,-0.5915,-0.6057,-0.6156,-0.6159,-0.6208,-0.6282,-0.6186,-0.5464,-0.4089,-0.4282,-0.4939,-0.3977,-0.1954,-0.0,-0.0,-0.0,-0.0,-0.0,-0.0,-0.0,-0.0,-0.0,-0.0,-0.0,-0.0,-0.0,-0.0,-0.0,-0.0,-0.0,-0.0,-0.0,-1.2237,-1.1573,-1.2271,-1.2462,-1.2219,-1.1882,-1.1569,-1.1414,-1.2261,-1.2196,-1.1534,-1.1186,-1.072,-1.019,-1.019,-1.072,-1.162,-1.1087,-1.1391,-1.2231,-1.2305,-1.2305,-1.2285,-1.2278,-1.1989,-1.1434,-1.0908,-1.0473,-1.0046,-0.9588,-0.9466,-0.9646,-0.859,-0.8413,-0.9103,-1.0095,-1.0575,-1.0583,-1.0112,-0.8945,-0.7255,-0.648,-0.6041,-0.5773,-0.5597,-0.5592,-0.5747,-0.615,-0.6642,-0.7444,-0.829,-0.8296,-0.7133,-0.6475,-0.5651,-0.4604,-0.4508,-0.4463,-0.4463,-0.4463,-0.4463,-0.4463,-0.4548,-0.4626,-0.4694,-0.4908,-0.5043,-0.506,-0.5182,-0.5298,-0.5418,-0.5428,-0.5428,-0.5428,-0.5428,-0.5428,-0.5428,-0.5428,-0.5456,-0.5484,-0.5623,-0.5769,-0.5918,-0.6071,-0.6183,-0.6251,-0.6261,-0.6307,-0.6266,-0.6263,-0.5937,-0.4904,-0.3509,-0.2252,-0.0,-0.1166,-0.0,-0.0,-0.0,-0.0,-0.0,-0.0,-0.0,-0.0,-0.0,-0.0,-0.0,-0.0,-0.0,-0.0,-0.0,-0.0,-0.0,-0.0,-0.0,-1.3613,-1.2942,-1.373,-1.3961,-1.3754,-1.373,-1.3466,-1.3175,-1.2997,-1.2692,-1.2337,-1.2331,-1.1922,-1.1236,-1.1236,-1.162,-1.2144,-1.1545,-1.162,-1.2231,-1.2305,-1.2305,-1.2305,-1.2305,-1.1997,-1.151,-1.1423,-1.1129,-1.0615,-0.9983,-0.9658,-0.9582,-0.9023,-0.8745,-0.8815,-1.0015,-1.06,-1.0602,-1.0587,-0.9999,-0.8737,-0.7827,-0.7084,-0.6593,-0.5873,-0.5701,-0.5968,-0.5023,-0.5175,-0.6587,-0.8026,-0.8224,-0.7025,-0.6696,-0.5987,-0.468,-0.4463,-0.4463,-0.4463,-0.4463,-0.4536,-0.4584,-0.469,-0.4728,-0.483,-0.5009,-0.5142,-0.5199,-0.5298,-0.5422,-0.5428,-0.5428,-0.5428,-0.5428,-0.5428,-0.5428,-0.5428,-0.5428,-0.5487,-0.5569,-0.5698,-0.5878,-0.6054,-0.6183,-0.6254,-0.6257,-0.6261,-0.6261,-0.6271,-0.6268,-0.6274,-0.6149,-0.3132,-0.1004,-0.0,-0.0,-0.0,-0.0,-0.0,-0.0,-0.0,-0.0,-0.0,-0.0,-0.0,-0.0,-0.0,-0.0,-0.0,-0.0,-0.0,-0.0,-0.0,-0.0,-0.0,-1.4088,-1.3997,-1.4088,-1.4075,-1.4062,-1.4035,-1.4047,-1.3899,-1.3214,-1.2661,-1.2342,-1.235,-1.2231,-1.215,-1.215,-1.2231,-1.2305,-1.2224,-1.215,-1.2305,-1.2305,-1.2305,-1.2305,-1.2298,-1.2004,-1.1503,-1.147,-1.1156,-1.0608,-1.0561,-1.0561,-1.0491,-1.0358,-1.0421,-1.0351,-1.0485,-1.0611,-1.062,-1.0616,-1.0383,-0.994,-0.9328,-0.8214,-0.6867,-0.5928,-0.5366,-0.4743,-0.4576,-0.5183,-0.6583,-0.8051,-0.8438,-0.7622,-0.6912,-0.5878,-0.468,-0.4463,-0.4463,-0.447,-0.4532,-0.4591,-0.4833,-0.4769,-0.4813,-0.504,-0.5121,-0.5203,-0.5335,-0.5411,-0.5428,-0.5428,-0.5428,-0.5428,-0.5428,-0.5428,-0.5428,-0.5428,-0.5428,-0.5497,-0.5583,-0.5749,-0.5945,-0.6203,-0.6254,-0.6261,-0.6261,-0.6261,-0.6261,-0.6261,-0.6264,-0.6271,-0.596,-0.4384,-0.0,-0.0,-0.0,-0.0,-0.0,-0.0,-0.0,-0.0,-0.0,-0.0,-0.0,-0.0,-0.0,-0.0,-0.0,-0.0,-0.0,-0.0,-0.0,-0.0,-0.0,-0.0,-1.4088,-1.4088,-1.4088,-1.4088,-1.4088,-1.4088,-1.4108,-1.4022,-1.3547,-1.2936,-1.2433,-1.2536,-1.2485,-1.2305,-1.2305,-1.2305,-1.2305,-1.2305,-1.2305,-1.2305,-1.2305,-1.2305,-1.2305,-1.2305,-1.219,-1.2002,-1.178,-1.141,-1.0862,-1.0655,-1.0618,-1.0618,-1.0618,-1.0618,-1.0618,-1.0618,-1.0618,-1.0611,-1.0586,-1.0451,-1.0134,-0.9907,-0.9363,-0.862,-0.7499,-0.6166,-0.4551,-0.4494,-0.5554,-0.7937,-0.8511,-0.8271,-0.7031,-0.5878,-0.5062,-0.4574,-0.4463,-0.4504,-0.4532,-0.4666,-0.4793,-0.4882,-0.4925,-0.5003,-0.5121,-0.5216,-0.5301,-0.5348,-0.5428,-0.5428,-0.5428,-0.5428,-0.5428,-0.5428,-0.5428,-0.5428,-0.5428,-0.5432,-0.545,-0.5694,-0.5932,-0.6149,-0.6213,-0.6261,-0.6261,-0.6261,-0.6261,-0.6261,-0.6261,-0.6261,-0.6264,-0.6197,-0.5565,-0.391,-0.0,-0.0,-0.0,-0.0,-0.0,-0.0,-0.0,-0.0,-0.0,-0.0,-0.0,-0.0,-0.0,-0.0,-0.0,-0.0,-0.0,-0.0,-0.0,-0.0,-0.0,-1.4088,-1.4088,-1.4088,-1.4088,-1.4088,-1.4088,-1.4072,-1.4062,-1.3776,-1.3187,-1.268,-1.2709,-1.2585,-1.2338,-1.2305,-1.2305,-1.2305,-1.2305,-1.2305,-1.2305,-1.2305,-1.2305,-1.2305,-1.2305,-1.231,-1.2209,-1.1918,-1.1463,-1.1029,-1.0795,-1.0725,-1.0631,-1.0618,-1.0618,-1.0618,-1.0618,-1.0618,-1.0618,-1.0618,-1.0517,-1.0267,-1.016,-1.0033,-0.9728,-0.8883,-0.762,-0.5914,-0.5445,-0.6263,-0.8337,-0.8378,-0.7526,-0.6258,-0.5117,-0.4463,-0.4463,-0.4463,-0.4472,-0.4545,-0.4872,-0.5081,-0.5092,-0.507,-0.5078,-0.5203,-0.5301,-0.5418,-0.5428,-0.5428,-0.5428,-0.5428,-0.5428,-0.5428,-0.5428,-0.5428,-0.5428,-0.5432,-0.5406,-0.5576,-0.5837,-0.6088,-0.6234,-0.6261,-0.6261,-0.6261,-0.6261,-0.6261,-0.6261,-0.6261,-0.6261,-0.6261,-0.6271,-0.6274,-0.509,-0.2971,-0.0,-0.0,-0.0,-0.0,-0.0,-0.0,-0.0,-0.0,-0.0,-0.0,-0.0,-0.0,-0.0,-0.0,-0.0,-0.0,-0.0,-0.0,-0.0,-0.0,-1.4088,-1.4088,-1.4088,-1.4088,-1.4088,-1.4088,-1.4088,-1.4015,-1.3788,-1.3507,-1.32,-1.3003,-1.2672,-1.2378,-1.2358,-1.2325,-1.2305,-1.2305,-1.2305,-1.2305,-1.2305,-1.2305,-1.2305,-1.2305,-1.2337,-1.2237,-1.1749,-1.1309,-1.1042,-1.0969,-1.0822,-1.0601,-1.0618,-1.0618,-1.0618,-1.0618,-1.0618,-1.0618,-1.0618,-1.0611,-1.0521,-1.0294,-1.0147,-1.0094,-0.9774,-0.9279,-0.8695,-0.7365,-0.7252,-0.8255,-0.7456,-0.6328,-0.5673,-0.4904,-0.4522,-0.4536,-0.4473,-0.4488,-0.4568,-0.5031,-0.5363,-0.5335,-0.5209,-0.5209,-0.5311,-0.5415,-0.5428,-0.5428,-0.5428,-0.5428,-0.5428,-0.5428,-0.5428,-0.5428,-0.5442,-0.5456,-0.5473,-0.5511,-0.5701,-0.5966,-0.6162,-0.6251,-0.6261,-0.6261,-0.6261,-0.6261,-0.6261,-0.6261,-0.6261,-0.6261,-0.6261,-0.6264,-0.6268,-0.564,-0.5087,-0.0,-0.0,-0.0,-0.0,-0.0,-0.0,-0.0,-0.0,-0.0,-0.0,-0.0,-0.0,-0.0,-0.0,-0.0,-0.0,-0.0,-0.0,-0.0,-0.0,-1.4088,-1.4088,-1.4088,-1.4088,-1.4088,-1.4088,-1.4088,-1.4082,-1.3981,-1.3877,-1.3804,-1.3501,-1.3086,-1.2692,-1.2605,-1.2492,-1.2318,-1.2305,-1.2305,-1.2305,-1.2305,-1.2305,-1.2305,-1.2305,-1.2265,-1.2217,-1.1948,-1.1583,-1.1309,-1.1096,-1.0842,-1.0672,-1.0624,-1.0618,-1.0618,-1.0618,-1.0618,-1.0618,-1.0618,-1.0618,-1.0618,-1.0474,-1.0421,-1.0414,-1.0334,-1.0228,-1.0018,-0.8795,-0.785,-0.7384,-0.7081,-0.6536,-0.5767,-0.4957,-0.457,-0.4606,-0.4559,-0.4494,-0.4577,-0.5058,-0.5391,-0.5377,-0.5353,-0.5308,-0.5418,-0.5428,-0.5428,-0.5428,-0.5428,-0.5428,-0.5428,-0.5428,-0.5432,-0.5428,-0.5592,-0.5655,-0.5696,-0.5806,-0.5911,-0.602,-0.6169,-0.6251,-0.6261,-0.6261,-0.6261,-0.6261,-0.6261,-0.6261,-0.6261,-0.6261,-0.6261,-0.6261,-0.6264,-0.6268,-0.5796,-0.5482,-0.4462,-0.2427,-0.0,-0.0,-0.0,-0.0,-0.0,-0.0,-0.0,-0.0,-0.0,-0.0,-0.0,-0.0,-0.0,-0.0,-0.0,-0.0,-0.0,-1.4088,-1.4088,-1.4088,-1.4088,-1.4088,-1.4088,-1.4088,-1.4088,-1.4088,-1.4115,-1.4056,-1.3736,-1.3313,-1.2839,-1.2822,-1.2579,-1.2325,-1.2305,-1.2305,-1.2305,-1.2305,-1.2305,-1.2305,-1.2305,-1.2305,-1.2278,-1.2118,-1.1877,-1.1583,-1.1296,-1.1002,-1.0762,-1.0615,-1.0618,-1.0618,-1.0618,-1.0618,-1.0618,-1.0618,-1.0618,-1.0618,-1.0618,-1.0618,-1.0618,-1.0618,-1.06,-1.054,-0.9879,-0.8649,-0.7131,-0.6729,-0.6203,-0.5415,-0.4829,-0.4587,-0.4653,-0.4649,-0.4631,-0.4697,-0.5118,-0.5396,-0.5391,-0.5428,-0.5425,-0.5428,-0.5428,-0.5428,-0.5428,-0.5428,-0.5428,-0.5428,-0.5428,-0.5382,-0.5376,-0.5597,-0.578,-0.5884,-0.5911,-0.6047,-0.6115,-0.6207,-0.6247,-0.6261,-0.6261,-0.6261,-0.6261,-0.6261,-0.6261,-0.6261,-0.6261,-0.6261,-0.6261,-0.6261,-0.6264,-0.6268,-0.6193,-0.6197,-0.4304,-0.0,-0.0,-0.0,-0.0,-0.0,-0.0,-0.0,-0.0,-0.0,-0.0,-0.0,-0.0,-0.0,-0.0,-0.0,-0.0,-0.0,-1.4088,-1.4088,-1.4088,-1.4088,-1.4088,-1.4088,-1.4088,-1.4088,-1.4088,-1.4025,-1.3967,-1.3743,-1.3313,-1.2923,-1.2822,-1.2579,-1.2338,-1.2305,-1.2305,-1.2305,-1.2305,-1.2305,-1.2305,-1.2305,-1.2305,-1.2305,-1.2278,-1.2118,-1.181,-1.1523,-1.1283,-1.0955,-1.0688,-1.0618,-1.0618,-1.0618,-1.0618,-1.0618,-1.0618,-1.0618,-1.0618,-1.0618,-1.0618,-1.0618,-1.0618,-1.0611,-1.0544,-1.0192,-0.9101,-0.7185,-0.6155,-0.5482,-0.4872,-0.4575,-0.4589,-0.4741,-0.4848,-0.4887,-0.4951,-0.5236,-0.542,-0.5408,-0.5428,-0.5428,-0.5428,-0.5428,-0.5428,-0.5428,-0.5428,-0.5428,-0.5428,-0.5428,-0.543,-0.55,-0.5717,-0.5915,-0.5993,-0.6047,-0.6112,-0.6213,-0.6257,-0.6261,-0.6261,-0.6261,-0.6261,-0.6261,-0.6261,-0.6261,-0.6261,-0.6261,-0.6261,-0.6261,-0.6261,-0.6261,-0.6264,-0.6264,-0.6268,-0.564,-0.3677,-0.0,-0.0,-0.0,-0.0,-0.0,-0.0,-0.0,-0.0,-0.0,-0.0,-0.0,-0.0,-0.0,-0.0,-0.0,-0.0,-1.4088,-1.4088,-1.4088,-1.4088,-1.4088,-1.4088,-1.4088,-1.4088,-1.4082,-1.3805,-1.3592,-1.3559,-1.33,-1.2862,-1.2822,-1.2585,-1.2365,-1.2305,-1.2305,-1.2305,-1.2305,-1.2305,-1.2305,-1.2305,-1.2305,-1.2305,-1.2298,-1.2151,-1.187,-1.157,-1.1283,-1.0989,-1.0708,-1.0618,-1.0618,-1.0618,-1.0618,-1.0618,-1.0618,-1.0618,-1.0618,-1.0618,-1.0618,-1.0618,-1.0618,-1.0561,-1.0428,-0.933,-0.786,-0.6043,-0.5446,-0.509,-0.4972,-0.4863,-0.4836,-0.4962,-0.4944,-0.5021,-0.5243,-0.536,-0.5387,-0.5418,-0.5428,-0.5428,-0.5428,-0.5428,-0.5428,-0.5428,-0.5428,-0.5428,-0.5428,-0.5372,-0.5555,-0.5997,-0.605,-0.6127,-0.6215,-0.62,-0.622,-0.6254,-0.6257,-0.6261,-0.6261,-0.6261,-0.6261,-0.6261,-0.6261,-0.6261,-0.6261,-0.6261,-0.6261,-0.6261,-0.6261,-0.6261,-0.6261,-0.6261,-0.6261,-0.6268,-0.501,-0.0,-0.0,-0.0,-0.0,-0.0,-0.0,-0.0,-0.0,-0.0,-0.0,-0.0,-0.0,-0.0,-0.0,-0.0,-0.0,-1.4088,-1.4088,-1.4088,-1.4088,-1.4088,-1.4088,-1.4112,-1.4102,-1.3901,-1.3645,-1.3325,-1.3366,-1.3193,-1.2849,-1.2822,-1.2579,-1.2331,-1.2305,-1.2305,-1.2305,-1.2305,-1.2305,-1.2305,-1.2305,-1.2305,-1.2305,-1.2305,-1.2138,-1.187,-1.157,-1.1283,-1.0995,-1.0701,-1.0624,-1.0618,-1.0618,-1.0618,-1.0618,-1.0618,-1.0618,-1.0618,-1.0618,-1.0618,-1.0618,-1.0561,-1.0575,-1.041,-0.9655,-0.803,-0.597,-0.5119,-0.5047,-0.5104,-0.4996,-0.4989,-0.5055,-0.5001,-0.5061,-0.5325,-0.5428,-0.5428,-0.5428,-0.5428,-0.5428,-0.5428,-0.5428,-0.5428,-0.5428,-0.5428,-0.5428,-0.5386,-0.5396,-0.5689,-0.6151,-0.63,-0.6311,-0.6254,-0.6254,-0.6257,-0.6261,-0.6261,-0.6261,-0.6261,-0.6261,-0.6261,-0.6261,-0.6261,-0.6261,-0.6261,-0.6261,-0.6261,-0.6261,-0.6261,-0.6261,-0.6261,-0.6261,-0.6261,-0.6264,-0.5479,-0.4151,-0.0,-0.0,-0.0,-0.0,-0.0,-0.0,-0.0,-0.0,-0.0,-0.0,-0.0,-0.0,-0.0,-0.0,-0.0,-1.4088,-1.4088,-1.4088,-1.4088,-1.4082,-1.4048,-1.4074,-1.4056,-1.3716,-1.3346,-1.3114,-1.316,-1.2966,-1.2782,-1.2639,-1.2538,-1.2305,-1.2305,-1.2305,-1.2305,-1.2305,-1.2305,-1.2305,-1.2305,-1.2305,-1.2305,-1.2305,-1.2171,-1.1924,-1.1617,-1.1309,-1.1042,-1.0748,-1.0575,-1.0618,-1.0618,-1.0618,-1.0618,-1.0618,-1.0618,-1.0618,-1.0618,-1.0618,-1.0561,-1.0588,-1.0615,-1.0405,-0.9839,-0.8306,-0.5506,-0.525,-0.5165,-0.5148,-0.503,-0.5043,-0.5138,-0.5054,-0.5104,-0.5332,-0.5428,-0.5428,-0.5428,-0.5428,-0.5428,-0.5428,-0.5428,-0.5428,-0.5428,-0.5428,-0.5428,-0.5396,-0.5395,-0.5681,-0.6143,-0.63,-0.6311,-0.6261,-0.6261,-0.6261,-0.6261,-0.6261,-0.6261,-0.6261,-0.6261,-0.6261,-0.6261,-0.6261,-0.6261,-0.6261,-0.6261,-0.6261,-0.6261,-0.6261,-0.6261,-0.6261,-0.6261,-0.6261,-0.6187,-0.5321,-0.4068,-0.2192,-0.0,-0.0,-0.0,-0.0,-0.0,-0.0,-0.0,-0.0,-0.0,-0.0,-0.0,-0.0,-0.0,-0.0,-1.4088,-1.4088,-1.4088,-1.4088,-1.4048,-1.3841,-1.3803,-1.4076,-1.3487,-1.3034,-1.2634,-1.2749,-1.2679,-1.2412,-1.2425,-1.2351,-1.2305,-1.2305,-1.2305,-1.2305,-1.2305,-1.2305,-1.2305,-1.2305,-1.2305,-1.2305,-1.2305,-1.2251,-1.2071,-1.1657,-1.139,-1.1243,-1.0788,-1.0618,-1.0618,-1.0618,-1.0618,-1.0618,-1.0618,-1.0618,-1.0618,-1.0618,-1.0618,-1.0568,-1.0558,-1.0604,-0.9995,-0.7972,-0.6225,-0.5552,-0.5363,-0.5294,-0.5284,-0.5264,-0.526,-0.5277,-0.5298,-0.5321,-0.5352,-0.5428,-0.5428,-0.5428,-0.5428,-0.5428,-0.5428,-0.5428,-0.5428,-0.5428,-0.5428,-0.5428,-0.5386,-0.5411,-0.5698,-0.6158,-0.63,-0.6261,-0.6261,-0.6261,-0.6261,-0.6261,-0.6261,-0.6261,-0.6261,-0.6261,-0.6261,-0.6261,-0.6261,-0.6261,-0.6261,-0.6261,-0.6261,-0.6261,-0.6261,-0.6261,-0.6261,-0.6261,-0.6264,-0.6264,-0.5479,-0.4851,-0.2973,-0.0,-0.0,-0.0,-0.0,-0.0,-0.0,-0.0,-0.0,-0.0,-0.3448,-0.2944,-0.2451,-0.2433,-0.0,-1.4088,-1.4068,-1.3941,-1.3881,-1.3828,-1.3567,-1.354,-1.3577,-1.3243,-1.2729,-1.2408,-1.2532,-1.2445,-1.2305,-1.2305,-1.2311,-1.2305,-1.2305,-1.2305,-1.2305,-1.2305,-1.2305,-1.2305,-1.2305,-1.2305,-1.2305,-1.2305,-1.2184,-1.1864,-1.159,-1.1269,-1.1029,-1.0701,-1.0638,-1.0618,-1.0618,-1.0618,-1.0618,-1.0618,-1.0618,-1.0618,-1.0618,-1.0618,-1.0575,-1.0507,-1.0348,-0.918,-0.6889,-0.5636,-0.5391,-0.5415,-0.5428,-0.5428,-0.5428,-0.5428,-0.5428,-0.5428,-0.5428,-0.5428,-0.5428,-0.5428,-0.5428,-0.5428,-0.5428,-0.5428,-0.5428,-0.5428,-0.5428,-0.5428,-0.5428,-0.5379,-0.5411,-0.5701,-0.6154,-0.6307,-0.6325,-0.6257,-0.6261,-0.6261,-0.6261,-0.6261,-0.6261,-0.6261,-0.6261,-0.6261,-0.6261,-0.6261,-0.6261,-0.6261,-0.6261,-0.6261,-0.6261,-0.6261,-0.6261,-0.6261,-0.6261,-0.6264,-0.6268,-0.6109,-0.564,-0.4776,-0.36,-0.0,-0.0,-0.0,-0.0,-0.3054,-0.5193,-0.6315,-0.559,-0.4935,-0.4663,-0.4563,-0.4397,-0.4318,-1.4062,-1.4001,-1.3748,-1.3621,-1.3453,-1.3267,-1.3182,-1.3209,-1.2864,-1.2545,-1.2345,-1.2305,-1.2331,-1.2305,-1.2305,-1.2305,-1.2305,-1.2305,-1.2305,-1.2305,-1.2305,-1.2305,-1.2305,-1.2305,-1.2305,-1.2305,-1.2305,-1.2031,-1.1677,-1.1416,-1.1202,-1.0799,-1.0645,-1.0624,-1.0618,-1.0618,-1.0618,-1.0618,-1.0618,-1.0618,-1.0618,-1.0618,-1.0618,-1.0575,-1.0533,-0.9802,-0.8306,-0.6502,-0.5387,-0.5425,-0.5428,-0.5428,-0.5428,-0.5428,-0.5428,-0.5428,-0.5428,-0.5428,-0.5428,-0.5428,-0.5428,-0.5428,-0.5428,-0.5428,-0.5428,-0.5428,-0.5428,-0.5428,-0.5428,-0.5428,-0.5379,-0.5372,-0.5674,-0.614,-0.6293,-0.629,-0.6254,-0.6261,-0.6261,-0.6261,-0.6261,-0.6261,-0.6261,-0.6261,-0.6261,-0.6261,-0.6261,-0.6261,-0.6261,-0.6261,-0.6261,-0.6261,-0.6261,-0.6261,-0.6261,-0.6261,-0.6261,-0.6264,-0.6268,-0.619,-0.6035,-0.5246,-0.3988,-0.2734,-0.0,-0.3517,-0.4384,-0.5578,-0.6298,-0.6295,-0.6122,-0.5619,-0.5777,-0.619,-0.5918,-1.3935,-1.3714,-1.3661,-1.3507,-1.3253,-1.2953,-1.2959,-1.3051,-1.2648,-1.2358,-1.2311,-1.2305,-1.2305,-1.2305,-1.2305,-1.2305,-1.2305,-1.2305,-1.2305,-1.2305,-1.2305,-1.2305,-1.2305,-1.2305,-1.2305,-1.2305,-1.2291,-1.2098,-1.1757,-1.1543,-1.1209,-1.0915,-1.0732,-1.0624,-1.0618,-1.0618,-1.0618,-1.0618,-1.0618,-1.0618,-1.0618,-1.0618,-1.0491,-1.0511,-1.0496,-0.9633,-0.8052,-0.64,-0.5422,-0.5428,-0.5428,-0.5428,-0.5428,-0.5428,-0.5428,-0.5428,-0.5428,-0.5428,-0.5428,-0.5428,-0.5428,-0.5428,-0.5428,-0.5428,-0.5428,-0.5428,-0.5428,-0.5428,-0.5428,-0.5428,-0.5432,-0.5398,-0.5671,-0.6097,-0.6247,-0.627,-0.6287,-0.624,-0.6247,-0.6257,-0.6257,-0.6261,-0.6261,-0.6261,-0.6261,-0.6261,-0.6261,-0.6261,-0.6261,-0.6261,-0.6261,-0.6261,-0.6261,-0.6261,-0.6261,-0.6261,-0.6261,-0.6261,-0.6261,-0.6261,-0.6183,-0.6261,-0.5392,-0.4215,-0.4142,-0.5093,-0.5889,-0.6285,-0.6281,-0.6281,-0.6274,-0.6264,-0.6213,-0.6162,-0.6095,-1.3774,-1.3614,-1.3313,-1.3106,-1.2933,-1.2645,-1.26,-1.2668,-1.2446,-1.2305,-1.2305,-1.2305,-1.2305,-1.2305,-1.2305,-1.2305,-1.2305,-1.2305,-1.2305,-1.2305,-1.2305,-1.2305,-1.2305,-1.2305,-1.2305,-1.2305,-1.2285,-1.2058,-1.1663,-1.1503,-1.1189,-1.0822,-1.0678,-1.0624,-1.0618,-1.0618,-1.0618,-1.0618,-1.0618,-1.0618,-1.0618,-1.0555,-1.0428,-1.0149,-1.0238,-0.9657,-0.8083,-0.6346,-0.5425,-0.5428,-0.5428,-0.5428,-0.5428,-0.5428,-0.5428,-0.5428,-0.5428,-0.5428,-0.5428,-0.5428,-0.5428,-0.5428,-0.5428,-0.5428,-0.5428,-0.5428,-0.5428,-0.5428,-0.5428,-0.5428,-0.5432,-0.543,-0.554,-0.5765,-0.5971,-0.605,-0.6167,-0.6132,-0.6179,-0.6227,-0.6325,-0.6251,-0.6261,-0.6261,-0.6261,-0.6261,-0.6261,-0.6261,-0.6261,-0.6261,-0.6261,-0.6261,-0.6261,-0.6261,-0.6261,-0.6261,-0.6261,-0.6261,-0.6261,-0.6261,-0.6261,-0.6261,-0.6261,-0.5789,-0.6193,-0.6281,-0.6274,-0.6268,-0.6268,-0.6254,-0.6196,-0.6149,-0.6101,-0.6044,-0.5892,-1.3574,-1.342,-1.2946,-1.2788,-1.2694,-1.2405,-1.2311,-1.2305,-1.2311,-1.2305,-1.2305,-1.2305,-1.2305,-1.2305,-1.2305,-1.2305,-1.2305,-1.2305,-1.2305,-1.2305,-1.2305,-1.2305,-1.2305,-1.2305,-1.2305,-1.2305,-1.2298,-1.1997,-1.1563,-1.1436,-1.1096,-1.0735,-1.0631,-1.0618,-1.0618,-1.0618,-1.0618,-1.0618,-1.0618,-1.0618,-1.0618,-1.0555,-1.0174,-0.9332,-0.9756,-0.9173,-0.7962,-0.6358,-0.5495,-0.5428,-0.5428,-0.5428,-0.5428,-0.5428,-0.5428,-0.5428,-0.5428,-0.5428,-0.5428,-0.5428,-0.5428,-0.5428,-0.5428,-0.5428,-0.5428,-0.5428,-0.5428,-0.5428,-0.5428,-0.5428,-0.5376,-0.5396,-0.5408,-0.5471,-0.5627,-0.581,-0.5928,-0.6006,-0.6064,-0.6201,-0.627,-0.6311,-0.6314,-0.6261,-0.6261,-0.6261,-0.6261,-0.6261,-0.6261,-0.6261,-0.6261,-0.6261,-0.6261,-0.6261,-0.6261,-0.6261,-0.6261,-0.6261,-0.6261,-0.6261,-0.6261,-0.6261,-0.6261,-0.6264,-0.6264,-0.6268,-0.6261,-0.6261,-0.6261,-0.6224,-0.6112,-0.6054,-0.6047,-0.5925,-0.5793,-1.3333,-1.2929,-1.2856,-1.2599,-1.2378,-1.2325,-1.2305,-1.2305,-1.2305,-1.2305,-1.2305,-1.2305,-1.2305,-1.2305,-1.2305,-1.2305,-1.2305,-1.2305,-1.2305,-1.2305,-1.2305,-1.2305,-1.2305,-1.2305,-1.2305,-1.2305,-1.2305,-1.1964,-1.1583,-1.1456,-1.1142,-1.0701,-1.0638,-1.0618,-1.0618,-1.0618,-1.0618,-1.0618,-1.0618,-1.0618,-1.0555,-1.0555,-1.0047,-0.9198,-0.8355,-0.7782,-0.7555,-0.6226,-0.5428,-0.5428,-0.5428,-0.5428,-0.5428,-0.5428,-0.5428,-0.5428,-0.5428,-0.5428,-0.5428,-0.5428,-0.5428,-0.5428,-0.5428,-0.5428,-0.5428,-0.5428,-0.5428,-0.5428,-0.5428,-0.5428,-0.5428,-0.5382,-0.5389,-0.5385,-0.5448,-0.5614,-0.5721,-0.584,-0.5978,-0.6091,-0.616,-0.6242,-0.6283,-0.6314,-0.6261,-0.6261,-0.6261,-0.6261,-0.6261,-0.6261,-0.6261,-0.6261,-0.6261,-0.6261,-0.6261,-0.6261,-0.6261,-0.6261,-0.6261,-0.6261,-0.6261,-0.6261,-0.6261,-0.6261,-0.6261,-0.6261,-0.6261,-0.6261,-0.6261,-0.6183,-0.6061,-0.603,-0.603,-0.5857,-0.563,-1.2986,-1.2808,-1.2565,-1.2418,-1.2311,-1.2305,-1.2305,-1.2305,-1.2305,-1.2305,-1.2305,-1.2305,-1.2305,-1.2305,-1.2305,-1.2305,-1.2305,-1.2305,-1.2305,-1.2305,-1.2305,-1.2305,-1.2305,-1.2305,-1.2305,-1.2305,-1.2271,-1.2111,-1.1744,-1.147,-1.1189,-1.0848,-1.0705,-1.0618,-1.0618,-1.0618,-1.0618,-1.0618,-1.0618,-1.0618,-1.0498,-1.0104,-0.9454,-0.8613,-0.7627,-0.7055,-0.6416,-0.5962,-0.5428,-0.5428,-0.5428,-0.5428,-0.5428,-0.5428,-0.5428,-0.5428,-0.5428,-0.5428,-0.5428,-0.5428,-0.5428,-0.5428,-0.5428,-0.5428,-0.5428,-0.5428,-0.5428,-0.5428,-0.5428,-0.5428,-0.5428,-0.5428,-0.5393,-0.5373,-0.5413,-0.5418,-0.5567,-0.5671,-0.581,-0.593,-0.6053,-0.6153,-0.6249,-0.6307,-0.6254,-0.6261,-0.6261,-0.6261,-0.6261,-0.6261,-0.6261,-0.6261,-0.6261,-0.6261,-0.6261,-0.6261,-0.6261,-0.6261,-0.6261,-0.6261,-0.6261,-0.6261,-0.6261,-0.6261,-0.6261,-0.6261,-0.6261,-0.6251,-0.6244,-0.6132,-0.6003,-0.5942,-0.5867,-0.5664,-0.5481,-1.2782,-1.2612,-1.2392,-1.2305,-1.2305,-1.2305,-1.2305,-1.2305,-1.2305,-1.2305,-1.2305,-1.2305,-1.2305,-1.2305,-1.2305,-1.2305,-1.2305,-1.2305,-1.2305,-1.2305,-1.2305,-1.2305,-1.2305,-1.2305,-1.2305,-1.2305,-1.2305,-1.2178,-1.1944,-1.1617,-1.1276,-1.0989,-1.0681,-1.0575,-1.0618,-1.0618,-1.0618,-1.0618,-1.0618,-1.0618,-1.0428,-0.9792,-0.8941,-0.8096,-0.7316,-0.6474,-0.5624,-0.5428,-0.5428,-0.5428,-0.5428,-0.5428,-0.5428,-0.5428,-0.5428,-0.5428,-0.5428,-0.5428,-0.5428,-0.5428,-0.5428,-0.5428,-0.5428,-0.5428,-0.5428,-0.5428,-0.5428,-0.5428,-0.5428,-0.5428,-0.5428,-0.5428,-0.5372,-0.5376,-0.5382,-0.5379,-0.5436,-0.5538,-0.5706,-0.5803,-0.5998,-0.6098,-0.6194,-0.6287,-0.6247,-0.6257,-0.6261,-0.6261,-0.6261,-0.6261,-0.6261,-0.6261,-0.6261,-0.6261,-0.6261,-0.6261,-0.6261,-0.6261,-0.6261,-0.6261,-0.6261,-0.6261,-0.6261,-0.6261,-0.6261,-0.6261,-0.6261,-0.6244,-0.6213,-0.6088,-0.5952,-0.5786,-0.5647,-0.5464,-0.5379,-1.2667,-1.2331,-1.2311,-1.2305,-1.2305,-1.2305,-1.2305,-1.2305,-1.2305,-1.2305,-1.2305,-1.2305,-1.2305,-1.2305,-1.2305,-1.2305,-1.2305,-1.2305,-1.2305,-1.2305,-1.2305,-1.2305,-1.2305,-1.2305,-1.2305,-1.2305,-1.2305,-1.2285,-1.2118,-1.163,-1.1303,-1.0995,-1.0701,-1.0658,-1.0618,-1.0618,-1.0618,-1.0618,-1.0618,-1.0618,-1.0301,-0.9652,-0.8812,-0.7957,-0.7177,-0.6334,-0.5491,-0.5428,-0.5428,-0.5428,-0.5428,-0.5428,-0.5428,-0.5428,-0.5428,-0.5428,-0.5428,-0.5428,-0.5428,-0.5428,-0.5428,-0.5428,-0.5428,-0.5428,-0.5428,-0.5428,-0.5428,-0.5428,-0.5428,-0.5428,-0.5428,-0.5428,-0.5428,-0.5428,-0.5428,-0.5382,-0.5416,-0.541,-0.5593,-0.5728,-0.5861,-0.6022,-0.6149,-0.6246,-0.6244,-0.6257,-0.6261,-0.6261,-0.6261,-0.6261,-0.6261,-0.6261,-0.6261,-0.6261,-0.6261,-0.6261,-0.6261,-0.6261,-0.6261,-0.6261,-0.6261,-0.6261,-0.6261,-0.6261,-0.6261,-0.6261,-0.6257,-0.6251,-0.6196,-0.6054,-0.5905,-0.5745,-0.5593,-0.5443,-0.5386,-1.2412,-1.2305,-1.2305,-1.2305,-1.2305,-1.2305,-1.2305,-1.2305,-1.2305,-1.2305,-1.2305,-1.2305,-1.2305,-1.2305,-1.2305,-1.2305,-1.2305,-1.2305,-1.2305,-1.2305,-1.2305,-1.2305,-1.2305,-1.2305,-1.2305,-1.2305,-1.2291,-1.2178,-1.1971,-1.159,-1.1296,-1.0989,-1.0766,-1.0658,-1.0618,-1.0618,-1.0618,-1.0618,-1.0618,-1.0618,-1.0301,-0.9198,-0.8355,-0.7957,-0.6465,-0.5885,-0.5428,-0.5428,-0.5428,-0.5428,-0.5428,-0.5428,-0.5428,-0.5428,-0.5428,-0.5428,-0.5428,-0.5428,-0.5428,-0.5428,-0.5428,-0.5428,-0.5428,-0.5428,-0.5428,-0.5428,-0.5428,-0.5428,-0.5428,-0.5428,-0.5428,-0.5428,-0.5428,-0.5428,-0.5428,-0.5428,-0.5428,-0.5428,-0.5507,-0.5657,-0.5766,-0.585,-0.5993,-0.6132,-0.6203,-0.6261,-0.6261,-0.6261,-0.6261,-0.6261,-0.6261,-0.6261,-0.6261,-0.6261,-0.6261,-0.6261,-0.6261,-0.6261,-0.6261,-0.6261,-0.6261,-0.6261,-0.6261,-0.6261,-0.6261,-0.6261,-0.6261,-0.6261,-0.6159,-0.5976,-0.584,-0.5715,-0.5566,-0.5416,-0.5389,-1.2305,-1.2305,-1.2305,-1.2305,-1.2305,-1.2305,-1.2305,-1.2305,-1.2305,-1.2305,-1.2305,-1.2305,-1.2305,-1.2305,-1.2305,-1.2305,-1.2305,-1.2305,-1.2305,-1.2305,-1.2305,-1.2305,-1.2305,-1.2305,-1.2305,-1.2285,-1.2178,-1.2037,-1.1891,-1.1496,-1.1209,-1.0955,-1.0722,-1.0651,-1.0618,-1.0618,-1.0618,-1.0618,-1.0618,-1.0618,-1.0364,-0.9,-0.8027,-0.7767,-0.6338,-0.5557,-0.5428,-0.5428,-0.5428,-0.5428,-0.5428,-0.5428,-0.5428,-0.5428,-0.5428,-0.5428,-0.5428,-0.5428,-0.5428,-0.5428,-0.5428,-0.5428,-0.5428,-0.5428,-0.5428,-0.5428,-0.5428,-0.5428,-0.5428,-0.5428,-0.5428,-0.5428,-0.5428,-0.5428,-0.5428,-0.5428,-0.5428,-0.5432,-0.5525,-0.5586,-0.5694,-0.5844,-0.6037,-0.6186,-0.621,-0.6261,-0.6261,-0.6261,-0.6261,-0.6261,-0.6261,-0.6261,-0.6261,-0.6261,-0.6261,-0.6261,-0.6261,-0.6261,-0.6261,-0.6261,-0.6261,-0.6261,-0.6261,-0.6261,-0.6261,-0.6261,-0.6257,-0.6254,-0.6084,-0.5867,-0.5725,-0.5576,-0.5511,-0.5446,-0.5382,-1.2305,-1.2305,-1.2305,-1.2305,-1.2305,-1.2305,-1.2305,-1.2305,-1.2305,-1.2305,-1.2305,-1.2305,-1.2305,-1.2305,-1.2305,-1.2305,-1.2305,-1.2305,-1.2305,-1.2305,-1.2305,-1.2305,-1.2305,-1.2305,-1.2265,-1.2225,-1.2078,-1.1917,-1.1777,-1.1323,-1.1056,-1.0902,-1.0688,-1.0618,-1.0618,-1.0618,-1.0618,-1.0618,-1.0618,-1.0618,-1.0231,-0.8994,-0.835,-0.7637,-0.6326,-0.5415,-0.5428,-0.5428,-0.5428,-0.5428,-0.5428,-0.5428,-0.5428,-0.5428,-0.5428,-0.5428,-0.5428,-0.5428,-0.5428,-0.5428,-0.5428,-0.5428,-0.5428,-0.5428,-0.5428,-0.5428,-0.5428,-0.5428,-0.5428,-0.5428,-0.5428,-0.5428,-0.5428,-0.5428,-0.5428,-0.5428,-0.5428,-0.5432,-0.5514,-0.5566,-0.5728,-0.5895,-0.6105,-0.6251,-0.6247,-0.6261,-0.6261,-0.6261,-0.6261,-0.6261,-0.6261,-0.6261,-0.6261,-0.6261,-0.6261,-0.6261,-0.6261,-0.6261,-0.6261,-0.6261,-0.6261,-0.6261,-0.6261,-0.6261,-0.6261,-0.6261,-0.6254,-0.6251,-0.601,-0.5769,-0.5552,-0.548,-0.5435,-0.5428,-0.5369,-1.2305,-1.2305,-1.2305,-1.2305,-1.2305,-1.2305,-1.2305,-1.2305,-1.2305,-1.2305,-1.2305,-1.2305,-1.2305,-1.2305,-1.2305,-1.2305,-1.2305,-1.2305,-1.2305,-1.2305,-1.2305,-1.2305,-1.2305,-1.2285,-1.2118,-1.1867,-1.1708,-1.161,-1.1256,-1.1029,-1.0868,-1.0708,-1.0641,-1.0568,-1.0618,-1.0618,-1.0618,-1.0618,-1.0618,-1.0555,-1.0434,-0.946,-0.8554,-0.7962,-0.6314,-0.547,-0.5425,-0.5428,-0.5428,-0.5428,-0.5428,-0.5428,-0.5428,-0.5428,-0.5428,-0.5428,-0.5428,-0.5428,-0.5428,-0.5428,-0.5428,-0.5428,-0.5428,-0.5428,-0.5428,-0.5428,-0.5428,-0.5428,-0.5428,-0.5428,-0.5428,-0.5428,-0.5428,-0.5428,-0.5428,-0.5428,-0.5428,-0.5432,-0.5483,-0.5569,-0.5728,-0.5949,-0.6162,-0.6247,-0.6261,-0.6261,-0.6261,-0.6261,-0.6261,-0.6261,-0.6261,-0.6261,-0.6261,-0.6261,-0.6261,-0.6261,-0.6261,-0.6261,-0.6261,-0.6261,-0.6261,-0.6261,-0.6261,-0.6261,-0.6261,-0.6257,-0.6203,-0.6115,-0.5898,-0.5671,-0.5484,-0.5439,-0.5428,-0.5428,-0.5432,-1.2305,-1.2305,-1.2305,-1.2305,-1.2305,-1.2305,-1.2305,-1.2305,-1.2305,-1.2305,-1.2305,-1.2305,-1.2305,-1.2305,-1.2305,-1.2305,-1.2305,-1.2305,-1.2305,-1.2305,-1.2305,-1.2305,-1.2305,-1.2285,-1.1972,-1.1598,-1.1543,-1.1463,-1.1056,-1.0902,-1.0748,-1.0685,-1.0618,-1.0618,-1.0618,-1.0618,-1.0618,-1.0618,-1.0618,-1.0555,-1.0364,-0.9658,-0.8812,-0.7887,-0.6767,-0.5789,-0.5484,-0.5428,-0.5428,-0.5428,-0.5428,-0.5428,-0.5428,-0.5428,-0.5428,-0.5428,-0.5428,-0.5428,-0.5428,-0.5428,-0.5428,-0.5428,-0.5428,-0.5428,-0.5428,-0.5428,-0.5428,-0.5428,-0.5428,-0.5428,-0.5428,-0.5428,-0.5428,-0.5428,-0.5428,-0.5428,-0.5428,-0.5432,-0.542,-0.5572,-0.5742,-0.5976,-0.6176,-0.622,-0.6261,-0.6261,-0.6261,-0.6261,-0.6261,-0.6261,-0.6261,-0.6261,-0.6261,-0.6261,-0.6261,-0.6261,-0.6261,-0.6261,-0.6261,-0.6261,-0.6261,-0.6261,-0.6261,-0.6261,-0.6261,-0.6227,-0.6108,-0.5895,-0.5772,-0.5616,-0.5477,-0.5466,-0.5435,-0.5432,-0.5435,-1.2305,-1.2305,-1.2305,-1.2305,-1.2305,-1.2305,-1.2305,-1.2305,-1.2305,-1.2305,-1.2305,-1.2305,-1.2305,-1.2305,-1.2305,-1.2305,-1.2305,-1.2305,-1.2305,-1.2305,-1.2305,-1.2305,-1.2305,-1.2291,-1.1913,-1.1585,-1.1424,-1.1329,-1.0975,-1.0755,-1.0672,-1.0631,-1.0618,-1.0618,-1.0618,-1.0618,-1.0618,-1.0618,-1.0618,-1.0618,-1.0428,-0.9913,-0.9005,-0.8016,-0.7037,-0.6195,-0.5683,-0.5428,-0.5428,-0.5428,-0.5428,-0.5428,-0.5428,-0.5428,-0.5428,-0.5428,-0.5428,-0.5428,-0.5428,-0.5428,-0.5428,-0.5428,-0.5428,-0.5428,-0.5428,-0.5428,-0.5428,-0.5428,-0.5428,-0.5428,-0.5428,-0.5428,-0.5428,-0.5428,-0.5428,-0.5428,-0.5428,-0.5393,-0.545,-0.5579,-0.5749,-0.5949,-0.6142,-0.622,-0.6261,-0.6261,-0.6261,-0.6261,-0.6261,-0.6261,-0.6261,-0.6261,-0.6261,-0.6261,-0.6261,-0.6261,-0.6261,-0.6261,-0.6261,-0.6261,-0.6261,-0.6261,-0.6261,-0.6261,-0.6261,-0.6186,-0.5871,-0.5778,-0.5667,-0.5532,-0.5423,-0.5466,-0.5428,-0.5432,-0.5369,-1.2305,-1.2305,-1.2305,-1.2305,-1.2305,-1.2305,-1.2305,-1.2305,-1.2305,-1.2305,-1.2305,-1.2305,-1.2305,-1.2305,-1.2305,-1.2305,-1.2305,-1.2305,-1.2305,-1.2305,-1.2305,-1.2305,-1.2291,-1.2245,-1.1906,-1.16,-1.1328,-1.1162,-1.0775,-1.0618,-1.0618,-1.0624,-1.0618,-1.0618,-1.0618,-1.0618,-1.0618,-1.0618,-1.0618,-1.0618,-1.0618,-1.0238,-0.9326,-0.828,-0.7418,-0.6519,-0.5679,-0.5425,-0.5428,-0.5495,-0.5428,-0.5428,-0.5428,-0.5428,-0.5428,-0.5428,-0.5428,-0.5428,-0.5428,-0.5428,-0.5428,-0.5425,-0.5428,-0.5428,-0.5428,-0.5428,-0.5428,-0.5428,-0.5428,-0.5428,-0.5428,-0.5428,-0.5428,-0.5428,-0.5428,-0.5428,-0.5428,-0.5446,-0.5443,-0.5583,-0.5752,-0.5918,-0.6108,-0.6227,-0.6261,-0.6261,-0.6261,-0.6261,-0.6261,-0.6261,-0.6261,-0.6261,-0.6261,-0.6261,-0.6261,-0.6261,-0.6261,-0.6261,-0.6261,-0.6261,-0.6261,-0.6261,-0.6261,-0.6251,-0.6311,-0.6013,-0.5596,-0.5522,-0.5623,-0.5481,-0.5442,-0.5435,-0.5428,-0.5432,-0.5169,-1.2305,-1.2305,-1.2305,-1.2305,-1.2305,-1.2305,-1.2305,-1.2305,-1.2305,-1.2305,-1.2305,-1.2305,-1.2305,-1.2305,-1.2305,-1.2305,-1.2305,-1.2305,-1.2305,-1.2305,-1.2278,-1.2284,-1.2264,-1.2078,-1.175,-1.1456,-1.1209,-1.1009,-1.0655,-1.0618,-1.0618,-1.0618,-1.0618,-1.0618,-1.0618,-1.0618,-1.0618,-1.0618,-1.0618,-1.0618,-1.0618,-1.0555,-0.9652,-0.8672,-0.7872,-0.6772,-0.5599,-0.5411,-0.5693,-0.6226,-0.6428,-0.6416,-0.621,-0.5935,-0.5738,-0.5738,-0.5533,-0.5463,-0.5394,-0.5397,-0.5411,-0.5425,-0.5428,-0.5428,-0.5428,-0.5428,-0.5428,-0.5428,-0.5428,-0.5428,-0.5428,-0.5428,-0.5428,-0.5428,-0.5428,-0.5428,-0.5428,-0.5428,-0.546,-0.5593,-0.5745,-0.5908,-0.6057,-0.6176,-0.6261,-0.6261,-0.6261,-0.6261,-0.6261,-0.6261,-0.6261,-0.6261,-0.6261,-0.6261,-0.6261,-0.6261,-0.6261,-0.6261,-0.6261,-0.6261,-0.6261,-0.6261,-0.6261,-0.6311,-0.6276,-0.5962,-0.5725,-0.56,-0.562,-0.5481,-0.5439,-0.5428,-0.5428,-0.5432,-0.5033,-1.2305,-1.2305,-1.2305,-1.2305,-1.2305,-1.2305,-1.2305,-1.2305,-1.2305,-1.2305,-1.2305,-1.2305,-1.2305,-1.2305,-1.2305,-1.2258,-1.2225,-1.2198,-1.2138,-1.2231,-1.2276,-1.2326,-1.2118,-1.1706,-1.1296,-1.1256,-1.112,-1.0909,-1.0655,-1.0618,-1.0618,-1.0618,-1.0618,-1.0618,-1.0618,-1.0618,-1.0618,-1.0618,-1.0618,-1.0618,-1.0618,-1.0491,-1.0174,-0.9268,-0.8345,-0.7358,-0.5959,-0.565,-0.6218,-0.7353,-0.8168,-0.8148,-0.7377,-0.6698,-0.6437,-0.6371,-0.6237,-0.6102,-0.5902,-0.5701,-0.5453,-0.5408,-0.5428,-0.5428,-0.5428,-0.5428,-0.5428,-0.5428,-0.5428,-0.5428,-0.5428,-0.5428,-0.5428,-0.5428,-0.5428,-0.5428,-0.5428,-0.5432,-0.548,-0.5552,-0.5708,-0.5864,-0.5976,-0.6095,-0.6257,-0.6261,-0.6261,-0.6261,-0.6261,-0.6261,-0.6261,-0.6261,-0.6261,-0.6261,-0.6261,-0.6261,-0.6261,-0.6261,-0.6261,-0.6261,-0.6261,-0.6261,-0.6261,-0.6314,-0.6283,-0.6129,-0.5971,-0.5854,-0.5654,-0.5498,-0.5476,-0.5439,-0.5428,-0.5432,-0.5166,-1.2305,-1.2305,-1.2305,-1.2305,-1.2305,-1.2305,-1.2298,-1.2305,-1.2305,-1.2278,-1.2305,-1.2298,-1.2291,-1.2271,-1.2265,-1.2184,-1.1997,-1.1957,-1.183,-1.1911,-1.2025,-1.2172,-1.2026,-1.1358,-1.0918,-1.0823,-1.087,-1.0822,-1.0685,-1.0618,-1.0618,-1.0618,-1.0618,-1.0618,-1.0618,-1.0618,-1.0618,-1.0618,-1.0618,-1.0618,-1.0618,-1.0491,-1.0174,-0.953,-0.8807,-0.7792,-0.6526,-0.5661,-0.6546,-0.7697,-0.9314,-0.9162,-0.8032,-0.7558,-0.7493,-0.7562,-0.7423,-0.7219,-0.7154,-0.6551,-0.5902,-0.5519,-0.547,-0.5418,-0.5428,-0.5428,-0.5428,-0.5428,-0.5428,-0.5428,-0.5428,-0.5428,-0.5428,-0.5428,-0.5428,-0.5428,-0.5428,-0.5439,-0.5452,-0.5508,-0.5664,-0.5783,-0.5891,-0.6037,-0.62,-0.6261,-0.6261,-0.6261,-0.6261,-0.6261,-0.6261,-0.6261,-0.6261,-0.6261,-0.6261,-0.6261,-0.6261,-0.6261,-0.6261,-0.6261,-0.6261,-0.6261,-0.6257,-0.6257,-0.6287,-0.6156,-0.6043,-0.593,-0.5789,-0.5614,-0.5487,-0.5439,-0.5428,-0.5428,-0.5233,-1.2032,-1.2124,-1.2258,-1.2225,-1.2124,-1.2111,-1.2202,-1.225,-1.2002,-1.1911,-1.1977,-1.2151,-1.2231,-1.2131,-1.2104,-1.1951,-1.1717,-1.1677,-1.161,-1.1634,-1.1676,-1.1812,-1.1526,-1.1068,-1.0797,-1.0647,-1.073,-1.0688,-1.0638,-1.0618,-1.0618,-1.0618,-1.0618,-1.0618,-1.0618,-1.0618,-1.0618,-1.0618,-1.0618,-1.0618,-1.0618,-1.0491,-1.0428,-0.9913,-0.9256,-0.8441,-0.8125,-0.7247,-0.7663,-0.8748,-1.0065,-0.9796,-0.8947,-0.8549,-0.8549,-0.8409,-0.8334,-0.8339,-0.849,-0.8091,-0.6815,-0.6237,-0.5917,-0.6071,-0.5943,-0.5877,-0.5428,-0.5428,-0.5428,-0.5428,-0.5428,-0.5428,-0.5428,-0.5428,-0.5428,-0.5428,-0.5428,-0.5432,-0.5439,-0.548,-0.5549,-0.5661,-0.5789,-0.5956,-0.6098,-0.6162,-0.6176,-0.6251,-0.6257,-0.6261,-0.6261,-0.6261,-0.6261,-0.6261,-0.6261,-0.6261,-0.6261,-0.6261,-0.6261,-0.6261,-0.6261,-0.6261,-0.6257,-0.6257,-0.6311,-0.6242,-0.6125,-0.5991,-0.5762,-0.5589,-0.5464,-0.5428,-0.5428,-0.5428,-0.5299,-1.1726,-1.185,-1.2071,-1.2044,-1.183,-1.181,-1.192,-1.2033,-1.16,-1.1374,-1.1372,-1.1886,-1.1997,-1.1891,-1.1797,-1.1597,-1.145,-1.139,-1.1349,-1.1263,-1.1249,-1.1322,-1.1141,-1.0843,-1.0632,-1.0604,-1.0615,-1.0665,-1.0624,-1.0618,-1.0618,-1.0618,-1.0618,-1.0618,-1.0618,-1.0618,-1.0618,-1.0618,-1.0618,-1.0618,-1.0618,-1.0618,-1.0555,-1.0301,-0.9989,-0.9957,-0.9835,-0.9643,-0.9432,-0.9823,-1.0474,-1.013,-0.9792,-0.946,-0.946,-0.932,-0.9035,-0.939,-0.9899,-1.0059,-0.8495,-0.7363,-0.7042,-0.6715,-0.6588,-0.6334,-0.5881,-0.5491,-0.5491,-0.5428,-0.5428,-0.5428,-0.5428,-0.5428,-0.5428,-0.5428,-0.5428,-0.5428,-0.5428,-0.5432,-0.546,-0.5576,-0.5698,-0.5867,-0.5969,-0.6034,-0.6112,-0.6193,-0.6251,-0.6257,-0.6261,-0.6261,-0.6261,-0.6261,-0.6261,-0.6261,-0.6261,-0.6261,-0.6261,-0.6261,-0.6261,-0.6261,-0.6261,-0.6257,-0.6304,-0.627,-0.616,-0.6016,-0.5854,-0.5633,-0.5477,-0.5432,-0.5432,-0.5432,-0.5369,-1.151,-1.1516,-1.157,-1.1563,-1.1516,-1.151,-1.1552,-1.1587,-1.1485,-1.1198,-1.1022,-1.1312,-1.1543,-1.1503,-1.151,-1.1349,-1.1116,-1.1076,-1.0895,-1.0813,-1.0842,-1.0813,-1.0766,-1.0722,-1.0628,-1.0575,-1.0618,-1.0618,-1.0618,-1.0618,-1.0618,-1.0618,-1.0618,-1.0618,-1.0618,-1.0618,-1.0618,-1.0618,-1.0618,-1.0618,-1.0618,-1.0618,-1.0618,-1.0491,-1.0434,-1.0441,-1.0441,-1.0308,-1.0308,-1.0504,-1.0575,-1.0434,-1.0301,-1.0168,-1.0174,-1.0104,-0.9818,-1.0028,-1.0474,-1.0584,-0.9151,-0.9116,-0.8646,-0.7437,-0.7372,-0.7377,-0.6732,-0.5885,-0.5756,-0.5491,-0.5425,-0.5428,-0.5428,-0.5428,-0.5428,-0.5428,-0.5428,-0.5428,-0.5428,-0.5399,-0.5467,-0.5535,-0.5589,-0.5742,-0.5874,-0.5945,-0.6186,-0.6273,-0.6294,-0.6314,-0.6254,-0.6261,-0.6261,-0.6261,-0.6261,-0.6261,-0.6261,-0.6261,-0.6261,-0.6261,-0.6261,-0.6261,-0.6261,-0.6261,-0.6257,-0.6311,-0.6184,-0.5945,-0.5899,-0.5674,-0.5484,-0.5369,-0.5435,-0.5299,-0.5236]},{"header":{"parameterUnit":"m.s-1","parameterCategory":1,"la1":31.0,"la2":29.5877,"lo1":-88.7671,"lo2":-86.6584,"dy":0.0162,"dx":0.0185,"nx":115,"ny":88,"refTime":"2024-07-29T06:00:00:Z","depth":0,"parameterNumber":3,"parameterNumberName":"V-component_of_WINDS"},"data":[0.0,0.0,0.0,0.0,0.0,0.0,0.0,0.0,0.0,0.0,0.0,0.0,0.0,0.0,0.0,0.0,0.0,0.0,0.0,0.0,0.0,0.0,0.0,0.0,0.0,0.0,0.0,0.0,0.0,0.0,0.0,0.0,0.0,0.0,0.0,0.0,0.0,0.0,0.0,0.0,0.0,0.0,0.0,0.0,0.0,0.0,0.0,0.0,0.0,0.0,0.0,0.0,0.0,0.0,0.0,0.0,0.0,0.0,0.0,0.0,0.0,0.0,0.0,0.0,0.0,0.0,0.0,0.0,0.0,0.0,0.0,0.0,0.0,0.0,0.0,0.0,0.0,0.0,0.0,0.0,0.0,0.0,0.0,0.0,0.0,0.0,0.0,0.0,0.0,0.0,0.0,0.0,0.0,0.0,0.0,0.0,0.0,0.0,0.0,0.0,0.0,0.0,0.0,0.0,0.0,0.0,0.0,0.0,0.0,0.0,0.0,0.0,0.0,0.0,0.0,0.0,0.0,0.0,0.0,0.0,0.0,0.0,0.0,0.0,0.0,0.0,0.0,0.0,0.0,0.0,0.0,0.0,0.0,0.0,0.0,0.0,0.0,0.0,0.0,0.0,0.0,0.0,0.0,0.0,0.0,0.0,0.0,0.0,0.0,0.0,0.0,0.0,0.0,0.0,0.0,0.0,0.0,0.0,0.0,0.0,0.0,0.0,0.0,0.0,0.0,0.0,0.0,0.0,0.0,0.0,0.0,0.0,0.0,0.0,0.0,0.0,0.0,0.0,0.0,0.0,0.0,0.0,0.0,0.0,0.0,0.0,0.0,0.0,0.0,0.0,0.0,0.0,0.0,0.0,0.0,0.0,0.0,0.0,0.0,0.0,0.0,0.0,0.0,0.0,0.0,0.0,0.0,0.0,0.0,0.0,0.0,0.0,0.0,0.0,0.0,0.0,0.0,0.0,0.0,0.0,0.0,0.0,0.0,0.0,0.0,0.0,0.0,0.0,0.0,0.0,0.0,0.0,0.0,0.0,0.0,0.0,0.0,0.0,0.0,0.0,0.0,0.0,0.0,0.0,0.0,0.0,0.0,0.0,0.0,0.0,0.0,0.0,0.0,0.0,0.0,0.0,0.0,0.0,0.0,0.0,0.0,0.0,0.0,0.0,0.0,0.0,0.0,0.0,0.0,0.0,0.0,0.0,0.0,0.0,0.0,0.0,0.0,0.0,0.0,0.0,0.0,0.0,0.0,0.0,0.0,0.0,0.0,0.0,0.0,0.0,0.0,0.0,0.0,0.0,0.0,0.0,0.0,0.0,0.0,0.0,0.0,0.0,0.0,0.0,0.0,0.0,0.0,0.0,0.0,0.0,0.0,0.0,0.0,0.0,0.0,0.0,0.0,0.0,0.0,0.0,0.0,0.0,0.0,0.0,0.0,0.0,0.0,0.0,0.0,0.0,0.0,0.0,0.0,0.0,0.0,0.0,0.0,0.0,0.0,0.0,0.0,0.0,0.0,0.0,0.0,0.0,0.0,0.0,0.0,0.0,0.0,0.0,0.0,0.0,0.0,0.0,0.0,0.0,0.0,0.0,0.0,0.0,0.0,0.0,0.0,0.0,0.0,0.0,0.0,0.0,0.0,0.0,0.0,0.0,0.0,0.0,0.0,0.0,0.0,0.0,0.0,0.0,0.0,0.0,0.0,0.0,0.0,0.0,0.0,0.0,0.0,0.0,0.0,0.0,0.0,0.0,0.0,0.0,0.0,0.0,0.0,0.0,0.0,0.0,0.0,0.0,0.0,0.0,0.0,0.0,0.0,0.0,0.0,0.0,0.0,0.0,0.0,0.0,0.0,0.0,0.0,0.0,0.0,0.0,0.0,0.0,0.0,0.0,0.0,0.0,0.0,0.0,0.0,0.0,0.0,0.0,0.0,0.0,0.0,0.0,0.0,0.0,0.0,0.0,0.0,0.0,0.0,0.0,0.0,0.0,0.0,0.0,0.0,0.0,0.0,0.0,0.0,0.0,0.0,0.0,0.0,0.0,0.0,0.0,0.0,0.0,0.0,0.0,0.0,0.0,0.0,0.0,0.0,0.0,0.0,0.0,0.0,0.0,0.0,0.0,0.0,0.0,0.0,0.0,0.0,0.0,0.0,0.0,0.0,0.0,0.0,0.0,0.0,0.0,0.0,0.0,0.0,0.0,0.0,0.0,0.0,0.0,0.0,0.0,0.0,0.0,0.0,0.0,0.0,0.0,0.0,0.0,0.0,0.0,0.0,0.0,0.0,0.0,0.0,0.0,0.0,0.0,0.0,0.0,0.0,0.0,0.0,0.0,0.0,0.0,0.0,0.0,0.0,0.0,0.0,0.0,0.0,0.0,0.0,0.0,0.0,0.0,0.0,0.0,0.0,0.0,0.0,0.0,0.0,0.0,0.0,0.0,0.0,0.0,0.0,0.0,0.0,0.0,0.0,0.0,0.0,0.0,0.0,0.0,0.0,0.0,0.0,0.0,0.0,0.0,0.0,0.0,0.0,0.0,0.0,0.0,0.0,0.0,0.0,0.0,0.0,0.0,0.0,0.0,0.0,0.0,0.0,0.0,0.0,0.0,0.0,0.0,0.0,0.0,0.0,0.0,0.0,0.0,0.0,0.0,0.0,0.0,0.0,0.0,0.0,0.0,0.0,0.0,0.0,0.0,0.0,0.0,0.0,0.0,0.0,0.0,0.0,0.0,0.0,0.0,0.0,0.0,0.0,0.0,0.0,0.0,0.0,0.0,0.0,0.0,0.0,0.0,0.0,0.0,0.0,0.0,0.0,0.0,0.0,0.0,0.0,0.0,0.0,0.0,0.0,0.0,0.0,0.0,0.0,0.0,0.0,0.0,0.0,0.0,0.0,0.0,0.0,0.0,0.0,0.0,0.0,0.0,0.0,0.0,0.0,0.0,0.0,0.0,0.0,0.0,0.0,0.0,0.0,0.0,0.0,0.0,0.0,0.0,0.0,0.0,0.0,0.0,0.0,0.0,0.0,0.0,0.0,0.0,0.0,0.0,0.0,0.0,0.0,0.0,0.0,0.0,0.0,0.0,0.0,0.0,0.0,0.0,0.0,0.0,0.0,0.0,0.0,0.0,0.0,0.0,0.0,0.0,0.0,0.0,0.0,0.0,0.0,0.0,0.0,0.0,0.0,0.0,0.0,0.0,0.0,0.0,0.0,0.0,0.0,0.0,0.0,0.0,0.0,0.0,0.0,0.0,0.0,0.0,0.0,0.0,0.0,0.0,0.0,0.0,0.0,0.0,0.0,0.0,0.0,0.0,0.0,0.0,0.0,0.0,0.0,0.0,0.0,0.0,0.0,0.0,0.0,0.0,0.0,0.0,0.0,0.0,0.0,0.0,0.0,0.0,0.0,0.0,0.0,0.0,0.0,0.0,0.0,0.0,0.0,0.0,0.0,0.0,0.0,0.0,0.0,0.0,0.0,0.0,0.0,0.0,0.0,0.0,0.0,0.0,0.0,0.0,0.0,0.0,0.0,0.0,0.0,0.0,0.0,0.0,0.0,0.0,0.0,0.0,0.0,0.0,0.0,0.0,0.0,0.0,0.0,0.0,0.0,0.0,0.0,0.0,0.0,0.0,0.0,0.0,0.0,0.0,0.0,0.0,0.0,0.0,0.0,0.0,0.0,0.0,0.0,0.0,0.0,0.0,0.0,0.0,0.0,0.0,0.0,0.0,0.0,0.0,0.0,0.0,0.0,0.0,0.0,0.0,0.0,0.0,0.0,0.0,0.0,0.0,0.0,0.0,0.0,0.0,0.0,0.0,0.0,0.0,0.0,0.0,0.0,0.0,0.0,0.0,0.0,0.0,0.0,0.0,0.0,0.0,0.0,0.0,0.0,0.0,0.0,0.0,0.0,0.0,0.0,0.0,0.0,0.0,0.0,0.0,0.0,0.0,0.0,0.0,0.0,0.0,0.0,0.0,0.0,0.0,0.0,0.0,0.0,0.0,0.0,0.0,0.0,0.0,0.0,0.0,0.0,0.0,0.0,0.0,0.0,0.0,0.0,0.0,0.0,0.0,0.0,0.0,0.0,0.0,0.0,0.0,0.0,0.0,0.0,0.0,0.0,0.0,0.0,0.0,0.0,0.0,0.0,0.0,0.0,0.0,0.0,0.0,0.0,0.0,0.0,0.0,0.0,0.0,0.0,0.0,0.0,0.0,0.0,0.0,0.0,0.0,0.0,0.0,0.0,0.0,0.0,0.0,0.0,0.0,-1.0175,0.0,0.0,0.0,0.0,0.0,0.0,0.0,0.0,0.0,0.0,0.0,0.0,0.0,0.0,0.0,0.0,0.0,0.0,0.0,0.0,0.0,0.0,0.0,0.0,0.0,0.0,0.0,0.0,0.0,0.0,0.0,0.0,0.0,0.0,0.0,0.0,0.0,0.0,0.0,0.0,0.0,0.0,0.0,0.0,0.0,0.0,0.0,0.0,0.0,0.0,0.0,0.0,0.0,0.0,0.0,0.0,0.0,0.0,0.0,0.0,0.0,0.0,0.0,0.0,0.0,0.0,0.0,0.0,0.0,0.0,0.0,0.0,0.0,0.0,0.0,0.0,0.0,0.0,0.0,0.0,0.0,0.0,0.0,0.0,0.0,0.0,0.0,0.0,0.0,0.0,0.0,0.0,0.0,0.0,0.0,0.0,0.0,0.0,0.0,0.0,0.0,0.0,0.0,0.0,0.0,0.0,0.0,0.0,0.0,0.0,-1.0156,-1.0194,-1.0164,-1.0167,-1.0198,0.0,0.0,0.0,0.0,0.0,0.0,0.0,0.0,0.0,0.0,0.0,0.0,0.0,0.0,0.0,0.0,0.0,0.0,0.0,0.0,0.0,0.0,0.0,0.0,0.0,0.0,0.0,0.0,0.0,0.0,0.0,0.0,0.0,0.0,0.0,0.0,0.0,0.0,0.0,0.0,0.0,0.0,0.0,0.0,0.0,0.0,0.0,0.0,0.0,0.0,0.0,0.0,0.0,0.0,0.0,0.0,0.0,0.0,0.0,0.0,0.0,0.0,0.0,0.0,0.0,0.0,0.0,0.0,0.0,0.0,0.0,0.0,0.0,0.0,0.0,0.0,0.0,0.0,0.0,0.0,0.0,0.0,0.0,0.0,0.0,0.0,0.0,0.0,0.0,0.0,0.0,0.0,0.0,0.0,0.0,0.0,0.0,0.0,0.0,0.0,0.0,0.0,0.0,0.0,0.0,0.0,0.0,0.0,0.0,0.0,0.0,0.0,-1.0792,-1.0795,-1.0795,0.0,0.0,0.0,0.0,0.0,0.0,0.0,0.0,0.0,0.0,0.0,0.0,0.0,0.0,0.0,0.0,0.0,0.0,0.0,0.0,0.0,0.0,0.0,0.0,0.0,0.0,0.0,0.0,0.0,0.0,0.0,0.0,0.0,0.0,0.0,0.0,0.0,0.0,0.0,0.0,0.0,0.0,0.0,0.0,0.0,0.0,0.0,0.0,0.0,0.0,0.0,0.0,0.0,0.0,0.0,0.0,0.0,0.0,0.0,0.0,0.0,0.0,0.0,0.0,0.0,0.0,0.0,0.0,0.0,0.0,0.0,0.0,0.0,0.0,0.0,0.0,0.0,0.0,0.0,0.0,0.0,0.0,0.0,0.0,0.0,0.0,0.0,0.0,0.0,0.0,0.0,0.0,0.0,0.0,0.0,0.0,0.0,0.0,0.0,0.0,0.0,0.0,0.0,0.0,0.0,0.0,0.0,0.0,0.0,0.0,-1.0946,-1.251,-1.254,0.0,-1.2583,0.0,0.0,0.0,0.0,0.0,0.0,0.0,0.0,0.0,0.0,0.0,0.0,0.0,0.0,0.0,0.0,0.0,0.0,0.0,0.0,0.0,0.0,0.0,0.0,0.0,0.0,0.0,0.0,0.0,0.0,0.0,0.0,0.0,0.0,0.0,0.0,0.0,0.0,0.0,0.0,0.0,0.0,0.0,0.0,0.0,0.0,0.0,0.0,0.0,0.0,0.0,0.0,0.0,0.0,0.0,0.0,0.0,0.0,0.0,0.0,0.0,0.0,0.0,0.0,0.0,0.0,0.0,0.0,0.0,0.0,0.0,0.0,0.0,0.0,0.0,0.0,0.0,0.0,0.0,0.0,0.0,0.0,0.0,0.0,0.0,0.0,0.0,0.0,0.0,0.0,0.0,0.0,0.0,0.0,0.0,0.0,0.0,0.0,0.0,0.0,0.0,0.0,0.0,0.0,0.0,0.0,0.0,0.0,0.0,0.0,0.0,-1.2784,-1.2842,-1.2862,0.0,0.0,0.0,0.0,0.0,0.0,0.0,0.0,0.0,0.0,0.0,0.0,0.0,0.0,0.0,0.0,0.0,0.0,0.0,0.0,0.0,0.0,0.0,0.0,0.0,0.0,0.0,0.0,0.0,0.0,0.0,0.0,0.0,0.0,0.0,0.0,0.0,0.0,0.0,0.0,0.0,0.0,0.0,0.0,0.0,0.0,0.0,0.0,0.0,0.0,0.0,0.0,0.0,0.0,0.0,0.0,0.0,0.0,0.0,0.0,0.0,0.0,0.0,0.0,0.0,0.0,0.0,0.0,0.0,0.0,0.0,0.0,0.0,0.0,0.0,0.0,0.0,0.0,0.0,0.0,0.0,0.0,0.0,0.0,0.0,0.0,0.0,0.0,0.0,0.0,0.0,0.0,0.0,0.0,0.0,0.0,0.0,0.0,0.0,0.0,0.0,0.0,0.0,0.0,0.0,0.0,0.0,0.0,0.0,0.0,-1.2472,0.0,-1.3495,-1.3547,-1.3379,-1.293,0.0,0.0,0.0,0.0,0.0,0.0,0.0,0.0,0.0,0.0,0.0,0.0,0.0,0.0,0.0,0.0,0.0,0.0,0.0,0.0,0.0,0.0,0.0,0.0,0.0,0.0,0.0,0.0,0.0,0.0,0.0,0.0,0.0,0.0,0.0,0.0,0.0,0.0,0.0,0.0,0.0,0.0,0.0,0.0,0.0,0.0,0.0,0.0,0.0,0.0,0.0,0.0,0.0,0.0,0.0,0.0,0.0,0.0,0.0,0.0,0.0,0.0,0.0,0.0,0.0,0.0,0.0,0.0,0.0,0.0,0.0,0.0,0.0,0.0,0.0,0.0,0.0,0.0,0.0,0.0,0.0,0.0,0.0,0.0,0.0,0.0,0.0,0.0,0.0,0.0,0.0,0.0,0.0,0.0,0.0,0.0,0.0,0.0,0.0,0.0,0.0,0.0,0.0,0.0,0.0,0.0,0.0,0.0,0.0,-1.3652,-1.3672,-1.5234,-1.5273,-1.4531,0.0,0.0,0.0,0.0,0.0,0.0,0.0,0.0,0.0,0.0,0.0,0.0,0.0,0.0,0.0,0.0,0.0,0.0,0.0,0.0,0.0,0.0,0.0,0.0,0.0,0.0,0.0,0.0,0.0,0.0,0.0,0.0,0.0,0.0,0.0,0.0,0.0,0.0,0.0,0.0,0.0,0.0,0.0,0.0,0.0,0.0,0.0,0.0,0.0,0.0,0.0,0.0,0.0,0.0,0.0,0.0,0.0,0.0,0.0,0.0,0.0,0.0,0.0,0.0,0.0,0.0,0.0,0.0,0.0,0.0,0.0,0.0,0.0,0.0,0.0,0.0,0.0,0.0,0.0,0.0,0.0,0.0,0.0,0.0,0.0,0.0,0.0,0.0,0.0,0.0,0.0,0.0,0.0,0.0,0.0,0.0,0.0,0.0,0.0,0.0,0.0,0.0,0.0,0.0,0.0,0.0,0.0,0.0,0.0,-1.209,-1.2617,-1.4238,-1.6855,-1.4961,-1.4023,0.0,0.0,0.0,0.0,0.0,0.0,0.0,0.0,0.0,0.0,0.0,0.0,0.0,0.0,0.0,0.0,0.0,0.0,0.0,0.0,0.0,0.0,0.0,0.0,0.0,0.0,0.0,0.0,0.0,0.0,0.0,0.0,0.0,0.0,0.0,0.0,0.0,0.0,0.0,0.0,0.0,0.0,0.0,0.0,0.0,0.0,0.0,0.0,0.0,0.0,0.0,0.0,0.0,0.0,0.0,0.0,0.0,0.0,0.0,0.0,0.0,0.0,0.0,0.0,0.0,0.0,0.0,0.0,0.0,0.0,0.0,0.0,0.0,0.0,0.0,0.0,0.0,0.0,0.0,0.0,0.0,0.0,0.0,0.0,0.0,0.0,0.0,0.0,0.0,0.0,0.0,0.0,0.0,0.0,0.0,0.0,0.0,0.0,0.0,0.0,0.0,0.0,0.0,0.0,0.0,0.0,0.0,0.0,0.0,-1.1953,0.0,-1.5391,0.0,-1.4922,-1.373,0.0,0.0,0.0,0.0,0.0,0.0,0.0,0.0,0.0,0.0,0.0,0.0,0.0,0.0,0.0,0.0,0.0,0.0,0.0,0.0,0.0,0.0,0.0,0.0,0.0,0.0,0.0,0.0,0.0,0.0,0.0,0.0,0.0,0.0,0.0,0.0,0.0,0.0,0.0,0.0,0.0,0.0,0.0,0.0,0.0,0.0,0.0,0.0,0.0,0.0,0.0,0.0,0.0,0.0,0.0,0.0,0.0,0.0,0.0,0.0,0.0,0.0,0.0,0.0,0.0,0.0,0.0,0.0,0.0,0.0,0.0,0.0,0.0,0.0,0.0,0.0,0.0,0.0,0.0,0.0,0.0,0.0,0.0,0.0,0.0,0.0,0.0,0.0,0.0,0.0,0.0,0.0,0.0,0.0,0.0,0.0,0.0,0.0,0.0,0.0,0.0,0.0,0.0,0.0,0.0,0.0,0.0,0.0,-1.1973,-1.5176,-1.6914,-1.7031,-1.5527,-1.5371,-1.3789,0.0,0.0,0.0,0.0,0.0,0.0,0.0,0.0,0.0,0.0,0.0,0.0,0.0,0.0,0.0,0.0,0.0,0.0,0.0,0.0,0.0,0.0,0.0,0.0,0.0,0.0,0.0,0.0,0.0,0.0,0.0,0.0,0.0,0.0,0.0,0.0,0.0,0.0,0.0,0.0,0.0,0.0,0.0,0.0,0.0,0.0,0.0,0.0,0.0,0.0,0.0,0.0,0.0,0.0,0.0,0.0,0.0,0.0,0.0,0.0,0.0,0.0,0.0,0.0,0.0,0.0,0.0,0.0,0.0,0.0,0.0,0.0,0.0,0.0,0.0,0.0,0.0,0.0,0.0,0.0,0.0,0.0,0.0,0.0,0.0,0.0,0.0,0.0,0.0,0.0,0.0,0.0,0.0,0.0,0.0,0.0,0.0,0.0,0.0,0.0,0.0,0.0,0.0,0.0,0.0,0.0,0.0,0.0,0.0,-1.3711,-1.5332,-1.6816,-1.793,-1.5215,-1.4004,0.0,0.0,0.0,0.0,0.0,0.0,0.0,0.0,0.0,0.0,0.0,0.0,0.0,0.0,0.0,0.0,0.0,0.0,0.0,0.0,0.0,0.0,0.0,0.0,0.0,0.0,0.0,0.0,0.0,0.0,0.0,0.0,0.0,0.0,0.0,0.0,0.0,0.0,0.0,0.0,0.0,0.0,0.0,0.0,0.0,0.0,0.0,0.0,0.0,0.0,0.0,0.0,0.0,0.0,0.0,0.0,0.0,0.0,0.0,0.0,0.0,0.0,0.0,0.0,0.0,0.0,0.0,0.0,0.0,0.0,0.0,0.0,0.0,0.0,0.0,0.0,0.0,0.0,0.0,0.0,0.0,0.0,0.0,0.0,0.0,0.0,0.0,0.0,0.0,0.0,0.0,0.0,0.0,0.0,0.0,0.0,0.0,0.0,0.0,0.0,0.0,0.0,0.0,0.0,0.0,0.0,0.0,0.0,0.0,-1.4902,-1.6777,-1.8281,-1.9258,-1.6055,-1.4609,-1.5176,0.0,0.0,0.0,0.0,0.0,0.0,0.0,0.0,0.0,0.0,0.0,0.0,0.0,0.0,0.0,0.0,0.0,0.0,0.0,0.0,0.0,0.0,0.0,0.0,0.0,0.0,0.0,0.0,0.0,0.0,0.0,0.0,0.0,0.0,0.0,0.0,0.0,0.0,0.0,0.0,0.0,0.0,0.0,0.0,0.0,0.0,0.0,0.0,0.0,0.0,0.0,0.0,0.0,0.0,0.0,0.0,0.0,0.0,0.0,0.0,0.0,0.0,0.0,0.0,0.0,0.0,0.0,0.0,0.0,0.0,0.0,0.0,0.0,0.0,0.0,0.0,0.0,0.0,0.0,0.0,0.0,0.0,0.0,0.0,0.0,0.0,0.0,0.0,0.0,0.0,0.0,0.0,0.0,0.0,0.0,0.0,0.0,0.0,0.0,0.0,0.0,0.0,0.0,0.0,0.0,0.0,0.0,0.0,-1.8125,-2.0684,-2.1211,-1.959,-1.7734,-1.5625,0.0,0.0,0.0,0.0,0.0,0.0,0.0,0.0,0.0,0.0,0.0,0.0,0.0,0.0,0.0,0.0,0.0,0.0,0.0,0.0,0.0,0.0,0.0,0.0,0.0,0.0,0.0,0.0,0.0,0.0,0.0,0.0,0.0,0.0,0.0,0.0,0.0,0.0,0.0,0.0,0.0,0.0,0.0,0.0,0.0,0.0,0.0,0.0,0.0,0.0,0.0,0.0,0.0,0.0,0.0,0.0,0.0,0.0,0.0,0.0,0.0,0.0,0.0,0.0,0.0,0.0,0.0,0.0,0.0,0.0,0.0,0.0,0.0,0.0,0.0,0.0,0.0,0.0,0.0,0.0,0.0,0.0,0.0,0.0,0.0,0.0,0.0,0.0,0.0,0.0,0.0,0.0,0.0,0.0,0.0,0.0,0.0,0.0,0.0,0.0,0.0,0.0,0.0,0.0,0.0,0.0,0.0,0.0,0.0,-1.9902,-2.2422,-2.3242,-2.2148,-1.9238,-1.7051,0.0,0.0,0.0,0.0,0.0,0.0,0.0,0.0,0.0,0.0,0.0,0.0,0.0,0.0,0.0,0.0,0.0,0.0,0.0,0.0,0.0,0.0,0.0,0.0,0.0,0.0,0.0,0.0,0.0,0.0,0.0,0.0,0.0,0.0,0.0,0.0,0.0,0.0,0.0,0.0,0.0,0.0,0.0,0.0,0.0,0.0,0.0,0.0,0.0,0.0,0.0,0.0,0.0,0.0,0.0,0.0,0.0,0.0,0.0,0.0,0.0,0.0,0.0,0.0,0.0,0.0,0.0,0.0,0.0,0.0,0.0,0.0,0.0,0.0,0.0,0.0,0.0,0.0,0.0,0.0,0.0,0.0,0.0,0.0,0.0,0.0,0.0,0.0,0.0,0.0,0.0,0.0,0.0,0.0,0.0,0.0,0.0,0.0,0.0,0.0,0.0,0.0,0.0,0.0,0.0,0.0,0.0,0.0,-1.8867,-2.1133,-2.3633,-2.4551,-2.3711,-2.1074,-1.8711,0.0,0.0,0.0,0.0,0.0,0.0,0.0,0.0,0.0,0.0,0.0,0.0,0.0,0.0,0.0,0.0,0.0,0.0,0.0,0.0,0.0,0.0,0.0,0.0,0.0,0.0,0.0,0.0,0.0,0.0,0.0,0.0,0.0,0.0,0.0,0.0,0.0,0.0,0.0,0.0,0.0,0.0,0.0,0.0,0.0,0.0,0.0,0.0,0.0,0.0,0.0,0.0,0.0,0.0,0.0,0.0,0.0,0.0,0.0,0.0,0.0,0.0,0.0,0.0,0.0,0.0,0.0,0.0,0.0,0.0,0.0,0.0,0.0,0.0,0.0,0.0,0.0,0.0,0.0,0.0,0.0,0.0,0.0,0.0,0.0,0.0,0.0,0.0,0.0,0.0,0.0,0.0,0.0,0.0,0.0,0.0,0.0,0.0,0.0,0.0,0.0,0.0,0.0,0.0,0.0,0.0,0.0,0.0,-2.0273,-2.2012,-2.4434,-2.5312,-2.4531,-2.2832,-2.0312,0.0,0.0,0.0,0.0,0.0,0.0,0.0,0.0,0.0,0.0,0.0,0.0,0.0,0.0,0.0,0.0,0.0,0.0,0.0,0.0,0.0,0.0,0.0,0.0,0.0,0.0,0.0,0.0,0.0,0.0,0.0,0.0,0.0,0.0,0.0,0.0,0.0,0.0,0.0,0.0,0.0,0.0,0.0,0.0,0.0,0.0,0.0,0.0,0.0,0.0,0.0,0.0,0.0,0.0,0.0,0.0,0.0,0.0,0.0,0.0,0.0,0.0,0.0,0.0,0.0,0.0,0.0,0.0,0.0,0.0,0.0,0.0,0.0,0.0,0.0,0.0,0.0,0.0,0.0,0.0,0.0,0.0,0.0,0.0,0.0,0.0,0.0,0.0,0.0,0.0,0.0,0.0,0.0,0.0,0.0,0.0,0.0,0.0,0.0,0.0,0.0,0.0,0.0,0.0,0.0,0.0,0.0,0.0,-2.1152,-2.2812,-2.4727,-2.5625,-2.541,-2.3144,-2.0586,0.0,0.0,0.0,0.0,0.0,0.0,0.0,0.0,0.0,0.0,0.0,0.0,0.0,0.0,0.0,0.0,0.0,0.0,0.0,0.0,0.0,0.0,0.0,0.0,0.0,0.0,0.0,0.0,0.0,0.0,0.0,0.0,0.0,0.0,0.0,0.0,0.0,0.0,0.0,0.0,0.0,0.0,0.0,0.0,0.0,0.0,0.0,0.0,-1.1048,0.0,0.0,0.0,0.0,0.0,0.0,0.0,0.0,0.0,0.0,0.0,0.0,0.0,0.0,0.0,0.0,0.0,0.0,0.0,0.0,0.0,0.0,0.0,0.0,0.0,0.0,0.0,0.0,0.0,0.0,0.0,0.0,0.0,0.0,0.0,0.0,0.0,0.0,0.0,0.0,0.0,0.0,0.0,0.0,0.0,0.0,0.0,0.0,0.0,0.0,0.0,0.0,0.0,0.0,0.0,0.0,0.0,0.0,0.0,-2.2031,-2.3672,-2.5,-2.5703,-2.5625,-2.4004,-2.168,0.0,0.0,0.0,0.0,0.0,0.0,0.0,0.0,0.0,0.0,0.0,0.0,0.0,0.0,0.0,0.0,0.0,0.0,0.0,0.0,0.0,0.0,0.0,0.0,0.0,0.0,0.0,0.0,0.0,0.0,0.0,0.0,0.0,0.0,0.0,0.0,0.0,0.0,0.0,0.0,0.0,0.0,0.0,0.0,0.0,0.0,0.0,0.0,0.0,0.0,0.0,0.0,0.0,0.0,0.0,0.0,0.0,0.0,0.0,0.0,0.0,0.0,0.0,0.0,0.0,0.0,0.0,0.0,0.0,0.0,0.0,0.0,0.0,0.0,0.0,0.0,0.0,0.0,0.0,0.0,0.0,0.0,0.0,0.0,0.0,0.0,0.0,0.0,0.0,0.0,0.0,0.0,0.0,0.0,0.0,0.0,0.0,0.0,0.0,0.0,0.0,0.0,0.0,0.0,0.0,0.0,0.0,-2.0195,-2.2637,-2.4531,-2.5312,-2.5703,-2.5684,-2.5,-2.2988,-1.9648,0.0,0.0,0.0,0.0,0.0,0.0,0.0,0.0,0.0,0.0,0.0,0.0,0.0,0.0,0.0,0.0,0.0,0.0,0.0,0.0,0.0,0.0,0.0,0.0,0.0,0.0,0.0,0.0,0.0,0.0,0.0,0.0,0.0,0.0,0.0,0.0,0.0,0.0,-1.0749,-1.2226,0.0,0.0,0.0,0.0,0.0,0.0,0.0,0.0,-1.2878,0.0,0.0,0.0,0.0,0.0,0.0,0.0,0.0,0.0,0.0,0.0,0.0,0.0,0.0,0.0,0.0,0.0,0.0,0.0,0.0,0.0,0.0,0.0,0.0,0.0,0.0,0.0,0.0,0.0,0.0,0.0,0.0,0.0,0.0,0.0,0.0,0.0,0.0,0.0,0.0,0.0,0.0,0.0,0.0,0.0,0.0,0.0,0.0,0.0,0.0,0.0,0.0,0.0,0.0,0.0,0.0,-1.9883,-2.0547,-2.2324,-2.5391,-2.5625,-2.5703,-2.5703,-2.5547,-2.3887,-2.0527,0.0,0.0,0.0,0.0,0.0,0.0,0.0,0.0,0.0,0.0,0.0,0.0,0.0,0.0,0.0,0.0,0.0,0.0,0.0,0.0,0.0,0.0,0.0,0.0,0.0,0.0,0.0,0.0,0.0,0.0,0.0,0.0,0.0,0.0,0.0,0.0,0.0,0.0,0.0,-1.4818,-1.6193,0.0,0.0,0.0,0.0,0.0,0.0,0.0,0.0,-1.3142,0.0,0.0,0.0,0.0,0.0,0.0,0.0,0.0,0.0,0.0,0.0,0.0,0.0,0.0,0.0,0.0,0.0,0.0,0.0,0.0,0.0,0.0,0.0,0.0,0.0,0.0,0.0,0.0,0.0,0.0,0.0,0.0,0.0,0.0,0.0,0.0,0.0,0.0,0.0,0.0,0.0,0.0,0.0,0.0,0.0,0.0,0.0,0.0,0.0,0.0,0.0,0.0,0.0,0.0,0.0,-1.9141,-2.1035,-2.3164,-2.5586,-2.5703,-2.5703,-2.5664,-2.4434,-2.2539,0.0,0.0,0.0,0.0,0.0,0.0,0.0,0.0,0.0,0.0,0.0,0.0,0.0,0.0,0.0,0.0,0.0,0.0,0.0,0.0,0.0,0.0,0.0,0.0,0.0,0.0,0.0,0.0,0.0,0.0,0.0,0.0,0.0,0.0,0.0,0.0,0.0,0.0,0.0,0.0,-1.5027,-1.6283,-1.7572,0.0,0.0,0.0,0.0,0.0,0.0,-1.5087,-1.4272,0.0,0.0,0.0,0.0,0.0,0.0,0.0,0.0,0.0,0.0,0.0,0.0,0.0,0.0,0.0,0.0,0.0,0.0,0.0,0.0,0.0,0.0,0.0,0.0,0.0,0.0,0.0,0.0,0.0,0.0,0.0,0.0,0.0,0.0,0.0,0.0,0.0,0.0,0.0,0.0,0.0,0.0,0.0,0.0,0.0,0.0,0.0,0.0,0.0,0.0,0.0,0.0,0.0,0.0,0.0,-1.8027,-2.1094,-2.3672,-2.5586,-2.5703,-2.5703,-2.5664,-2.3555,-2.1426,0.0,0.0,0.0,0.0,0.0,0.0,0.0,0.0,0.0,0.0,0.0,0.0,0.0,0.0,0.0,0.0,0.0,0.0,0.0,0.0,0.0,0.0,0.0,0.0,0.0,0.0,0.0,0.0,0.0,0.0,0.0,0.0,0.0,0.0,0.0,0.0,0.0,0.0,0.0,0.0,0.0,-1.6894,-1.8041,-1.7068,0.0,0.0,0.0,0.0,-1.8189,-1.7215,0.0,0.0,0.0,0.0,0.0,0.0,0.0,0.0,0.0,0.0,0.0,0.0,0.0,0.0,0.0,0.0,0.0,0.0,0.0,0.0,0.0,0.0,0.0,0.0,0.0,0.0,0.0,0.0,0.0,0.0,0.0,0.0,0.0,0.0,0.0,0.0,0.0,0.0,0.0,0.0,0.0,0.0,0.0,0.0,0.0,0.0,0.0,0.0,0.0,0.0,0.0,0.0,0.0,0.0,0.0,0.0,-1.793,-1.9902,-2.2461,-2.5508,-2.5703,-2.5703,-2.5684,-2.4668,-2.2598,0.0,0.0,0.0,0.0,0.0,0.0,0.0,0.0,0.0,0.0,0.0,0.0,0.0,0.0,0.0,0.0,0.0,0.0,0.0,0.0,0.0,0.0,0.0,0.0,0.0,0.0,0.0,0.0,0.0,0.0,0.0,0.0,0.0,0.0,0.0,0.0,0.0,0.0,0.0,0.0,0.0,-2.0577,-2.0073,-1.9835,-2.0038,0.0,0.0,-1.9138,-2.0826,-2.0296,0.0,0.0,0.0,0.0,0.0,0.0,0.0,0.0,0.0,0.0,0.0,0.0,0.0,0.0,0.0,0.0,0.0,0.0,0.0,0.0,0.0,0.0,0.0,0.0,0.0,0.0,0.0,0.0,0.0,0.0,0.0,0.0,0.0,0.0,0.0,0.0,0.0,0.0,0.0,0.0,0.0,0.0,0.0,0.0,0.0,0.0,0.0,0.0,0.0,0.0,0.0,0.0,0.0,0.0,0.0,-1.5527,-1.7988,-2.0664,-2.3223,-2.5586,-2.5703,-2.5703,-2.5684,-2.3457,-2.1094,0.0,0.0,0.0,0.0,0.0,0.0,0.0,0.0,0.0,0.0,0.0,0.0,0.0,0.0,0.0,0.0,0.0,0.0,0.0,0.0,0.0,0.0,0.0,0.0,0.0,0.0,0.0,0.0,0.0,0.0,0.0,0.0,0.0,0.0,0.0,0.0,0.0,0.0,0.0,0.0,0.0,0.0,-2.1609,-2.1327,0.0,0.0,0.0,-2.0834,-2.2105,0.0,0.0,0.0,0.0,0.0,0.0,0.0,0.0,0.0,0.0,0.0,0.0,0.0,0.0,0.0,0.0,0.0,0.0,0.0,0.0,0.0,0.0,0.0,0.0,0.0,0.0,0.0,0.0,0.0,0.0,0.0,0.0,0.0,0.0,0.0,0.0,0.0,0.0,0.0,0.0,0.0,0.0,0.0,0.0,0.0,0.0,0.0,0.0,0.0,0.0,0.0,0.0,0.0,0.0,0.0,0.0,0.0,-1.8027,-2.1367,-2.3965,-2.5625,-2.5703,-2.5703,-2.5644,-2.2793,0.0,0.0,0.0,0.0,0.0,0.0,0.0,0.0,0.0,0.0,0.0,0.0,0.0,0.0,0.0,0.0,0.0,0.0,0.0,0.0,0.0,0.0,0.0,0.0,0.0,0.0,0.0,-0.877,0.0,0.0,0.0,0.0,0.0,0.0,0.0,0.0,0.0,0.0,0.0,0.0,0.0,0.0,-2.0687,-2.2645,-2.2504,-2.2528,0.0,0.0,-2.2512,-2.34,-2.2439,-2.1073,0.0,0.0,0.0,0.0,0.0,0.0,0.0,0.0,0.0,0.0,0.0,0.0,0.0,0.0,0.0,0.0,0.0,0.0,0.0,0.0,0.0,0.0,0.0,0.0,0.0,0.0,0.0,0.0,0.0,0.0,0.0,0.0,0.0,0.0,0.0,0.0,0.0,0.0,0.0,0.0,0.0,0.0,0.0,0.0,0.0,0.0,0.0,0.0,0.0,0.0,0.0,0.0,0.0,0.0,0.0,-1.8047,-2.1426,-2.4004,-2.5625,-2.5703,-2.5703,-2.5664,-2.3906,-2.1367,0.0,0.0,0.0,0.0,0.0,0.0,0.0,0.0,0.0,0.0,0.0,0.0,0.0,0.0,0.0,0.0,0.0,0.0,0.0,0.0,0.0,0.0,0.0,0.0,0.0,0.0,0.0,0.0,0.0,0.0,0.0,0.0,0.0,0.0,0.0,0.0,0.0,0.0,0.0,0.0,0.0,-2.2722,-2.2956,-2.363,-2.44,0.0,0.0,-2.4402,-2.5196,-2.5159,-2.3985,-2.0831,0.0,0.0,0.0,0.0,0.0,0.0,0.0,0.0,0.0,0.0,0.0,0.0,0.0,0.0,0.0,0.0,0.0,0.0,0.0,0.0,0.0,0.0,0.0,0.0,0.0,0.0,0.0,0.0,0.0,0.0,0.0,0.0,0.0,0.0,0.0,0.0,0.0,0.0,0.0,0.0,0.0,0.0,0.0,0.0,0.0,0.0,0.0,0.0,0.0,0.0,0.0,0.0,0.0,-1.6224,-1.7959,-2.1326,-2.3893,-2.5489,-2.559,-2.557,-2.559,-2.3935,-2.1666,0.0,0.0,0.0,0.0,0.0,0.0,0.0,0.0,0.0,0.0,0.0,0.0,0.0,0.0,0.0,0.0,0.0,0.0,0.0,0.0,0.0,0.0,0.0,0.0,0.0,0.0,0.0,0.0,-0.9785,-0.9922,-1.0273,0.0,0.0,0.0,0.0,0.0,0.0,0.0,0.0,0.0,0.0,-2.3342,-2.4454,-2.4857,0.0,0.0,-2.5301,-2.5157,-2.5508,-2.4605,-2.325,-2.1421,-1.995,0.0,0.0,0.0,0.0,0.0,0.0,0.0,0.0,0.0,0.0,0.0,0.0,0.0,0.0,0.0,0.0,0.0,0.0,0.0,0.0,0.0,0.0,0.0,0.0,0.0,0.0,0.0,0.0,0.0,0.0,0.0,0.0,0.0,0.0,0.0,0.0,0.0,0.0,0.0,0.0,0.0,0.0,0.0,0.0,0.0,0.0,0.0,0.0,0.0,0.0,0.0,0.0,-1.6357,-1.827,-2.1388,-2.3809,-2.546,-2.5518,-2.5518,-2.546,-2.3881,-2.19,0.0,0.0,0.0,0.0,0.0,0.0,0.0,0.0,0.0,0.0,0.0,0.0,0.0,0.0,0.0,0.0,0.0,0.0,0.0,0.0,0.0,0.0,0.0,0.0,0.0,0.0,0.0,0.0,-1.0312,-1.0312,-1.0312,0.0,0.0,0.0,0.0,0.0,0.0,0.0,0.0,0.0,0.0,-2.3954,-2.5415,-2.559,-2.5605,-2.5684,-2.5629,-2.5579,-2.5624,-2.4547,-2.3334,-2.2241,0.0,0.0,0.0,0.0,0.0,0.0,0.0,0.0,0.0,0.0,0.0,0.0,0.0,0.0,0.0,0.0,0.0,0.0,0.0,0.0,0.0,0.0,0.0,0.0,0.0,0.0,0.0,-1.1543,0.0,0.0,-1.0332,0.0,0.0,0.0,0.0,0.0,0.0,0.0,0.0,0.0,0.0,0.0,0.0,0.0,0.0,0.0,0.0,0.0,0.0,0.0,0.0,0.0,0.0,-1.6652,-1.9145,-2.1713,-2.3823,-2.5438,-2.5495,-2.5486,-2.5467,-2.3888,-2.2175,-2.0373,0.0,0.0,0.0,0.0,0.0,0.0,0.0,0.0,0.0,0.0,0.0,0.0,0.0,0.0,0.0,0.0,0.0,0.0,0.0,0.0,0.0,0.0,0.0,0.0,0.0,0.0,-1.0312,-1.0312,-1.0312,0.0,0.0,0.0,0.0,0.0,0.0,0.0,0.0,0.0,0.0,-2.3811,-2.4696,-2.5581,-2.5703,-2.5703,-2.5703,-2.5703,-2.5703,-2.5703,-2.5586,-2.4985,0.0,0.0,0.0,0.0,0.0,0.0,0.0,0.0,0.0,0.0,0.0,0.0,0.0,0.0,0.0,0.0,0.0,0.0,0.0,0.0,0.0,0.0,0.0,0.0,0.0,0.0,0.0,-1.4589,-1.3984,0.0,0.0,0.0,0.0,0.0,0.0,0.0,0.0,0.0,0.0,0.0,-1.9154,-1.9993,0.0,0.0,0.0,0.0,0.0,0.0,0.0,0.0,0.0,0.0,0.0,0.0,-1.7093,-1.9104,-2.2163,-2.4255,-2.5332,-2.537,-2.537,-2.5351,-2.4293,-2.2389,-1.955,0.0,0.0,0.0,0.0,0.0,0.0,0.0,0.0,0.0,0.0,0.0,0.0,0.0,0.0,0.0,0.0,0.0,0.0,0.0,0.0,0.0,0.0,0.0,0.0,0.0,-1.0312,0.0,0.0,0.0,0.0,0.0,0.0,0.0,0.0,0.0,0.0,0.0,-2.2339,-2.3785,-2.4715,-2.5373,-2.5644,-2.5703,-2.5703,0.0,0.0,0.0,0.0,0.0,0.0,0.0,0.0,0.0,0.0,0.0,0.0,0.0,0.0,-2.1996,-1.9209,-1.7987,-1.754,-1.8107,0.0,0.0,0.0,0.0,0.0,0.0,0.0,0.0,0.0,0.0,0.0,0.0,0.0,0.0,-1.7321,0.0,-1.584,0.0,0.0,0.0,0.0,0.0,0.0,0.0,0.0,-2.0521,-2.1446,-2.1713,-2.2566,-2.2508,0.0,-2.1397,-1.9694,0.0,0.0,0.0,0.0,0.0,0.0,0.0,0.0,-1.7916,-1.9924,-2.2662,-2.4495,-2.5245,-2.5313,-2.5313,-2.5284,-2.4514,-2.2621,-1.955,-1.756,-1.5605,0.0,0.0,0.0,0.0,0.0,0.0,0.0,0.0,0.0,0.0,0.0,0.0,0.0,0.0,0.0,0.0,0.0,0.0,0.0,0.0,0.0,0.0,0.0,-1.0312,0.0,0.0,0.0,0.0,0.0,0.0,0.0,0.0,0.0,-1.9297,-2.1772,-2.3988,-2.5148,-2.5527,-2.5801,-2.6094,0.0,0.0,0.0,0.0,0.0,0.0,0.0,-2.576,-2.5761,-2.4993,-2.4191,-2.3584,-2.4207,-2.4688,-2.4389,0.0,0.0,-2.1914,-2.0673,-2.0241,-2.0797,-2.1339,-2.1694,-2.1658,-2.2312,-2.2735,0.0,0.0,0.0,0.0,0.0,0.0,0.0,0.0,-1.9771,-1.9836,0.0,-1.8717,0.0,0.0,0.0,0.0,0.0,-2.0099,0.0,0.0,-2.3899,-2.4995,-2.4236,-2.4928,-2.4909,-2.4197,-2.4832,-2.3976,-2.1568,-1.8368,0.0,0.0,0.0,0.0,0.0,0.0,-1.9153,-2.1579,-2.3285,-2.4514,-2.5264,-2.5313,-2.5313,-2.5284,-2.4514,-2.293,-2.0515,-1.9492,-1.7879,-1.5382,-1.2906,0.0,0.0,0.0,0.0,0.0,0.0,0.0,0.0,0.0,0.0,0.0,0.0,0.0,0.0,0.0,0.0,0.0,0.0,0.0,0.0,-1.0352,0.0,0.0,0.0,0.0,0.0,0.0,0.0,0.0,0.0,0.0,-2.1992,-2.3457,-2.5098,-2.6758,0.0,0.0,0.0,0.0,-2.6094,-2.6934,-2.7031,-2.7324,-2.8144,-2.8262,-2.8242,-2.8242,0.0,0.0,-2.4824,-2.5234,-2.5554,-2.4697,-2.532,-2.5742,-2.5508,-2.4687,-2.4199,-2.4223,-2.4193,-2.4289,-2.4282,-2.4687,-2.5255,-2.5732,0.0,0.0,0.0,0.0,-2.3669,-2.4497,-2.5749,-2.4909,-2.3962,-2.2976,-2.1866,0.0,0.0,0.0,0.0,0.0,0.0,-2.3399,-2.4907,-2.5851,-2.6111,-2.5899,-2.6111,-2.5784,-2.4986,-2.5207,-2.4937,-2.4197,-2.2692,-2.0407,-1.7458,0.0,0.0,0.0,0.0,-2.1158,-2.248,-2.4101,-2.5072,-2.5293,-2.5313,-2.5313,-2.5293,-2.4514,-2.3477,-2.2115,-2.0702,-1.9012,-1.7063,-1.5139,0.0,0.0,0.0,0.0,0.0,0.0,0.0,0.0,0.0,0.0,0.0,0.0,0.0,0.0,0.0,0.0,0.0,0.0,0.0,-1.1172,-1.123,-1.1973,0.0,0.0,0.0,0.0,0.0,0.0,0.0,0.0,0.0,-2.4531,-2.5566,-2.6445,0.0,0.0,-2.7422,-2.707,-2.7324,-2.7637,-2.7891,-2.793,0.0,-2.8262,-2.8281,-2.8281,-2.8281,-2.8086,-2.7754,-2.7266,-2.7383,-2.7479,-2.7187,-2.7398,-2.7344,-2.668,-2.584,-2.5273,-2.5227,-2.5172,-2.5149,-2.5156,-2.534,-2.5484,-2.9946,-2.763,-2.7522,-2.7277,-2.6971,-2.6943,-2.7322,-2.7932,-2.7399,-2.6771,-2.6041,-2.5184,-2.3992,-2.2545,-2.1684,0.0,0.0,0.0,-2.5714,-2.7185,-2.7123,-2.7113,-2.7112,-2.7112,-2.6833,-2.6323,-2.5986,-2.5813,-2.5813,-2.4986,-2.314,-2.0348,0.0,0.0,-1.981,-2.1301,-2.2494,-2.3323,-2.461,-2.5313,-2.5313,-2.5313,-2.5313,-2.5293,-2.4812,-2.4015,-2.2825,-2.1823,-2.035,-1.8302,-1.6917,-1.521,0.0,0.0,0.0,0.0,0.0,0.0,0.0,0.0,0.0,0.0,0.0,-0.9368,0.0,0.0,0.0,0.0,-1.1549,-1.2129,-1.2988,-1.3672,0.0,0.0,0.0,0.0,0.0,0.0,0.0,-2.2461,-2.459,-2.6269,-2.7148,-2.7695,-2.8027,-2.8027,-2.8184,-2.8242,-2.8066,0.0,-2.8418,-2.8769,-2.8828,-2.8945,-2.9277,-2.9336,-2.9219,-2.8867,-2.8809,-2.8652,-2.834,-2.8281,-2.8281,-2.8281,-2.8281,-2.8144,-2.7617,-2.7031,-2.6406,-2.5781,-2.5615,-2.5573,-2.5551,-2.558,-2.5574,-3.3103,-3.2987,-3.1507,-3.0343,-2.949,-2.9417,-2.8978,-2.8324,-2.8324,-2.8648,-2.9133,-2.8418,-2.8033,-2.7849,-2.7072,0.0,-2.6832,-2.764,-2.8005,-2.8102,-2.8082,-2.8074,-2.8007,-2.7997,-2.7967,-2.7892,-2.7082,-2.6717,-2.6659,-2.5832,-2.5043,-2.4264,-2.262,-2.2158,-2.2859,-2.2951,-2.3377,-2.4197,-2.4908,-2.5313,-2.5313,-2.5313,-2.5313,-2.5313,-2.5255,-2.4438,-2.2892,-2.2725,-2.1594,-1.9235,-1.8263,-1.7075,-1.5439,0.0,0.0,0.0,0.0,0.0,0.0,0.0,0.0,0.0,0.0,0.0,0.0,0.0,0.0,0.0,-1.38,0.0,-1.5524,-1.6989,0.0,0.0,0.0,-1.992,-2.0976,-2.3184,-2.4941,-2.5801,0.0,0.0,-2.9492,-2.9668,-2.9707,-2.9707,-2.9004,-2.8769,-2.9492,-2.8984,-2.8789,-2.959,-2.9687,-2.998,-3.0605,-3.0762,-3.0508,-2.9844,-2.9707,-2.9434,-2.8789,-2.8594,-2.8535,-2.8613,-2.8516,-2.8496,-2.8437,-2.8359,-2.7891,-2.6289,-2.5977,-2.5937,-2.5957,-2.5898,-2.584,-3.4891,-3.4839,-3.4474,-3.3436,-3.2013,-3.2006,-3.1877,-3.1727,-3.1691,-3.1109,-3.009,-2.9898,-2.9121,-2.7879,-2.7698,-2.7928,-2.8506,-2.8717,-2.9179,-2.9783,-2.9813,-2.9448,-2.8844,-2.881,-2.8491,-2.7907,-2.7698,-2.7582,-2.7544,-2.6717,-2.6197,-2.5967,-2.4928,-2.4187,-2.3829,-2.4389,-2.4793,-2.5014,-2.5187,-2.5313,-2.5313,-2.5313,-2.5313,-2.5293,-2.4697,-2.389,-2.2825,-2.2162,-2.1265,-2.0046,-1.9158,-1.8198,-1.7138,-1.4714,0.0,0.0,0.0,0.0,0.0,0.0,0.0,0.0,0.0,-1.4018,-1.1692,0.0,-1.5605,0.0,-1.6396,-1.7265,-1.8131,-1.8551,0.0,0.0,-2.1936,-2.2908,-2.5156,-2.5937,-2.666,-2.7559,-2.8633,-2.9375,-2.959,-3.0176,-3.0586,-3.0586,-3.0391,-3.0117,-2.9707,-3.0039,-3.0351,-3.0527,-3.0566,-3.0644,-3.084,-3.0918,-3.082,-3.0644,-3.0586,-3.0508,-3.0312,-3.0293,-3.0293,-3.0273,-3.0293,-3.0039,-2.9394,-2.9297,-2.8906,-2.7949,-2.7676,-2.7695,-2.7656,-2.7148,-2.668,-3.5507,-3.5507,-3.5507,-3.4949,-3.4026,-3.366,-3.325,-3.2909,-3.2904,-3.2378,-3.1527,-3.1501,-3.1013,-3.0121,-2.9756,-2.9833,-3.0217,-2.9852,-2.9929,-3.0379,-3.0398,-3.014,-2.9679,-2.9675,-2.9444,-2.9002,-2.8621,-2.8429,-2.8371,-2.7582,-2.7178,-2.7178,-2.6697,-2.6034,-2.5254,-2.5284,-2.5313,-2.5313,-2.5313,-2.5313,-2.5313,-2.5313,-2.5313,-2.5313,-2.487,-2.4053,-2.2844,-2.2324,-2.1361,-1.9807,-1.9254,-1.86,-1.7715,-1.6022,-1.4857,0.0,0.0,0.0,0.0,0.0,0.0,0.0,0.0,0.0,0.0,0.0,-1.7638,-1.7663,-1.8763,-1.9811,-2.0719,-2.179,-2.3035,-2.45,-2.4954,-2.5764,-2.7301,-2.7761,-2.8176,-2.8686,-2.9506,-3.0035,-3.0055,-3.0465,-3.0788,-3.0801,-3.082,-3.0644,-3.0312,-3.0605,-3.0918,-3.0918,-3.0918,-3.0918,-3.0918,-3.0918,-3.0918,-3.0918,-3.0918,-3.0918,-3.0918,-3.0918,-3.0918,-3.0918,-3.0918,-3.0762,-3.0273,-3.0176,-3.0,-2.9629,-2.9453,-2.918,-2.8457,-2.793,-2.75,-3.5507,-3.5507,-3.5507,-3.5507,-3.5449,-3.468,-3.393,-3.3237,-3.3237,-3.3173,-3.3042,-3.2935,-3.2885,-3.2872,-3.2179,-3.1852,-3.1814,-3.0968,-3.0583,-3.0564,-3.0448,-3.0398,-3.0398,-3.0398,-3.0398,-3.0359,-2.9621,-2.9256,-2.9236,-2.8448,-2.8044,-2.8044,-2.7948,-2.7477,-2.6602,-2.5842,-2.5409,-2.5313,-2.5313,-2.5313,-2.5313,-2.5313,-2.5313,-2.5293,-2.5091,-2.4303,-2.288,-2.2697,-2.1609,-1.9475,-1.9424,-1.9083,-1.8222,-1.7311,-1.6759,0.0,-1.584,0.0,0.0,0.0,0.0,0.0,0.0,0.0,0.0,-1.9476,-1.9638,-1.9564,-2.1146,-2.2485,-2.3314,-2.5428,-2.6794,-2.6876,-2.7616,-2.8157,-2.8257,-2.8962,-2.9454,-2.9473,-3.014,-3.0614,-3.0568,-3.0614,-3.0628,-3.0684,-3.0703,-3.0723,-3.082,-3.0859,-3.0918,-3.0918,-3.0918,-3.0918,-3.0918,-3.0918,-3.0918,-3.0918,-3.0918,-3.0918,-3.0918,-3.0918,-3.0918,-3.0918,-3.0918,-3.0898,-3.0898,-3.0898,-3.0898,-3.0781,-3.0762,-3.0332,-2.9121,-2.8594,-2.8223,-3.5507,-3.5507,-3.5507,-3.5507,-3.5488,-3.5334,-3.518,-3.5007,-3.5007,-3.4609,-3.3897,-3.3205,-3.291,-3.2891,-3.2737,-3.2679,-3.2622,-3.1833,-3.1468,-3.141,-3.0725,-3.0398,-3.0398,-3.0398,-3.0398,-3.0379,-3.0225,-3.0148,-3.0129,-2.9275,-2.8882,-2.8852,-2.8217,-2.7456,-2.6638,0.0,0.0,0.0,-2.5313,-2.5313,-2.5313,-2.5313,-2.5313,-2.5264,-2.3966,0.0,-2.2786,-2.2123,-2.1545,-2.1075,-2.1699,0.0,0.0,0.0,0.0,0.0,0.0,0.0,0.0,0.0,0.0,0.0,-2.003,-2.0254,-2.0119,-2.1938,-2.2852,-2.2238,-2.4236,-2.5717,-2.588,-2.6949,-2.7661,-2.7697,-2.8399,-2.8921,-2.8994,-2.9743,-3.0295,-3.0372,-3.0488,-3.0614,-3.0606,-3.0604,-3.0597,-3.0606,-3.0611,-3.0644,-3.0742,-3.084,-3.0918,-3.0918,-3.0918,-3.0918,-3.0918,-3.0918,-3.0918,-3.0918,-3.0918,-3.0918,-3.0918,-3.0918,-3.0918,-3.0918,-3.0918,-3.0918,-3.0918,-3.0918,-3.0918,-3.0918,-3.0918,-3.0801,-3.0469,-2.9844,-2.9316,-3.5853,-3.5507,-3.5507,-3.5507,0.0,-3.5507,-3.5507,-3.5507,-3.5507,-3.5238,-3.4814,-3.4372,-3.418,-3.4147,-3.3604,-3.335,-3.3293,-3.2333,-3.1889,-3.1848,-3.1034,-3.066,-3.0641,-3.0232,-3.0098,-3.0194,-3.0196,-3.0286,-3.0379,-2.9967,-2.9737,-2.9737,-2.9333,-2.8706,-2.7827,-2.7016,-2.616,-2.5313,-2.5313,-2.5313,-2.5303,-2.5203,-2.5152,-2.5133,-2.4282,0.0,0.0,0.0,0.0,0.0,0.0,0.0,0.0,0.0,0.0,-2.0227,-1.9841,-1.9607,-1.9637,-2.0421,-2.1263,-2.2115,-2.292,-2.3043,-2.2235,-2.3735,-2.4678,-2.4716,-2.586,-2.6774,-2.7218,-2.8009,-2.8489,-2.8526,-2.9248,-2.9752,-2.9833,-3.0179,-3.0448,-3.0487,-3.0487,-3.0506,-3.0487,-3.0506,-3.0525,-3.0537,-3.0554,-3.0611,-3.0642,-3.0723,-3.082,-3.0879,-3.0918,-3.0918,-3.0918,-3.0918,-3.0918,-3.0918,-3.0918,-3.0918,-3.0918,-3.0918,-3.0918,-3.0918,-3.0918,-3.0918,-3.0918,-3.0918,-3.0918,-3.0918,-3.0918,-3.0918,-3.0898,-3.0547,-3.0098,-3.6444,-3.5718,-3.5705,-3.5641,-3.5507,-3.5507,-3.5507,-3.5507,0.0,0.0,0.0,-3.5507,-3.5507,-3.5435,-3.4508,-3.4069,-3.3963,-3.29,-3.2374,-3.2298,-3.1497,-3.1111,-3.1053,-3.0286,-3.0021,-3.0222,-3.0056,-3.0122,-3.0323,-3.0323,-3.0311,-3.0286,-3.0286,-2.9787,-2.8795,-2.7294,-2.6121,-2.5351,-2.5313,-2.5313,-2.5303,-2.5122,-2.5065,-2.5046,-2.4771,-2.4284,-2.3592,-2.3669,-2.3083,-2.1719,-2.1924,-2.2055,-2.1912,-2.1938,-2.2213,-2.2728,-2.2929,-2.303,-2.3026,-2.316,-2.3544,-2.4274,-2.4928,-2.5024,-2.4351,-2.4909,-2.5649,-2.6544,-2.6736,-2.7178,-2.8035,-2.8854,-2.9344,-2.9337,-2.9963,-3.0379,-3.0379,-3.0398,-3.0398,-3.0398,-3.0398,-3.0456,-3.0648,-3.0667,-3.0706,-3.0891,-3.1072,-3.0883,-3.0824,-3.0782,-3.0723,-3.082,-3.084,-3.0859,-3.0879,-3.0898,-3.0918,-3.0918,-3.0918,-3.0918,-3.0918,-3.0918,-3.0918,-3.0918,-3.0918,-3.0918,-3.0918,-3.0918,-3.0918,-3.0918,-3.0918,-3.0918,-3.0918,-3.0918,-3.0664,-3.731,-3.6526,-3.6526,-3.6142,-3.5507,-3.5507,-3.5507,-3.5507,-3.5474,-3.5507,-3.5507,-3.5507,-3.5507,-3.5493,-3.5345,-3.5147,-3.4857,-3.3985,-3.3447,-3.3164,-3.2354,-3.1916,-3.1889,-3.11,-3.0878,-3.1059,-3.0354,-3.0013,-3.0061,-3.0042,-2.9988,-2.9832,-2.9799,-2.9125,-2.775,-2.6764,-2.5938,-2.5313,-2.5313,-2.5313,-2.5303,-2.5274,-2.5264,-2.5215,-2.4404,-2.391,-2.3755,-2.3644,-2.3442,-2.3224,-2.4033,-2.4197,-2.3556,-2.3621,-2.3456,-2.2906,-2.3501,-2.3907,-2.3948,-2.4572,-2.4995,-2.5111,-2.5226,-2.5245,-2.5159,-2.5236,-2.5668,-2.6524,-2.7274,-2.8055,-2.8865,-2.9671,-3.016,-3.0186,-3.0302,-3.0398,-3.0398,-3.0398,-3.0398,-3.0398,-3.0398,-3.0725,-3.1314,-3.1487,-3.1756,-3.2314,-3.23,-3.2305,-3.1734,-3.1067,-3.0681,-3.0637,-3.0689,-3.0723,-3.0762,-3.084,-3.0898,-3.0918,-3.0918,-3.0918,-3.0918,-3.0918,-3.0918,-3.0918,-3.0918,-3.0918,-3.0918,-3.0918,-3.0918,-3.0918,-3.0918,-3.0918,-3.0918,-3.0918,-3.084,-3.7907,-3.7152,-3.6973,-3.6462,-3.568,-3.5239,-3.507,-3.5088,-3.507,-3.5242,-3.5479,-3.5335,-3.5289,-3.5273,-3.5141,-3.4907,-3.4597,-3.4201,-3.3864,-3.3571,-3.2762,-3.2354,-3.2288,-3.1556,-3.1075,-3.0893,-3.0528,-3.0146,-2.9867,-2.9829,-2.9845,-2.9864,-2.9859,-2.929,-2.824,-2.767,-2.683,-2.5729,-2.5433,-2.5313,-2.5303,-2.5203,-2.5107,-2.5024,-2.4575,-2.4228,-2.4052,-2.4148,-2.4157,-2.4035,-2.4572,-2.4759,-2.4484,-2.4553,-2.4445,-2.4188,-2.4514,-2.4755,-2.4755,-2.5091,-2.5313,-2.5313,-2.5313,-2.5313,-2.5313,-2.5736,-2.637,-2.7236,-2.8063,-2.8901,-2.9709,-3.016,-3.0398,-3.0398,-3.0398,-3.0398,-3.0398,-3.0398,-3.0398,-3.0436,-3.0833,-3.1256,-3.1641,-3.2083,-3.2429,-3.2852,-3.2916,-3.2788,-3.259,-3.223,-3.1634,-3.0975,-3.0785,-3.0808,-3.082,-3.0859,-3.0918,-3.0918,-3.0918,-3.0918,-3.0918,-3.0918,-3.0918,-3.0918,-3.0918,-3.0918,-3.0918,-3.0918,-3.0918,-3.0918,-3.0918,-3.0918,-3.0918,-3.0918,-3.0918,-3.8461,-3.768,-3.7454,-3.6914,-3.6109,-3.5503,-3.5145,-3.498,-3.4988,-3.5097,-3.5264,-3.5107,-3.4999,-3.4981,-3.4793,-3.4529,-3.4242,-3.4218,-3.4049,-3.376,-3.3158,-3.2875,-3.2775,-3.2055,-3.1411,-3.0886,-3.0702,-3.0278,-2.9701,-2.9644,-2.9678,-2.978,-2.9786,-2.9398,-2.8652,-2.8445,-2.7651,-2.6314,-2.5715,-2.5386,-2.5243,-2.5069,-2.4962,-2.4929,-2.4869,-2.4689,-2.442,-2.4648,-2.4698,-2.4524,-2.4706,-2.4842,-2.4872,-2.4955,-2.5069,-2.5235,-2.5264,-2.5313,-2.5313,-2.5313,-2.5313,-2.5313,-2.5313,-2.538,-2.564,-2.639,-2.7159,-2.7871,-2.8593,-2.9429,-3.0179,-3.0379,-3.0398,-3.0398,-3.0398,-3.0398,-3.0398,-3.0398,-3.0398,-3.0475,-3.116,-3.1737,-3.2064,-3.2679,-3.3295,-3.3526,-3.3487,-3.348,-3.3415,-3.3372,-3.2805,-3.1899,-3.1441,-3.1516,-3.1445,-3.1504,-3.1465,-3.1269,-3.123,-3.1152,-3.1055,-3.0918,-3.0918,-3.0918,-3.0918,-3.0918,-3.0918,-3.0918,-3.0918,-3.0918,-3.0918,-3.0918,-3.0918,-3.0918,-3.0918,-3.9014,-3.8278,-3.8177,-3.7725,-3.6968,-3.6857,-3.6386,-3.5795,-3.5776,-3.5386,-3.4773,-3.4749,-3.4714,-3.4734,-3.4694,-3.4508,-3.4218,-3.4218,-3.4068,-3.3834,-3.3733,-3.3697,-3.3578,-3.2875,-3.2206,-3.163,-3.0936,-3.0211,-2.9451,-2.9434,-2.9312,-2.9126,-2.9101,-2.8839,-2.8239,-2.8165,-2.7772,-2.709,-2.6316,-2.5649,-2.5056,-2.501,-2.5096,-2.5253,-2.5065,-2.4977,-2.4885,-2.4845,-2.4727,-2.4541,-2.4671,-2.4727,-2.4631,-2.4812,-2.5011,-2.5033,-2.5207,-2.5313,-2.5313,-2.5313,-2.5313,-2.5313,-2.5341,-2.5668,-2.639,-2.7274,-2.7813,-2.8063,-2.867,-2.9525,-3.0263,-3.0398,-3.0398,-3.0398,-3.0398,-3.0398,-3.0398,-3.0398,-3.0398,-3.0398,-3.1256,-3.1987,-3.2718,-3.3545,-3.4353,-3.4911,-3.493,-3.4762,-3.4312,-3.4211,-3.4017,-3.3304,-3.3083,-3.3051,-3.2984,-3.3126,-3.2715,-3.2187,-3.207,-3.1797,-3.1348,-3.1035,-3.0918,-3.0918,-3.0918,-3.0918,-3.0918,-3.0918,-3.0918,-3.0918,-3.0918,-3.0918,-3.0918,-3.0918,-3.0918,-3.9107,-3.8758,-3.8625,-3.8071,-3.7328,-3.6842,-3.6143,-3.5392,-3.5356,-3.4924,-3.4222,-3.4173,-3.426,-3.4401,-3.4401,-3.426,-3.3986,-3.4123,-3.4043,-3.3834,-3.3807,-3.3807,-3.3752,-3.3505,-3.2716,-3.1629,-3.1236,-3.0415,-2.9385,-2.9291,-2.9351,-2.9251,-2.9233,-2.9101,-2.8872,-2.8706,-2.8283,-2.757,-2.7226,-2.6541,-2.5512,-2.5055,-2.4923,-2.5006,-2.4986,-2.4967,-2.4892,-2.4896,-2.479,-2.454,-2.4598,-2.4616,-2.4673,-2.4814,-2.4974,-2.5148,-2.5245,-2.5313,-2.5313,-2.5313,-2.5313,-2.5313,-2.5793,-2.6236,-2.6621,-2.7832,-2.8602,-2.8698,-2.939,-3.0044,-3.034,-3.0398,-3.0398,-3.0398,-3.0398,-3.0398,-3.0398,-3.0398,-3.0552,-3.1102,-3.1891,-3.2718,-3.3564,-3.443,-3.5064,-3.5449,-3.5507,-3.532,-3.5089,-3.507,-3.5008,-3.4891,-3.4843,-3.436,-3.3691,-3.3378,-3.3242,-3.3027,-3.291,-3.2617,-3.1914,-3.166,-3.1543,-3.1035,-3.0996,-3.0976,-3.0918,-3.0918,-3.0918,-3.0918,-3.0918,-3.0918,-3.0918,-3.0918,-3.0918,-3.898,-3.8961,-3.8773,-3.8358,-3.779,-3.7216,-3.6501,-3.5713,-3.5467,-3.4871,-3.4127,-3.388,-3.3902,-3.4074,-3.4074,-3.3986,-3.3823,-3.4012,-3.3986,-3.3834,-3.3807,-3.3807,-3.3807,-3.3807,-3.2963,-3.1623,-3.1384,-3.0577,-2.9163,-2.92,-2.9289,-2.9272,-2.9286,-2.9289,-2.9288,-2.9086,-2.8732,-2.8169,-2.7944,-2.7288,-2.6302,-2.5403,-2.4911,-2.4823,-2.4943,-2.4943,-2.486,-2.4968,-2.4878,-2.4582,-2.452,-2.4579,-2.4704,-2.4775,-2.4936,-2.5253,-2.5313,-2.5313,-2.5313,-2.5313,-2.5399,-2.5668,-2.6264,-2.6813,-2.739,-2.8409,-2.9159,-2.9486,-3.0044,-3.0359,-3.0398,-3.0398,-3.0398,-3.0398,-3.0398,-3.0398,-3.0398,-3.0398,-3.0725,-3.1583,-3.2314,-3.3333,-3.4334,-3.5064,-3.5468,-3.5488,-3.5507,-3.5507,-3.5565,-3.5545,-3.5584,-3.5784,-3.5801,-3.5376,-3.4336,-3.4238,-3.4062,-3.3769,-3.375,-3.3476,-3.2734,-3.2559,-3.2246,-3.1719,-3.1406,-3.1094,-3.0957,-3.0918,-3.0918,-3.0918,-3.0918,-3.0918,-3.0918,-3.0918,-3.0918,-3.8707,-3.8719,-3.8707,-3.867,-3.8634,-3.856,-3.8077,-3.7174,-3.6552,-3.5754,-3.4852,-3.4164,-3.3834,-3.3842,-3.3842,-3.3834,-3.3807,-3.3815,-3.3842,-3.3807,-3.3807,-3.3807,-3.3807,-3.3788,-3.2981,-3.1604,-3.1513,-3.065,-2.9145,-2.9017,-2.9017,-2.9021,-2.9048,-2.9026,-2.903,-2.9003,-2.8957,-2.8787,-2.8205,-2.7771,-2.7497,-2.616,-2.5281,-2.4972,-2.493,-2.4977,-2.4983,-2.4995,-2.4916,-2.4785,-2.4595,-2.4506,-2.4547,-2.4716,-2.4962,-2.5253,-2.5313,-2.5313,-2.5351,-2.538,-2.5707,-2.6397,-2.6706,-2.7294,-2.8582,-2.9044,-2.9506,-3.0256,-3.0302,-3.0398,-3.0398,-3.0398,-3.0398,-3.0398,-3.0398,-3.0398,-3.0398,-3.0398,-3.0782,-3.166,-3.2602,-3.3718,-3.518,-3.5468,-3.5507,-3.5507,-3.5507,-3.5507,-3.5507,-3.5526,-3.5565,-3.5618,-3.5708,-3.5723,-3.5801,-3.5469,-3.5215,-3.4941,-3.457,-3.4355,-3.3789,-3.3262,-3.2832,-3.2402,-3.209,-3.168,-3.1152,-3.0918,-3.0918,-3.0918,-3.0918,-3.0918,-3.0918,-3.0918,-3.0918,-3.8707,-3.8707,-3.8707,-3.8707,-3.8707,-3.8707,-3.8242,-3.7503,-3.7221,-3.6278,-3.511,-3.4679,-3.4302,-3.3807,-3.3807,-3.3807,-3.3807,-3.3807,-3.3807,-3.3807,-3.3807,-3.3807,-3.3807,-3.3807,-3.3266,-3.2316,-3.2148,-3.1347,-2.9843,-2.9274,-2.8975,-2.8975,-2.8975,-2.8975,-2.8975,-2.8975,-2.8975,-2.8957,-2.8695,-2.8329,-2.7842,-2.7218,-2.6624,-2.595,-2.5115,-2.4731,-2.486,-2.4851,-2.4796,-2.4611,-2.4543,-2.4542,-2.4723,-2.4962,-2.516,-2.5293,-2.5313,-2.5543,-2.6034,-2.613,-2.6504,-2.7341,-2.7928,-2.8371,-2.9044,-2.9583,-3.0063,-3.0333,-3.0398,-3.0398,-3.0398,-3.0398,-3.0398,-3.0398,-3.0398,-3.0398,-3.0398,-3.0417,-3.091,-3.2295,-3.3641,-3.4872,-3.5238,-3.5507,-3.5507,-3.5507,-3.5507,-3.5507,-3.5507,-3.5507,-3.5526,-3.5597,-3.5642,-3.5704,-3.5898,-3.5957,-3.5859,-3.5703,-3.5449,-3.5039,-3.4551,-3.4277,-3.3906,-3.3144,-3.2773,-3.2266,-3.1719,-3.1074,-3.1035,-3.0918,-3.0918,-3.0918,-3.0918,-3.0918,-3.0918,-3.8707,-3.8707,-3.8707,-3.8707,-3.8707,-3.8707,-3.8401,-3.7863,-3.7594,-3.6728,-3.5561,-3.5156,-3.4578,-3.3899,-3.3807,-3.3807,-3.3807,-3.3807,-3.3807,-3.3807,-3.3807,-3.3807,-3.3807,-3.3807,-3.3368,-3.2655,-3.2305,-3.1494,-3.0301,-2.9659,-2.9269,-2.9012,-2.8975,-2.8975,-2.8975,-2.8975,-2.8975,-2.8975,-2.8975,-2.87,-2.8209,-2.7915,-2.7567,-2.6909,-2.5799,-2.512,-2.5114,-2.508,-2.4888,-2.4561,-2.4506,-2.4617,-2.4869,-2.5149,-2.5313,-2.5313,-2.5313,-2.5688,-2.6448,-2.6608,-2.7086,-2.8157,-2.8756,-2.9171,-2.9506,-3.0063,-3.034,-3.0398,-3.0398,-3.0398,-3.0398,-3.0398,-3.0398,-3.0398,-3.0398,-3.0398,-3.0417,-3.066,-3.1621,-3.3103,-3.4526,-3.5353,-3.5507,-3.5507,-3.5507,-3.5507,-3.5507,-3.5507,-3.5507,-3.5507,-3.5507,-3.5565,-3.5584,-3.5654,-3.5756,-3.582,-3.5957,-3.5859,-3.582,-3.5527,-3.5332,-3.5137,-3.4766,-3.3984,-3.3359,-3.2832,-3.2187,-3.1465,-3.1152,-3.1016,-3.0918,-3.0918,-3.0918,-3.0918,-3.0937,-3.8707,-3.8707,-3.8707,-3.8707,-3.8707,-3.8707,-3.8707,-3.8505,-3.7881,-3.711,-3.6266,-3.5485,-3.4816,-3.4009,-3.3954,-3.3862,-3.3807,-3.3807,-3.3807,-3.3807,-3.3807,-3.3807,-3.3807,-3.3807,-3.3441,-3.2729,-3.1847,-3.1072,-3.0338,-3.0136,-2.9732,-2.9127,-2.8975,-2.8975,-2.8975,-2.8975,-2.8975,-2.8975,-2.8975,-2.8957,-2.8906,-2.8282,-2.7879,-2.7732,-2.7037,-2.6385,-2.5801,-2.5684,-2.5289,-2.4671,-2.4578,-2.469,-2.5069,-2.5231,-2.5322,-2.5399,-2.537,-2.5784,-2.6583,-2.6817,-2.7589,-2.8787,-2.9167,-2.9544,-3.0121,-3.0321,-3.0398,-3.0398,-3.0398,-3.0398,-3.0398,-3.0398,-3.0398,-3.0398,-3.0475,-3.0552,-3.0648,-3.1256,-3.2333,-3.3833,-3.4949,-3.5449,-3.5507,-3.5507,-3.5507,-3.5507,-3.5507,-3.5507,-3.5507,-3.5507,-3.5507,-3.5526,-3.5545,-3.5611,-3.5635,-3.5664,-3.582,-3.5918,-3.5937,-3.582,-3.5781,-3.5644,-3.5391,-3.4766,-3.4297,-3.375,-3.2695,-3.2031,-3.1699,-3.1523,-3.1269,-3.1211,-3.1211,-3.1269,-3.1035,-3.8707,-3.8707,-3.8707,-3.8707,-3.8707,-3.8707,-3.8707,-3.8689,-3.8414,-3.7869,-3.7168,-3.6842,-3.5954,-3.4871,-3.4633,-3.4321,-3.3844,-3.3807,-3.3807,-3.3807,-3.3807,-3.3807,-3.3807,-3.3807,-3.3697,-3.334,-3.2606,-3.1825,-3.1072,-3.0485,-2.9787,-2.9122,-2.8994,-2.8975,-2.8975,-2.8975,-2.8975,-2.8975,-2.8975,-2.8975,-2.8975,-2.8778,-2.8631,-2.8613,-2.8393,-2.7912,-2.7156,-2.6097,-2.5478,-2.5333,-2.5317,-2.5504,-2.5749,-2.5499,-2.5591,-2.612,-2.6188,-2.6853,-2.8106,-2.8321,-2.8737,-2.9733,-2.9975,-3.0102,-3.034,-3.0398,-3.0398,-3.0398,-3.0398,-3.0398,-3.0398,-3.0398,-3.0417,-3.0398,-3.0924,-3.127,-3.1501,-3.2513,-3.3526,-3.4141,-3.4988,-3.5449,-3.5507,-3.5507,-3.5507,-3.5507,-3.5507,-3.5507,-3.5507,-3.5507,-3.5507,-3.5507,-3.5526,-3.5545,-3.5586,-3.5616,-3.5699,-3.5836,-3.5898,-3.5957,-3.5976,-3.5976,-3.5762,-3.5488,-3.5059,-3.4394,-3.3359,-3.2715,-3.2363,-3.2422,-3.2519,-3.2285,-3.1914,-3.166,-3.1445,-3.8707,-3.8707,-3.8707,-3.8707,-3.8707,-3.8707,-3.8707,-3.8707,-3.8707,-3.8261,-3.7595,-3.7484,-3.6578,-3.5275,-3.499,-3.4559,-3.3862,-3.3807,-3.3807,-3.3807,-3.3807,-3.3807,-3.3807,-3.3807,-3.3807,-3.3733,-3.3293,-3.2632,-3.1825,-3.1035,-3.0228,-2.9567,-2.9163,-2.8975,-2.8975,-2.8975,-2.8975,-2.8975,-2.8975,-2.8975,-2.8975,-2.8975,-2.8975,-2.8975,-2.8975,-2.8732,-2.8192,-2.6958,-2.6228,-2.6155,-2.6019,-2.6089,-2.6324,-2.5742,-2.5687,-2.639,-2.6708,-2.7305,-2.8839,-2.9025,-2.9471,-3.0186,-3.0398,-3.0379,-3.0398,-3.0398,-3.0398,-3.0398,-3.0398,-3.0398,-3.0398,-3.0398,-3.0525,-3.0883,-3.134,-3.1962,-3.2539,-3.3526,-3.4295,-3.468,-3.5199,-3.543,-3.5507,-3.5507,-3.5507,-3.5507,-3.5507,-3.5507,-3.5507,-3.5507,-3.5507,-3.5507,-3.5507,-3.5526,-3.5545,-3.5578,-3.5597,-3.5698,-3.582,-3.5898,-3.5937,-3.5996,-3.5879,-3.5644,-3.5273,-3.4785,-3.3848,-3.3398,-3.3047,-3.3359,-3.3516,-3.2871,-3.2305,-3.2109,-3.1816,-3.8707,-3.8707,-3.8707,-3.8707,-3.8707,-3.8707,-3.8707,-3.8707,-3.8707,-3.8273,-3.7607,-3.7503,-3.6578,-3.5265,-3.499,-3.4559,-3.3899,-3.3807,-3.3807,-3.3807,-3.3807,-3.3807,-3.3807,-3.3807,-3.3807,-3.3807,-3.3733,-3.3293,-3.2449,-3.1659,-3.0999,-3.0099,-2.9365,-2.8975,-2.8975,-2.8975,-2.8975,-2.8975,-2.8975,-2.8975,-2.8975,-2.8975,-2.8975,-2.8975,-2.8975,-2.8957,-2.8773,-2.8195,-2.7601,-2.705,-2.6662,-2.6649,-2.6608,-2.5947,-2.6024,-2.689,-2.6811,-2.7717,-2.8816,-2.9321,-2.9605,-3.0283,-3.0398,-3.0398,-3.0398,-3.0398,-3.0398,-3.0398,-3.0398,-3.0398,-3.0398,-3.0398,-3.0794,-3.1595,-3.2013,-3.2712,-3.3987,-3.4295,-3.4661,-3.5238,-3.5488,-3.5507,-3.5507,-3.5507,-3.5507,-3.5507,-3.5507,-3.5507,-3.5507,-3.5507,-3.5507,-3.5507,-3.5507,-3.5507,-3.5526,-3.5526,-3.5545,-3.5611,-3.5729,-3.584,-3.5918,-3.5976,-3.6016,-3.5762,-3.5527,-3.5019,-3.4687,-3.4297,-3.4043,-3.4141,-3.3867,-3.3164,-3.2773,-3.2598,-3.209,-3.8707,-3.8707,-3.8707,-3.8707,-3.8707,-3.8707,-3.8707,-3.8707,-3.8689,-3.8187,-3.7599,-3.7507,-3.6541,-3.51,-3.499,-3.4578,-3.3972,-3.3807,-3.3807,-3.3807,-3.3807,-3.3807,-3.3807,-3.3807,-3.3807,-3.3807,-3.3788,-3.3385,-3.2614,-3.1788,-3.0999,-3.0191,-2.942,-2.8975,-2.8975,-2.8975,-2.8975,-2.8975,-2.8975,-2.8975,-2.8975,-2.8975,-2.8975,-2.8975,-2.8975,-2.9017,-2.9044,-2.9148,-2.883,-2.8128,-2.7692,-2.78,-2.8198,-2.7582,-2.7428,-2.814,-2.8401,-2.8844,-2.9737,-3.0013,-3.0167,-3.034,-3.0398,-3.0398,-3.0398,-3.0398,-3.0398,-3.0398,-3.0398,-3.0398,-3.0398,-3.0467,-3.1109,-3.2359,-3.3044,-3.3884,-3.4801,-3.5161,-3.5276,-3.5468,-3.5488,-3.5507,-3.5507,-3.5507,-3.5507,-3.5507,-3.5507,-3.5507,-3.5507,-3.5507,-3.5507,-3.5507,-3.5507,-3.5507,-3.5507,-3.5507,-3.5507,-3.5545,-3.5646,-3.5781,-3.5879,-3.5957,-3.5996,-3.5937,-3.584,-3.5449,-3.5547,-3.5469,-3.5293,-3.4922,-3.4941,-3.4551,-3.3613,-3.3125,-3.2422,-3.8707,-3.8707,-3.8707,-3.8707,-3.8707,-3.8707,-3.8511,-3.8224,-3.8193,-3.7746,-3.7114,-3.6974,-3.6248,-3.5064,-3.499,-3.4559,-3.388,-3.3807,-3.3807,-3.3807,-3.3807,-3.3807,-3.3807,-3.3807,-3.3807,-3.3807,-3.3807,-3.3348,-3.2614,-3.1788,-3.0999,-3.021,-2.9402,-2.8994,-2.8975,-2.8975,-2.8975,-2.8975,-2.8975,-2.8975,-2.8975,-2.8975,-2.8975,-2.8975,-2.9017,-2.9053,-2.9195,-2.9495,-2.9452,-2.9021,-2.8668,-2.8621,-2.8948,-2.8332,-2.8294,-2.9036,-2.9105,-2.9451,-3.0198,-3.0398,-3.0398,-3.0398,-3.0398,-3.0398,-3.0398,-3.0398,-3.0398,-3.0398,-3.0398,-3.0398,-3.0544,-3.0999,-3.1859,-3.2787,-3.3991,-3.4903,-3.5468,-3.5468,-3.5488,-3.5507,-3.5507,-3.5507,-3.5507,-3.5507,-3.5507,-3.5507,-3.5507,-3.5507,-3.5507,-3.5507,-3.5507,-3.5507,-3.5507,-3.5507,-3.5507,-3.5507,-3.5507,-3.5526,-3.5596,-3.5736,-3.584,-3.5937,-3.5976,-3.6016,-3.6016,-3.6016,-3.6016,-3.6016,-3.584,-3.5684,-3.5976,-3.5566,-3.4453,-3.3711,-3.2969,-3.8707,-3.8707,-3.8707,-3.8707,-3.8689,-3.8597,-3.8151,-3.7595,-3.7429,-3.6919,-3.6277,-3.6156,-3.5624,-3.488,-3.4724,-3.4449,-3.3807,-3.3807,-3.3807,-3.3807,-3.3807,-3.3807,-3.3807,-3.3807,-3.3807,-3.3807,-3.3807,-3.344,-3.2761,-3.1916,-3.1072,-3.0338,-2.9531,-2.9053,-2.8975,-2.8975,-2.8975,-2.8975,-2.8975,-2.8975,-2.8975,-2.8975,-2.8975,-2.9017,-2.909,-2.9163,-2.9384,-2.962,-2.97,-2.9709,-2.9398,-2.9294,-2.9198,-2.8525,-2.8602,-2.914,-2.9413,-2.9701,-3.0237,-3.0398,-3.0398,-3.0398,-3.0398,-3.0398,-3.0398,-3.0398,-3.0398,-3.0398,-3.0398,-3.0398,-3.0602,-3.1811,-3.2634,-3.3146,-3.4408,-3.5339,-3.5507,-3.5507,-3.5507,-3.5507,-3.5507,-3.5507,-3.5507,-3.5507,-3.5507,-3.5507,-3.5507,-3.5507,-3.5507,-3.5507,-3.5507,-3.5507,-3.5507,-3.5507,-3.5507,-3.5507,-3.5507,-3.554,-3.5601,-3.5706,-3.5831,-3.5918,-3.5976,-3.6016,-3.6016,-3.6016,-3.6016,-3.6016,-3.5996,-3.5957,-3.5937,-3.5469,-3.4844,-3.4394,-3.3769,-3.8707,-3.8707,-3.8707,-3.8707,-3.8597,-3.8028,-3.7668,-3.74,-3.6806,-3.6056,-3.5432,-3.5266,-3.4835,-3.41,-3.4137,-3.3935,-3.3807,-3.3807,-3.3807,-3.3807,-3.3807,-3.3807,-3.3807,-3.3807,-3.3807,-3.3807,-3.3807,-3.366,-3.3164,-3.2027,-3.1292,-3.0889,-2.9641,-2.8975,-2.8975,-2.8975,-2.8975,-2.8975,-2.8975,-2.8975,-2.8975,-2.8975,-2.8975,-2.9035,-2.9205,-2.9333,-2.9444,-2.9751,-2.9926,-2.9958,-3.0033,-3.0025,-2.9967,-2.9852,-2.9833,-2.9929,-3.0044,-3.0179,-3.0352,-3.0398,-3.0398,-3.0398,-3.0398,-3.0398,-3.0398,-3.0398,-3.0398,-3.0398,-3.0398,-3.0398,-3.0544,-3.1908,-3.273,-3.3223,-3.4408,-3.5507,-3.5507,-3.5507,-3.5507,-3.5507,-3.5507,-3.5507,-3.5507,-3.5507,-3.5507,-3.5507,-3.5507,-3.5507,-3.5507,-3.5507,-3.5507,-3.5507,-3.5507,-3.5507,-3.5507,-3.5507,-3.5526,-3.5526,-3.5596,-3.5648,-3.5775,-3.5879,-3.5918,-3.5976,-3.6016,-3.5996,-3.5937,-3.5937,-3.5918,-3.5879,-3.5811,-3.5425,-3.5051,-3.4798,-3.4687,-3.8707,-3.8652,-3.8303,-3.8138,-3.7991,-3.7276,-3.6703,-3.6314,-3.5897,-3.5211,-3.4559,-3.4431,-3.4192,-3.3807,-3.3807,-3.3825,-3.3807,-3.3807,-3.3807,-3.3807,-3.3807,-3.3807,-3.3807,-3.3807,-3.3807,-3.3807,-3.3807,-3.3476,-3.2596,-3.1843,-3.0962,-3.0301,-2.9402,-2.903,-2.8975,-2.8975,-2.8975,-2.8975,-2.8975,-2.8975,-2.8975,-2.8975,-2.8975,-2.9053,-2.9265,-2.9425,-2.9565,-2.984,-3.0042,-3.0186,-3.0321,-3.0398,-3.0398,-3.0398,-3.0398,-3.0398,-3.0398,-3.0398,-3.0398,-3.0398,-3.0398,-3.0398,-3.0398,-3.0398,-3.0398,-3.0398,-3.0398,-3.0398,-3.0398,-3.0398,-3.0506,-3.1908,-3.275,-3.3204,-3.4447,-3.5416,-3.5488,-3.5507,-3.5507,-3.5507,-3.5507,-3.5507,-3.5507,-3.5507,-3.5507,-3.5507,-3.5507,-3.5507,-3.5507,-3.5507,-3.5507,-3.5507,-3.5507,-3.5507,-3.5507,-3.5507,-3.5526,-3.5545,-3.5553,-3.5611,-3.5678,-3.5757,-3.584,-3.5879,-3.5898,-3.5859,-3.5807,-3.5817,-3.5815,-3.5797,-3.5676,-3.5417,-3.5253,-3.5175,-3.5166,-3.8634,-3.8469,-3.7771,-3.7422,-3.7213,-3.645,-3.5732,-3.5096,-3.4871,-3.4468,-3.3917,-3.3807,-3.388,-3.3807,-3.3807,-3.3807,-3.3807,-3.3807,-3.3807,-3.3807,-3.3807,-3.3807,-3.3807,-3.3807,-3.3807,-3.3807,-3.3807,-3.3054,-3.2082,-3.1366,-3.0779,-2.947,-2.9049,-2.8994,-2.8975,-2.8975,-2.8975,-2.8975,-2.8975,-2.8975,-2.8975,-2.8975,-2.8975,-2.9053,-2.9338,-2.9508,-2.97,-2.9947,-3.0167,-3.0379,-3.0398,-3.0398,-3.0398,-3.0398,-3.0398,-3.0398,-3.0398,-3.0398,-3.0398,-3.0398,-3.0398,-3.0398,-3.0398,-3.0398,-3.0398,-3.0398,-3.0398,-3.0398,-3.0398,-3.0398,-3.0506,-3.1677,-3.2596,-3.3127,-3.437,-3.5224,-3.5468,-3.5507,-3.5507,-3.5507,-3.5507,-3.5507,-3.5507,-3.5507,-3.5507,-3.5507,-3.5507,-3.5507,-3.5507,-3.5507,-3.5507,-3.5507,-3.5507,-3.5507,-3.5507,-3.5507,-3.5507,-3.5526,-3.5545,-3.5559,-3.5586,-3.5631,-3.5696,-3.5735,-3.5742,-3.5706,-3.5708,-3.5719,-3.5718,-3.5699,-3.563,-3.5476,-3.547,-3.5559,-3.5368,-3.8285,-3.7679,-3.7533,-3.711,-3.6413,-3.5587,-3.5127,-3.4906,-3.4284,-3.3954,-3.3825,-3.3807,-3.3807,-3.3807,-3.3807,-3.3807,-3.3807,-3.3807,-3.3807,-3.3807,-3.3807,-3.3807,-3.3807,-3.3807,-3.3807,-3.3807,-3.377,-3.3238,-3.2302,-3.1715,-3.0797,-2.9989,-2.9287,-2.8994,-2.8975,-2.8975,-2.8975,-2.8975,-2.8975,-2.8975,-2.8975,-2.8975,-2.9021,-2.9076,-2.9435,-2.9646,-2.979,-3.0109,-3.0359,-3.0398,-3.0398,-3.0398,-3.0398,-3.0398,-3.0398,-3.0398,-3.0398,-3.0398,-3.0398,-3.0398,-3.0398,-3.0398,-3.0398,-3.0398,-3.0398,-3.0398,-3.0398,-3.0398,-3.0398,-3.0398,-3.0417,-3.1415,-3.216,-3.2897,-3.3703,-3.4672,-3.5205,-3.5391,-3.543,-3.5488,-3.5488,-3.5507,-3.5507,-3.5507,-3.5507,-3.5507,-3.5507,-3.5507,-3.5507,-3.5507,-3.5507,-3.5507,-3.5507,-3.5507,-3.5507,-3.5507,-3.5507,-3.5507,-3.5507,-3.5507,-3.552,-3.5507,-3.555,-3.5611,-3.5659,-3.5673,-3.5669,-3.5641,-3.5622,-3.5622,-3.5584,-3.5526,-3.5238,-3.4949,-3.4564,-3.7845,-3.7404,-3.6578,-3.6009,-3.5532,-3.4743,-3.4385,-3.4339,-3.3963,-3.3807,-3.3807,-3.3807,-3.3807,-3.3807,-3.3807,-3.3807,-3.3807,-3.3807,-3.3807,-3.3807,-3.3807,-3.3807,-3.3807,-3.3807,-3.3807,-3.3807,-3.3752,-3.3128,-3.2045,-3.1604,-3.0742,-2.9732,-2.914,-2.8994,-2.8975,-2.8975,-2.8975,-2.8975,-2.8975,-2.8975,-2.8975,-2.8998,-2.9044,-2.9267,-2.9525,-2.972,-2.9903,-3.018,-3.0379,-3.0398,-3.0398,-3.0398,-3.0398,-3.0398,-3.0398,-3.0398,-3.0398,-3.0398,-3.0398,-3.0398,-3.0398,-3.0398,-3.0398,-3.0398,-3.0398,-3.0398,-3.0398,-3.0398,-3.0398,-3.0398,-3.0417,-3.1191,-3.1826,-3.2282,-3.3019,-3.3878,-3.4532,-3.4776,-3.5045,-3.5315,-3.5416,-3.5449,-3.5507,-3.5507,-3.5507,-3.5507,-3.5507,-3.5507,-3.5507,-3.5507,-3.5507,-3.5507,-3.5507,-3.5507,-3.5507,-3.5507,-3.5507,-3.5507,-3.5507,-3.5507,-3.5507,-3.5507,-3.5507,-3.5547,-3.5578,-3.5622,-3.5584,-3.5545,-3.5545,-3.5468,-3.5141,-3.4872,-3.4603,-3.4276,-3.3846,-3.7294,-3.6872,-3.5569,-3.4899,-3.4642,-3.4082,-3.3825,-3.3807,-3.3825,-3.3807,-3.3807,-3.3807,-3.3807,-3.3807,-3.3807,-3.3807,-3.3807,-3.3807,-3.3807,-3.3807,-3.3807,-3.3807,-3.3807,-3.3807,-3.3807,-3.3807,-3.3788,-3.2963,-3.177,-3.1421,-3.0485,-2.9494,-2.9012,-2.8975,-2.8975,-2.8975,-2.8975,-2.8975,-2.8975,-2.8975,-2.8975,-2.8998,-2.9134,-2.9373,-2.9585,-2.9771,-2.9976,-3.0237,-3.0386,-3.0398,-3.0398,-3.0398,-3.0398,-3.0398,-3.0398,-3.0398,-3.0398,-3.0398,-3.0398,-3.0398,-3.0398,-3.0398,-3.0398,-3.0398,-3.0398,-3.0398,-3.0398,-3.0398,-3.0398,-3.0398,-3.0487,-3.0999,-3.1472,-3.1838,-3.2326,-3.2949,-3.3622,-3.4064,-3.4391,-3.4724,-3.5109,-3.5339,-3.5359,-3.5507,-3.5507,-3.5507,-3.5507,-3.5507,-3.5507,-3.5507,-3.5507,-3.5507,-3.5507,-3.5507,-3.5507,-3.5507,-3.5507,-3.5507,-3.5507,-3.5507,-3.5507,-3.5507,-3.5507,-3.5526,-3.5526,-3.5545,-3.5507,-3.5507,-3.5507,-3.5295,-3.4661,-3.4334,-3.4295,-3.3603,-3.2852,-3.6633,-3.5284,-3.5082,-3.4614,-3.4009,-3.3862,-3.3807,-3.3807,-3.3807,-3.3807,-3.3807,-3.3807,-3.3807,-3.3807,-3.3807,-3.3807,-3.3807,-3.3807,-3.3807,-3.3807,-3.3807,-3.3807,-3.3807,-3.3807,-3.3807,-3.3807,-3.3807,-3.2871,-3.1825,-3.1476,-3.0613,-2.9402,-2.903,-2.8975,-2.8975,-2.8975,-2.8975,-2.8975,-2.8975,-2.8975,-2.8998,-2.8998,-2.9178,-2.9395,-2.9626,-2.9822,-3.0021,-3.0265,-3.0398,-3.0398,-3.0398,-3.0398,-3.0398,-3.0398,-3.0398,-3.0398,-3.0398,-3.0398,-3.0398,-3.0398,-3.0398,-3.0398,-3.0398,-3.0398,-3.0398,-3.0398,-3.0398,-3.0398,-3.0398,-3.0398,-3.0398,-3.0525,-3.096,-3.1338,-3.1703,-3.2249,-3.2865,-3.3122,-3.3474,-3.4109,-3.4493,-3.4955,-3.5185,-3.5359,-3.5507,-3.5507,-3.5507,-3.5507,-3.5507,-3.5507,-3.5507,-3.5507,-3.5507,-3.5507,-3.5507,-3.5507,-3.5507,-3.5507,-3.5507,-3.5507,-3.5507,-3.5507,-3.5507,-3.5507,-3.5507,-3.5507,-3.5507,-3.5507,-3.5507,-3.5064,-3.4372,-3.4199,-3.4199,-3.3218,-3.1929,-3.5679,-3.4954,-3.4523,-3.4119,-3.3825,-3.3807,-3.3807,-3.3807,-3.3807,-3.3807,-3.3807,-3.3807,-3.3807,-3.3807,-3.3807,-3.3807,-3.3807,-3.3807,-3.3807,-3.3807,-3.3807,-3.3807,-3.3807,-3.3807,-3.3807,-3.3807,-3.3715,-3.3275,-3.2265,-3.1513,-3.0742,-2.9806,-2.9214,-2.8975,-2.8975,-2.8975,-2.8975,-2.8975,-2.8975,-2.8975,-2.904,-2.9138,-2.9314,-2.9551,-2.9761,-2.9962,-3.0185,-3.0318,-3.0398,-3.0398,-3.0398,-3.0398,-3.0398,-3.0398,-3.0398,-3.0398,-3.0398,-3.0398,-3.0398,-3.0398,-3.0398,-3.0398,-3.0398,-3.0398,-3.0398,-3.0398,-3.0398,-3.0398,-3.0398,-3.0398,-3.0398,-3.0398,-3.0583,-3.0864,-3.1095,-3.153,-3.198,-3.216,-3.2532,-3.3205,-3.3897,-3.4455,-3.4993,-3.532,-3.5468,-3.5507,-3.5507,-3.5507,-3.5507,-3.5507,-3.5507,-3.5507,-3.5507,-3.5507,-3.5507,-3.5507,-3.5507,-3.5507,-3.5507,-3.5507,-3.5507,-3.5507,-3.5507,-3.5507,-3.5507,-3.5507,-3.5507,-3.5449,-3.5411,-3.4776,-3.4045,-3.3699,-3.3276,-3.2122,-3.1083,-3.488,-3.4651,-3.4045,-3.3807,-3.3807,-3.3807,-3.3807,-3.3807,-3.3807,-3.3807,-3.3807,-3.3807,-3.3807,-3.3807,-3.3807,-3.3807,-3.3807,-3.3807,-3.3807,-3.3807,-3.3807,-3.3807,-3.3807,-3.3807,-3.3807,-3.3807,-3.3807,-3.3458,-3.2816,-3.1916,-3.098,-3.0191,-2.9347,-2.9053,-2.8975,-2.8975,-2.8975,-2.8975,-2.8975,-2.8975,-2.9044,-2.9265,-2.9474,-2.9697,-2.9899,-3.0133,-3.0343,-3.0398,-3.0398,-3.0398,-3.0398,-3.0398,-3.0398,-3.0398,-3.0398,-3.0398,-3.0398,-3.0398,-3.0398,-3.0398,-3.0398,-3.0398,-3.0398,-3.0398,-3.0398,-3.0398,-3.0398,-3.0398,-3.0398,-3.0398,-3.0398,-3.0398,-3.0467,-3.0487,-3.0525,-3.0902,-3.1229,-3.141,-3.1955,-3.291,-3.359,-3.4147,-3.4686,-3.5205,-3.543,-3.5488,-3.5507,-3.5507,-3.5507,-3.5507,-3.5507,-3.5507,-3.5507,-3.5507,-3.5507,-3.5507,-3.5507,-3.5507,-3.5507,-3.5507,-3.5507,-3.5507,-3.5507,-3.5507,-3.5507,-3.5507,-3.5507,-3.5411,-3.5238,-3.4526,-3.3757,-3.2814,-3.2025,-3.0987,-3.0506,-3.4568,-3.388,-3.3825,-3.3807,-3.3807,-3.3807,-3.3807,-3.3807,-3.3807,-3.3807,-3.3807,-3.3807,-3.3807,-3.3807,-3.3807,-3.3807,-3.3807,-3.3807,-3.3807,-3.3807,-3.3807,-3.3807,-3.3807,-3.3807,-3.3807,-3.3807,-3.3807,-3.3752,-3.3293,-3.1953,-3.1054,-3.021,-2.9402,-2.9085,-2.8975,-2.8975,-2.8975,-2.8975,-2.8975,-2.8975,-2.9089,-2.927,-2.9513,-2.9695,-2.9893,-3.0122,-3.0367,-3.0398,-3.0398,-3.0398,-3.0398,-3.0398,-3.0398,-3.0398,-3.0398,-3.0398,-3.0398,-3.0398,-3.0398,-3.0398,-3.0398,-3.0398,-3.0398,-3.0398,-3.0398,-3.0398,-3.0398,-3.0398,-3.0398,-3.0398,-3.0398,-3.0398,-3.0398,-3.0398,-3.0398,-3.0525,-3.0717,-3.0679,-3.1321,-3.2487,-3.3237,-3.3724,-3.4436,-3.4974,-3.5411,-3.5488,-3.5507,-3.5507,-3.5507,-3.5507,-3.5507,-3.5507,-3.5507,-3.5507,-3.5507,-3.5507,-3.5507,-3.5507,-3.5507,-3.5507,-3.5507,-3.5507,-3.5507,-3.5507,-3.5507,-3.5507,-3.5488,-3.5449,-3.5141,-3.4334,-3.3487,-3.2583,-3.1718,-3.0871,-3.0544,-3.41,-3.3807,-3.3807,-3.3807,-3.3807,-3.3807,-3.3807,-3.3807,-3.3807,-3.3807,-3.3807,-3.3807,-3.3807,-3.3807,-3.3807,-3.3807,-3.3807,-3.3807,-3.3807,-3.3807,-3.3807,-3.3807,-3.3807,-3.3807,-3.3807,-3.3807,-3.377,-3.3458,-3.2889,-3.1843,-3.1035,-3.0191,-2.9379,-2.9085,-2.8975,-2.8975,-2.8975,-2.8975,-2.8975,-2.8975,-2.9089,-2.9395,-2.9626,-2.9695,-3.0095,-3.0273,-3.0398,-3.0398,-3.0398,-3.0398,-3.0398,-3.0398,-3.0398,-3.0398,-3.0398,-3.0398,-3.0398,-3.0398,-3.0398,-3.0398,-3.0398,-3.0398,-3.0398,-3.0398,-3.0398,-3.0398,-3.0398,-3.0398,-3.0398,-3.0398,-3.0398,-3.0398,-3.0398,-3.0398,-3.0398,-3.0398,-3.0398,-3.0398,-3.084,-3.2083,-3.2699,-3.3179,-3.3987,-3.4776,-3.518,-3.5507,-3.5507,-3.5507,-3.5507,-3.5507,-3.5507,-3.5507,-3.5507,-3.5507,-3.5507,-3.5507,-3.5507,-3.5507,-3.5507,-3.5507,-3.5507,-3.5507,-3.5507,-3.5507,-3.5507,-3.5507,-3.5507,-3.5507,-3.493,-3.3891,-3.3122,-3.241,-3.1564,-3.0717,-3.0564,-3.3807,-3.3807,-3.3807,-3.3807,-3.3807,-3.3807,-3.3807,-3.3807,-3.3807,-3.3807,-3.3807,-3.3807,-3.3807,-3.3807,-3.3807,-3.3807,-3.3807,-3.3807,-3.3807,-3.3807,-3.3807,-3.3807,-3.3807,-3.3807,-3.3807,-3.3752,-3.3458,-3.3073,-3.2669,-3.1586,-3.0797,-3.0099,-2.9457,-2.9067,-2.8975,-2.8975,-2.8975,-2.8975,-2.8975,-2.8975,-2.9067,-2.9436,-2.9696,-2.9765,-3.0142,-3.0355,-3.0398,-3.0398,-3.0398,-3.0398,-3.0398,-3.0398,-3.0398,-3.0398,-3.0398,-3.0398,-3.0398,-3.0398,-3.0398,-3.0398,-3.0398,-3.0398,-3.0398,-3.0398,-3.0398,-3.0398,-3.0398,-3.0398,-3.0398,-3.0398,-3.0398,-3.0398,-3.0398,-3.0398,-3.0398,-3.0398,-3.0398,-3.0417,-3.0936,-3.1679,-3.2295,-3.3141,-3.4237,-3.5084,-3.5218,-3.5507,-3.5507,-3.5507,-3.5507,-3.5507,-3.5507,-3.5507,-3.5507,-3.5507,-3.5507,-3.5507,-3.5507,-3.5507,-3.5507,-3.5507,-3.5507,-3.5507,-3.5507,-3.5507,-3.5507,-3.5507,-3.5488,-3.5468,-3.4507,-3.3276,-3.2468,-3.1621,-3.1256,-3.0494,-3.0525,-3.3807,-3.3807,-3.3807,-3.3807,-3.3807,-3.3807,-3.3807,-3.3807,-3.3807,-3.3807,-3.3807,-3.3807,-3.3807,-3.3807,-3.3807,-3.3807,-3.3807,-3.3807,-3.3807,-3.3807,-3.3807,-3.3807,-3.3807,-3.3807,-3.3697,-3.3587,-3.3183,-3.2742,-3.2357,-3.1109,-3.0375,-2.9953,-2.9365,-2.8975,-2.8975,-2.8975,-2.8975,-2.8975,-2.8975,-2.8975,-2.9093,-2.9418,-2.9607,-2.9799,-3.0084,-3.0321,-3.0398,-3.0398,-3.0398,-3.0398,-3.0398,-3.0398,-3.0398,-3.0398,-3.0398,-3.0398,-3.0398,-3.0398,-3.0398,-3.0398,-3.0398,-3.0398,-3.0398,-3.0398,-3.0398,-3.0398,-3.0398,-3.0398,-3.0398,-3.0398,-3.0398,-3.0398,-3.0398,-3.0398,-3.0398,-3.0398,-3.0398,-3.0417,-3.0879,-3.1564,-3.2487,-3.343,-3.4622,-3.5449,-3.543,-3.5507,-3.5507,-3.5507,-3.5507,-3.5507,-3.5507,-3.5507,-3.5507,-3.5507,-3.5507,-3.5507,-3.5507,-3.5507,-3.5507,-3.5507,-3.5507,-3.5507,-3.5507,-3.5507,-3.5507,-3.5507,-3.5468,-3.5449,-3.4083,-3.2718,-3.1487,-3.0686,-3.0436,-3.0398,-3.0448,-3.3807,-3.3807,-3.3807,-3.3807,-3.3807,-3.3807,-3.3807,-3.3807,-3.3807,-3.3807,-3.3807,-3.3807,-3.3807,-3.3807,-3.3807,-3.3807,-3.3807,-3.3807,-3.3807,-3.3807,-3.3807,-3.3807,-3.3807,-3.3752,-3.3521,-3.3051,-3.261,-3.1898,-3.0925,-3.0301,-2.9861,-2.942,-2.9237,-2.9035,-2.8975,-2.8975,-2.8975,-2.8975,-2.8975,-2.8998,-2.9062,-2.9332,-2.9589,-2.9713,-3.0027,-3.0251,-3.0379,-3.0398,-3.0398,-3.0398,-3.0398,-3.0398,-3.0398,-3.0398,-3.0398,-3.0398,-3.0398,-3.0398,-3.0398,-3.0398,-3.0398,-3.0398,-3.0398,-3.0398,-3.0398,-3.0398,-3.0398,-3.0398,-3.0398,-3.0398,-3.0398,-3.0398,-3.0398,-3.0398,-3.0398,-3.0398,-3.0398,-3.0417,-3.0706,-3.1583,-3.2487,-3.3737,-3.4949,-3.543,-3.5507,-3.5507,-3.5507,-3.5507,-3.5507,-3.5507,-3.5507,-3.5507,-3.5507,-3.5507,-3.5507,-3.5507,-3.5507,-3.5507,-3.5507,-3.5507,-3.5507,-3.5507,-3.5507,-3.5507,-3.5507,-3.5488,-3.518,-3.468,-3.3449,-3.216,-3.1102,-3.0456,-3.0398,-3.0398,-3.0417,-3.3807,-3.3807,-3.3807,-3.3807,-3.3807,-3.3807,-3.3807,-3.3807,-3.3807,-3.3807,-3.3807,-3.3807,-3.3807,-3.3807,-3.3807,-3.3807,-3.3807,-3.3807,-3.3807,-3.3807,-3.3807,-3.3807,-3.3807,-3.3752,-3.3345,-3.2753,-3.2151,-3.1494,-3.0375,-2.9953,-2.9531,-2.9159,-2.8975,-2.8975,-2.8975,-2.8975,-2.8975,-2.8975,-2.8975,-2.8998,-2.9067,-2.9289,-2.9513,-2.9693,-2.9908,-3.0132,-3.0328,-3.0398,-3.0398,-3.0398,-3.0398,-3.0398,-3.0398,-3.0398,-3.0398,-3.0398,-3.0398,-3.0398,-3.0398,-3.0398,-3.0398,-3.0398,-3.0398,-3.0398,-3.0398,-3.0398,-3.0398,-3.0398,-3.0398,-3.0398,-3.0398,-3.0398,-3.0398,-3.0398,-3.0398,-3.0398,-3.0398,-3.0417,-3.0737,-3.1602,-3.2564,-3.3891,-3.5026,-3.5276,-3.5507,-3.5507,-3.5507,-3.5507,-3.5507,-3.5507,-3.5507,-3.5507,-3.5507,-3.5507,-3.5507,-3.5507,-3.5507,-3.5507,-3.5507,-3.5507,-3.5507,-3.5507,-3.5507,-3.5507,-3.5507,-3.5315,-3.4641,-3.3866,-3.2737,-3.1852,-3.1064,-3.0609,-3.0436,-3.0417,-3.0436,-3.3807,-3.3807,-3.3807,-3.3807,-3.3807,-3.3807,-3.3807,-3.3807,-3.3807,-3.3807,-3.3807,-3.3807,-3.3807,-3.3807,-3.3807,-3.3807,-3.3807,-3.3807,-3.3807,-3.3807,-3.3807,-3.3807,-3.3807,-3.377,-3.318,-3.2488,-3.182,-3.1127,-3.0155,-2.9549,-2.9122,-2.9012,-2.8975,-2.8975,-2.8975,-2.8975,-2.8975,-2.8975,-2.8975,-2.8975,-2.9044,-2.9203,-2.9455,-2.9658,-2.9886,-3.0112,-3.0292,-3.0398,-3.0398,-3.0398,-3.0398,-3.0398,-3.0398,-3.0398,-3.0398,-3.0398,-3.0398,-3.0398,-3.0398,-3.0398,-3.0398,-3.0398,-3.0398,-3.0398,-3.0398,-3.0398,-3.0398,-3.0398,-3.0398,-3.0398,-3.0398,-3.0398,-3.0398,-3.0398,-3.0398,-3.0398,-3.0398,-3.0583,-3.091,-3.1641,-3.2602,-3.3737,-3.4834,-3.5276,-3.5507,-3.5507,-3.5507,-3.5507,-3.5507,-3.5507,-3.5507,-3.5507,-3.5507,-3.5507,-3.5507,-3.5507,-3.5507,-3.5507,-3.5507,-3.5507,-3.5507,-3.5507,-3.5507,-3.5507,-3.5507,-3.5084,-3.4167,-3.3192,-3.2141,-3.1371,-3.0756,-3.0609,-3.0398,-3.0417,-3.0448,-3.3807,-3.3807,-3.3807,-3.3807,-3.3807,-3.3807,-3.3807,-3.3807,-3.3807,-3.3807,-3.3807,-3.3807,-3.3807,-3.3807,-3.3807,-3.3807,-3.3807,-3.3807,-3.3807,-3.3807,-3.3807,-3.3807,-3.377,-3.3642,-3.2934,-3.2089,-3.1336,-3.0668,-2.9604,-2.8975,-2.8975,-2.8994,-2.8975,-2.8975,-2.8975,-2.8975,-2.8975,-2.8975,-2.8975,-2.8975,-2.8975,-2.9112,-2.9355,-2.9606,-2.9753,-3.0023,-3.0273,-3.0379,-3.0398,-3.0386,-3.0398,-3.0398,-3.0398,-3.0398,-3.0398,-3.0398,-3.0398,-3.0398,-3.0398,-3.0398,-3.0398,-3.0379,-3.0398,-3.0398,-3.0398,-3.0398,-3.0398,-3.0398,-3.0398,-3.0398,-3.0398,-3.0398,-3.0398,-3.0398,-3.0398,-3.0398,-3.0398,-3.0494,-3.0871,-3.166,-3.2622,-3.3564,-3.4641,-3.5315,-3.5507,-3.5507,-3.5507,-3.5507,-3.5507,-3.5507,-3.5507,-3.5507,-3.5507,-3.5507,-3.5507,-3.5507,-3.5507,-3.5507,-3.5507,-3.5507,-3.5507,-3.5507,-3.5507,-3.5449,-3.5339,-3.4539,-3.3441,-3.2562,-3.1891,-3.1083,-3.0475,-3.0436,-3.0398,-3.0417,-3.0483,-3.3807,-3.3807,-3.3807,-3.3807,-3.3807,-3.3807,-3.3807,-3.3807,-3.3807,-3.3807,-3.3807,-3.3807,-3.3807,-3.3807,-3.3807,-3.3807,-3.3807,-3.3807,-3.3807,-3.3807,-3.3733,-3.3523,-3.3468,-3.3183,-3.2284,-3.1476,-3.0797,-3.0246,-2.9274,-2.8975,-2.8975,-2.8975,-2.8975,-2.8975,-2.8975,-2.8975,-2.8975,-2.8975,-2.8975,-2.8975,-2.8975,-2.8998,-2.927,-2.9514,-2.9636,-2.9927,-3.0208,-3.0302,-3.0349,-3.0265,-3.0242,-3.0185,-3.0188,-3.0184,-3.0222,-3.0222,-3.022,-3.0213,-3.0206,-3.0225,-3.0302,-3.0379,-3.0398,-3.0398,-3.0398,-3.0398,-3.0398,-3.0398,-3.0398,-3.0398,-3.0398,-3.0398,-3.0398,-3.0398,-3.0398,-3.0398,-3.0398,-3.0398,-3.0968,-3.1718,-3.2583,-3.3506,-3.4353,-3.5026,-3.5507,-3.5507,-3.5507,-3.5507,-3.5507,-3.5507,-3.5507,-3.5507,-3.5507,-3.5507,-3.5507,-3.5507,-3.5507,-3.5507,-3.5507,-3.5507,-3.5507,-3.5507,-3.5507,-3.5339,-3.5147,-3.425,-3.332,-3.2589,-3.1872,-3.1083,-3.0456,-3.0398,-3.0398,-3.0417,-3.0486,-3.3807,-3.3807,-3.3807,-3.3807,-3.3807,-3.3807,-3.3807,-3.3807,-3.3807,-3.3807,-3.3807,-3.3807,-3.3807,-3.3807,-3.3807,-3.3678,-3.3587,-3.3513,-3.3348,-3.3605,-3.3276,-3.2966,-3.2627,-3.2383,-3.1679,-3.0717,-3.0143,-2.9971,-2.9274,-2.8975,-2.8975,-2.8975,-2.8975,-2.8975,-2.8975,-2.8975,-2.8975,-2.8975,-2.8975,-2.8975,-2.8975,-2.9021,-2.9134,-2.9394,-2.9588,-2.9788,-2.996,-3.0119,-3.0226,-3.0051,-2.9961,-2.9886,-2.9864,-2.9904,-2.9961,-2.9975,-2.9983,-2.9991,-3.0011,-3.003,-3.0155,-3.0283,-3.0398,-3.0398,-3.0398,-3.0398,-3.0398,-3.0398,-3.0398,-3.0398,-3.0398,-3.0398,-3.0398,-3.0398,-3.0398,-3.0398,-3.0398,-3.0417,-3.0686,-3.1487,-3.2372,-3.3256,-3.3891,-3.4564,-3.5488,-3.5507,-3.5507,-3.5507,-3.5507,-3.5507,-3.5507,-3.5507,-3.5507,-3.5507,-3.5507,-3.5507,-3.5507,-3.5507,-3.5507,-3.5507,-3.5507,-3.5507,-3.5507,-3.5359,-3.5185,-3.432,-3.3436,-3.2782,-3.2064,-3.1179,-3.0667,-3.0456,-3.0398,-3.0417,-3.0463,-3.3807,-3.3807,-3.3807,-3.3807,-3.3807,-3.3807,-3.3788,-3.3807,-3.3807,-3.3733,-3.3807,-3.3788,-3.377,-3.3715,-3.3697,-3.3476,-3.2963,-3.2852,-3.2504,-3.2287,-3.2161,-3.2127,-3.1743,-3.1636,-3.1046,-3.0562,-3.0068,-2.9732,-2.9159,-2.8975,-2.8975,-2.8975,-2.8975,-2.8975,-2.8975,-2.8975,-2.8975,-2.8975,-2.8975,-2.8975,-2.8975,-2.9021,-2.9134,-2.933,-2.9494,-2.9597,-2.9742,-2.9819,-2.9837,-2.9763,-2.9768,-2.9734,-2.9715,-2.9758,-2.9775,-2.9777,-2.9772,-2.9782,-2.9798,-2.9856,-3.0011,-3.0143,-3.0251,-3.034,-3.0398,-3.0398,-3.0398,-3.0398,-3.0398,-3.0398,-3.0398,-3.0398,-3.0398,-3.0398,-3.0398,-3.0398,-3.0398,-3.0456,-3.0533,-3.1237,-3.2122,-3.2795,-3.341,-3.4237,-3.5161,-3.5507,-3.5507,-3.5507,-3.5507,-3.5507,-3.5507,-3.5507,-3.5507,-3.5507,-3.5507,-3.5507,-3.5507,-3.5507,-3.5507,-3.5507,-3.5507,-3.5507,-3.5488,-3.5488,-3.5205,-3.4474,-3.384,-3.3205,-3.2417,-3.1436,-3.0725,-3.0456,-3.0398,-3.0398,-3.0452,-3.3283,-3.3311,-3.3678,-3.3587,-3.3311,-3.3275,-3.3075,-3.2765,-3.2753,-3.2724,-3.2908,-3.3385,-3.3605,-3.333,-3.3256,-3.2834,-3.2192,-3.2082,-3.1898,-3.1536,-3.1228,-3.1177,-3.1034,-3.0827,-3.0281,-2.9858,-2.9682,-2.9365,-2.903,-2.8975,-2.8975,-2.8975,-2.8975,-2.8975,-2.8975,-2.8975,-2.8975,-2.8975,-2.8975,-2.8975,-2.8975,-2.9021,-2.9044,-2.9203,-2.9357,-2.9439,-2.9548,-2.9614,-2.9631,-2.9532,-2.944,-2.949,-2.9493,-2.957,-2.957,-2.957,-2.955,-2.9569,-2.9608,-2.9678,-2.9817,-2.9983,-3.0088,-3.0177,-3.0222,-3.0235,-3.0398,-3.0398,-3.0398,-3.0398,-3.0398,-3.0398,-3.0398,-3.0398,-3.0398,-3.0398,-3.0398,-3.0417,-3.0456,-3.0686,-3.1468,-3.2102,-3.2833,-3.3776,-3.4584,-3.4949,-3.5026,-3.5449,-3.5488,-3.5507,-3.5507,-3.5507,-3.5507,-3.5507,-3.5507,-3.5507,-3.5507,-3.5507,-3.5507,-3.5507,-3.5507,-3.5507,-3.5488,-3.5488,-3.5339,-3.4955,-3.4301,-3.3551,-3.2679,-3.1698,-3.0987,-3.0398,-3.0398,-3.0398,-3.0441,-3.2438,-3.2559,-3.3164,-3.3091,-3.2504,-3.2449,-3.2096,-3.1553,-3.1444,-3.1464,-3.1673,-3.2878,-3.2963,-3.2669,-3.2412,-3.1861,-3.1458,-3.1292,-3.1182,-3.0944,-3.0907,-3.0485,-3.0198,-2.9995,-2.9614,-2.9333,-2.9163,-2.9104,-2.8994,-2.8975,-2.8975,-2.8975,-2.8975,-2.8975,-2.8975,-2.8975,-2.8975,-2.8975,-2.8975,-2.8975,-2.8975,-2.8975,-2.8998,-2.9089,-2.9218,-2.9333,-2.9394,-2.9458,-2.9465,-2.9357,-2.9173,-2.9211,-2.9265,-2.9332,-2.9332,-2.9336,-2.9323,-2.9334,-2.9373,-2.9422,-2.9626,-2.9807,-2.9905,-2.998,-3.0028,-3.0122,-3.0254,-3.0367,-3.0367,-3.0398,-3.0398,-3.0398,-3.0398,-3.0398,-3.0398,-3.0398,-3.0398,-3.0398,-3.0398,-3.0417,-3.0968,-3.1621,-3.2314,-3.3276,-3.3853,-3.4218,-3.4661,-3.5122,-3.5449,-3.5488,-3.5507,-3.5507,-3.5507,-3.5507,-3.5507,-3.5507,-3.5507,-3.5507,-3.5507,-3.5507,-3.5507,-3.5507,-3.5507,-3.5488,-3.5301,-3.5109,-3.4493,-3.3686,-3.2782,-3.1948,-3.1064,-3.0417,-3.0417,-3.0417,-3.0448,-3.1623,-3.1641,-3.1788,-3.177,-3.1641,-3.1623,-3.1524,-3.1407,-3.1341,-3.1403,-3.1341,-3.1507,-3.1715,-3.1604,-3.1623,-3.1182,-3.054,-3.043,-2.9934,-2.9507,-2.9787,-2.9507,-2.9379,-2.9457,-2.92,-2.9053,-2.8975,-2.8975,-2.8975,-2.8975,-2.8975,-2.8975,-2.8975,-2.8975,-2.8975,-2.8975,-2.8975,-2.8975,-2.8975,-2.8975,-2.8975,-2.8975,-2.8975,-2.9021,-2.9062,-2.9081,-2.9081,-2.9108,-2.9108,-2.9058,-2.9053,-2.9062,-2.9089,-2.9115,-2.9134,-2.9138,-2.9132,-2.9123,-2.9173,-2.9278,-2.9471,-2.9584,-2.9664,-2.9829,-2.9845,-2.9864,-3.0056,-3.0273,-3.0318,-3.0367,-3.0379,-3.0398,-3.0398,-3.0398,-3.0398,-3.0398,-3.0398,-3.0398,-3.0398,-3.0621,-3.1006,-3.1391,-3.1698,-3.2564,-3.3314,-3.3718,-3.4211,-3.4691,-3.5243,-3.5359,-3.5468,-3.5507,-3.5507,-3.5507,-3.5507,-3.5507,-3.5507,-3.5507,-3.5507,-3.5507,-3.5507,-3.5507,-3.5507,-3.5507,-3.5488,-3.5339,-3.4628,-3.3718,-3.3032,-3.2179,-3.1102,-3.0448,-3.0436,-3.0441,-3.0471]}]]